Time,TemperatureF,DewpointF,PressureIn,WindDirection,WindDirectionDegrees,WindSpeedMPH,WindSpeedGustMPH,Humidity,HourlyPrecipIn,Conditions,Clouds,dailyrainin,SoftwareType,DateUTC
2013-05-19 00:00:00,55.4,52.5,30.27,South,171,2.0,7.0,90,0.00,,,0.02,VWS V14.01,2013-05-19 04:00:00,
2013-05-19 00:01:00,55.4,52.5,30.27,South,171,0.0,2.0,90,0.00,,,0.00,VWS V14.01,2013-05-19 04:01:00,
2013-05-19 00:02:00,55.4,52.5,30.27,South,171,0.0,2.0,90,0.00,,,0.00,VWS V14.01,2013-05-19 04:02:00,
2013-05-19 00:03:00,55.4,52.5,30.27,South,171,0.0,2.0,90,0.00,,,0.00,VWS V14.01,2013-05-19 04:03:00,
2013-05-19 00:04:00,55.3,52.4,30.27,South,171,0.0,2.0,90,0.00,,,0.00,VWS V14.01,2013-05-19 04:04:00,
2013-05-19 00:05:00,55.3,52.4,30.27,South,171,0.0,2.0,90,0.00,,,0.00,VWS V14.01,2013-05-19 04:05:00,
2013-05-19 00:06:00,55.4,52.5,30.27,South,171,0.0,2.0,90,0.00,,,0.00,VWS V14.01,2013-05-19 04:06:00,
2013-05-19 00:07:00,55.4,52.5,30.27,South,171,0.0,2.0,90,0.00,,,0.00,VWS V14.01,2013-05-19 04:07:00,
2013-05-19 00:08:00,55.4,52.5,30.27,South,171,0.0,2.0,90,0.00,,,0.00,VWS V14.01,2013-05-19 04:08:00,
2013-05-19 00:09:00,55.4,52.5,30.27,South,171,0.0,2.0,90,0.00,,,0.00,VWS V14.01,2013-05-19 04:09:00,
2013-05-19 00:10:00,55.4,52.5,30.27,South,171,0.0,2.0,90,0.00,,,0.00,VWS V14.01,2013-05-19 04:10:00,
2013-05-19 00:11:00,55.4,52.5,30.27,South,171,0.0,0.0,90,0.00,,,0.00,VWS V14.01,2013-05-19 04:11:00,
2013-05-19 00:12:00,55.4,52.5,30.27,South,171,0.0,0.0,90,0.00,,,0.00,VWS V14.01,2013-05-19 04:12:00,
2013-05-19 00:13:00,55.4,52.5,30.27,South,171,0.0,0.0,90,0.00,,,0.00,VWS V14.01,2013-05-19 04:13:00,
2013-05-19 00:14:00,55.4,52.5,30.27,South,171,0.0,0.0,90,0.00,,,0.00,VWS V14.01,2013-05-19 04:14:00,
2013-05-19 00:15:00,55.4,52.5,30.27,South,169,2.0,4.0,90,0.00,,,0.00,VWS V14.01,2013-05-19 04:15:00,
2013-05-19 00:16:00,55.4,52.5,30.27,South,169,0.0,4.0,90,0.00,,,0.00,VWS V14.01,2013-05-19 04:16:00,
2013-05-19 00:17:00,55.4,52.5,30.27,South,169,0.0,4.0,90,0.00,,,0.00,VWS V14.01,2013-05-19 04:17:00,
2013-05-19 00:18:00,55.4,52.5,30.27,South,169,0.0,4.0,90,0.00,,,0.00,VWS V14.01,2013-05-19 04:18:00,
2013-05-19 00:19:00,55.4,52.5,30.27,South,169,0.0,4.0,90,0.00,,,0.00,VWS V14.01,2013-05-19 04:19:00,
2013-05-19 00:20:00,55.4,52.5,30.27,South,169,0.0,4.0,90,0.00,,,0.00,VWS V14.01,2013-05-19 04:20:00,
2013-05-19 00:21:00,55.4,52.5,30.27,South,169,0.0,0.0,90,0.00,,,0.00,VWS V14.01,2013-05-19 04:21:00,
2013-05-19 00:22:00,55.4,52.5,30.27,South,169,0.0,2.0,90,0.00,,,0.00,VWS V14.01,2013-05-19 04:22:00,
2013-05-19 00:23:00,55.4,52.5,30.27,South,169,0.0,2.0,90,0.00,,,0.00,VWS V14.01,2013-05-19 04:23:00,
2013-05-19 00:24:00,55.4,52.5,30.27,South,169,1.0,2.0,90,0.00,,,0.00,VWS V14.01,2013-05-19 04:24:00,
2013-05-19 00:25:00,55.4,52.5,30.27,South,169,0.0,2.0,90,0.00,,,0.00,VWS V14.01,2013-05-19 04:25:00,
2013-05-19 00:26:00,55.4,52.5,30.27,SSE,164,0.0,2.0,90,0.00,,,0.00,VWS V14.01,2013-05-19 04:26:00,
2013-05-19 00:27:00,55.4,52.5,30.27,SSE,164,2.0,2.0,90,0.00,,,0.00,VWS V14.01,2013-05-19 04:27:00,
2013-05-19 00:28:00,55.4,52.5,30.27,SSE,164,2.0,2.0,90,0.00,,,0.00,VWS V14.01,2013-05-19 04:28:00,
2013-05-19 00:29:00,55.4,52.5,30.27,SSE,154,9.0,9.0,90,0.00,,,0.00,VWS V14.01,2013-05-19 04:29:00,
2013-05-19 00:30:00,55.4,52.5,30.27,SE,130,0.0,9.0,90,0.00,,,0.00,VWS V14.01,2013-05-19 04:30:00,
2013-05-19 00:31:00,55.5,52.6,30.27,SSE,167,4.0,4.0,90,0.00,,,0.00,VWS V14.01,2013-05-19 04:31:00,
2013-05-19 00:32:00,55.4,52.5,30.27,SSE,167,0.0,4.0,90,0.00,,,0.00,VWS V14.01,2013-05-19 04:32:00,
2013-05-19 00:33:00,55.4,52.5,30.27,SSE,167,0.0,4.0,90,0.00,,,0.00,VWS V14.01,2013-05-19 04:33:00,
2013-05-19 00:34:00,55.5,52.6,30.27,SSE,167,0.0,4.0,90,0.00,,,0.00,VWS V14.01,2013-05-19 04:34:00,
2013-05-19 00:35:00,55.5,52.6,30.27,SSE,167,0.0,4.0,90,0.00,,,0.00,VWS V14.01,2013-05-19 04:35:00,
2013-05-19 00:36:00,55.5,52.6,30.27,SSE,167,0.0,4.0,90,0.00,,,0.00,VWS V14.01,2013-05-19 04:36:00,
2013-05-19 00:37:00,55.5,52.6,30.27,SSE,167,0.0,4.0,90,0.00,,,0.00,VWS V14.01,2013-05-19 04:37:00,
2013-05-19 00:38:00,55.5,52.9,30.27,SSE,167,0.0,4.0,91,0.00,,,0.00,VWS V14.01,2013-05-19 04:38:00,
2013-05-19 00:39:00,55.5,52.9,30.27,SE,132,2.0,6.0,91,0.00,,,0.00,VWS V14.01,2013-05-19 04:39:00,
2013-05-19 00:40:00,55.5,52.9,30.27,SE,132,2.0,6.0,91,0.00,,,0.00,VWS V14.01,2013-05-19 04:40:00,
2013-05-19 00:41:00,55.5,52.9,30.27,SE,134,0.0,1.0,91,0.00,,,0.00,VWS V14.01,2013-05-19 04:41:00,
2013-05-19 00:42:00,55.5,52.9,30.27,SE,134,0.0,1.0,91,0.00,,,0.00,VWS V14.01,2013-05-19 04:42:00,
2013-05-19 00:43:00,55.5,52.9,30.27,SE,134,0.0,1.0,91,0.00,,,0.00,VWS V14.01,2013-05-19 04:43:00,
2013-05-19 00:44:00,55.5,52.9,30.27,SE,134,0.0,1.0,91,0.00,,,0.00,VWS V14.01,2013-05-19 04:44:00,
2013-05-19 00:45:00,55.5,52.9,30.26,SE,134,0.0,1.0,91,0.00,,,0.00,VWS V14.01,2013-05-19 04:45:00,
2013-05-19 00:46:00,55.5,52.9,30.26,SE,134,0.0,1.0,91,0.00,,,0.00,VWS V14.01,2013-05-19 04:46:00,
2013-05-19 00:47:00,55.5,52.9,30.26,SE,134,0.0,1.0,91,0.00,,,0.00,VWS V14.01,2013-05-19 04:47:00,
2013-05-19 00:48:00,55.5,52.9,30.26,SE,134,0.0,1.0,91,0.00,,,0.00,VWS V14.01,2013-05-19 04:48:00,
2013-05-19 00:49:00,55.5,52.9,30.26,SE,134,1.0,1.0,91,0.00,,,0.00,VWS V14.01,2013-05-19 04:49:00,
2013-05-19 00:50:00,55.5,52.9,30.26,SE,134,0.0,1.0,91,0.00,,,0.00,VWS V14.01,2013-05-19 04:50:00,
2013-05-19 00:51:00,55.5,52.9,30.26,SE,134,0.0,0.0,91,0.00,,,0.00,VWS V14.01,2013-05-19 04:51:00,
2013-05-19 00:52:00,55.5,52.9,30.26,SE,134,0.0,1.0,91,0.00,,,0.00,VWS V14.01,2013-05-19 04:52:00,
2013-05-19 00:53:00,55.5,52.9,30.26,SE,134,0.0,3.0,91,0.00,,,0.00,VWS V14.01,2013-05-19 04:53:00,
2013-05-19 00:54:00,55.5,52.9,30.26,SE,134,0.0,3.0,91,0.00,,,0.00,VWS V14.01,2013-05-19 04:54:00,
2013-05-19 00:55:00,55.5,52.9,30.26,SE,134,0.0,3.0,91,0.00,,,0.00,VWS V14.01,2013-05-19 04:55:00,
2013-05-19 00:56:00,55.5,52.9,30.26,SE,127,4.0,5.0,91,0.00,,,0.00,VWS V14.01,2013-05-19 04:56:00,
2013-05-19 00:57:00,55.5,52.9,30.26,SE,128,0.0,5.0,91,0.00,,,0.00,VWS V14.01,2013-05-19 04:57:00,
2013-05-19 00:58:00,55.5,52.9,30.26,SE,128,0.0,5.0,91,0.00,,,0.00,VWS V14.01,2013-05-19 04:58:00,
2013-05-19 00:59:00,55.5,52.9,30.26,SE,128,1.0,5.0,91,0.00,,,0.00,VWS V14.01,2013-05-19 04:59:00,
2013-05-19 01:00:00,55.5,52.9,30.26,SE,128,1.0,5.0,91,0.00,,,0.00,VWS V14.01,2013-05-19 05:00:00,
2013-05-19 01:01:00,55.5,52.9,30.26,SE,131,2.0,2.0,91,0.00,,,0.00,VWS V14.01,2013-05-19 05:01:00,
2013-05-19 01:02:00,55.5,52.9,30.26,SE,131,0.0,2.0,91,0.00,,,0.00,VWS V14.01,2013-05-19 05:02:00,
2013-05-19 01:03:00,55.5,52.9,30.26,SE,131,0.0,2.0,91,0.00,,,0.00,VWS V14.01,2013-05-19 05:03:00,
2013-05-19 01:04:00,55.5,52.9,30.26,SE,131,0.0,2.0,91,0.00,,,0.00,VWS V14.01,2013-05-19 05:04:00,
2013-05-19 01:05:00,55.5,52.9,30.26,SE,131,0.0,2.0,91,0.00,,,0.00,VWS V14.01,2013-05-19 05:05:00,
2013-05-19 01:06:00,55.5,52.9,30.26,SE,131,0.0,2.0,91,0.00,,,0.00,VWS V14.01,2013-05-19 05:06:00,
2013-05-19 01:07:00,55.5,52.9,30.26,ESE,120,3.0,3.0,91,0.00,,,0.00,VWS V14.01,2013-05-19 05:07:00,
2013-05-19 01:08:00,55.5,52.9,30.26,ESE,120,1.0,3.0,91,0.00,,,0.00,VWS V14.01,2013-05-19 05:08:00,
2013-05-19 01:09:00,55.5,52.9,30.26,SE,126,0.0,7.0,91,0.00,,,0.00,VWS V14.01,2013-05-19 05:09:00,
2013-05-19 01:10:00,55.5,52.9,30.26,SE,130,0.0,7.0,91,0.00,,,0.00,VWS V14.01,2013-05-19 05:10:00,
2013-05-19 01:11:00,55.5,52.9,30.26,SE,130,0.0,0.0,91,0.00,,,0.00,VWS V14.01,2013-05-19 05:11:00,
2013-05-19 01:12:00,55.5,52.9,30.26,SE,130,0.0,0.0,91,0.00,,,0.00,VWS V14.01,2013-05-19 05:12:00,
2013-05-19 01:13:00,55.5,52.9,30.26,SE,130,2.0,2.0,91,0.00,,,0.00,VWS V14.01,2013-05-19 05:13:00,
2013-05-19 01:14:00,55.5,53.2,30.26,SSE,161,1.0,4.0,92,0.00,,,0.00,VWS V14.01,2013-05-19 05:14:00,
2013-05-19 01:15:00,55.5,53.2,30.25,SSE,161,1.0,4.0,92,0.00,,,0.00,VWS V14.01,2013-05-19 05:15:00,
2013-05-19 01:16:00,55.5,53.2,30.25,SSE,161,0.0,4.0,92,0.00,,,0.00,VWS V14.01,2013-05-19 05:16:00,
2013-05-19 01:17:00,55.4,53.1,30.25,SSE,161,2.0,4.0,92,0.00,,,0.00,VWS V14.01,2013-05-19 05:17:00,
2013-05-19 01:18:00,55.5,53.2,30.25,SSE,159,3.0,4.0,92,0.00,,,0.00,VWS V14.01,2013-05-19 05:18:00,
2013-05-19 01:19:00,55.4,53.1,30.25,SSE,155,0.0,4.0,92,0.00,,,0.00,VWS V14.01,2013-05-19 05:19:00,
2013-05-19 01:20:00,55.4,53.1,30.25,SSE,155,0.0,4.0,92,0.00,,,0.00,VWS V14.01,2013-05-19 05:20:00,
2013-05-19 01:21:00,55.4,53.1,30.25,SSE,157,5.0,5.0,92,0.00,,,0.00,VWS V14.01,2013-05-19 05:21:00,
2013-05-19 01:22:00,55.4,53.1,30.25,SSE,152,0.0,5.0,92,0.00,,,0.00,VWS V14.01,2013-05-19 05:22:00,
2013-05-19 01:23:00,55.4,53.1,30.25,SSE,152,0.0,5.0,92,0.00,,,0.00,VWS V14.01,2013-05-19 05:23:00,
2013-05-19 01:24:00,55.4,53.1,30.25,SSE,152,0.0,5.0,92,0.00,,,0.00,VWS V14.01,2013-05-19 05:24:00,
2013-05-19 01:25:00,55.4,53.1,30.25,SSE,152,0.0,5.0,92,0.00,,,0.00,VWS V14.01,2013-05-19 05:25:00,
2013-05-19 01:26:00,55.4,53.1,30.25,SSE,152,0.0,5.0,92,0.00,,,0.00,VWS V14.01,2013-05-19 05:26:00,
2013-05-19 01:27:00,55.4,53.1,30.25,SSE,152,0.0,5.0,92,0.00,,,0.00,VWS V14.01,2013-05-19 05:27:00,
2013-05-19 01:28:00,55.4,53.1,30.25,SSE,152,1.0,5.0,92,0.00,,,0.00,VWS V14.01,2013-05-19 05:28:00,
2013-05-19 01:29:00,55.4,53.1,30.25,SSE,153,0.0,5.0,92,0.00,,,0.00,VWS V14.01,2013-05-19 05:29:00,
2013-05-19 01:30:00,55.4,53.1,30.25,SSE,151,0.0,5.0,92,0.00,,,0.00,VWS V14.01,2013-05-19 05:30:00,
2013-05-19 01:31:00,55.4,53.1,30.25,SSE,151,0.0,0.0,92,0.00,,,0.00,VWS V14.01,2013-05-19 05:31:00,
2013-05-19 01:32:00,55.4,53.1,30.25,SE,139,5.0,5.0,92,0.00,,,0.00,VWS V14.01,2013-05-19 05:32:00,
2013-05-19 01:33:00,55.4,53.1,30.25,SE,139,0.0,5.0,92,0.00,,,0.00,VWS V14.01,2013-05-19 05:33:00,
2013-05-19 01:34:00,55.3,53.0,30.25,SE,139,0.0,5.0,92,0.00,,,0.00,VWS V14.01,2013-05-19 05:34:00,
2013-05-19 01:35:00,55.3,53.0,30.25,SE,139,0.0,5.0,92,0.00,,,0.00,VWS V14.01,2013-05-19 05:35:00,
2013-05-19 01:36:00,55.3,53.0,30.25,SE,139,0.0,5.0,92,0.00,,,0.00,VWS V14.01,2013-05-19 05:36:00,
2013-05-19 01:37:00,55.3,53.0,30.25,SE,139,0.0,5.0,92,0.00,,,0.00,VWS V14.01,2013-05-19 05:37:00,
2013-05-19 01:38:00,55.3,53.0,30.25,SE,139,0.0,5.0,92,0.00,,,0.00,VWS V14.01,2013-05-19 05:38:00,
2013-05-19 01:39:00,55.3,53.0,30.25,SSE,148,3.0,7.0,92,0.00,,,0.00,VWS V14.01,2013-05-19 05:39:00,
2013-05-19 01:40:00,55.3,53.0,30.25,SSE,148,0.0,7.0,92,0.00,,,0.00,VWS V14.01,2013-05-19 05:40:00,
2013-05-19 01:41:00,55.3,53.0,30.25,SSE,148,0.0,0.0,92,0.00,,,0.00,VWS V14.01,2013-05-19 05:41:00,
2013-05-19 01:42:00,55.3,53.0,30.25,SSE,148,0.0,4.0,92,0.00,,,0.00,VWS V14.01,2013-05-19 05:42:00,
2013-05-19 01:43:00,55.3,53.0,30.25,SSE,148,0.0,4.0,92,0.00,,,0.00,VWS V14.01,2013-05-19 05:43:00,
2013-05-19 01:44:00,55.3,53.0,30.25,SSE,148,0.0,4.0,92,0.00,,,0.00,VWS V14.01,2013-05-19 05:44:00,
2013-05-19 01:45:00,55.3,53.0,30.25,SSE,148,0.0,4.0,92,0.00,,,0.00,VWS V14.01,2013-05-19 05:45:00,
2013-05-19 01:46:00,55.3,53.0,30.25,SSE,148,2.0,4.0,92,0.00,,,0.00,VWS V14.01,2013-05-19 05:46:00,
2013-05-19 01:47:00,55.3,53.0,30.25,SSE,148,0.0,4.0,92,0.00,,,0.00,VWS V14.01,2013-05-19 05:47:00,
2013-05-19 01:48:00,55.3,53.0,30.25,SSE,148,0.0,4.0,92,0.00,,,0.00,VWS V14.01,2013-05-19 05:48:00,
2013-05-19 01:49:00,55.3,53.0,30.25,SSE,148,0.0,4.0,92,0.00,,,0.00,VWS V14.01,2013-05-19 05:49:00,
2013-05-19 01:50:00,55.3,53.0,30.25,SSE,148,1.0,4.0,92,0.00,,,0.00,VWS V14.01,2013-05-19 05:50:00,
2013-05-19 01:51:00,55.3,53.0,30.25,SSE,148,1.0,1.0,92,0.00,,,0.00,VWS V14.01,2013-05-19 05:51:00,
2013-05-19 01:52:00,55.3,53.0,30.25,SSE,148,1.0,3.0,92,0.00,,,0.00,VWS V14.01,2013-05-19 05:52:00,
2013-05-19 01:53:00,55.2,52.9,30.25,SSE,148,0.0,3.0,92,0.00,,,0.00,VWS V14.01,2013-05-19 05:53:00,
2013-05-19 01:54:00,55.3,53.3,30.25,SSE,148,3.0,4.0,93,0.00,,,0.00,VWS V14.01,2013-05-19 05:54:00,
2013-05-19 01:55:00,55.3,53.3,30.25,SE,128,1.0,4.0,93,0.00,,,0.00,VWS V14.01,2013-05-19 05:55:00,
2013-05-19 01:56:00,55.3,53.3,30.25,SE,130,0.0,4.0,93,0.00,,,0.00,VWS V14.01,2013-05-19 05:56:00,
2013-05-19 01:57:00,55.2,53.2,30.25,SE,130,0.0,4.0,93,0.00,,,0.00,VWS V14.01,2013-05-19 05:57:00,
2013-05-19 01:58:00,55.2,53.2,30.25,SSE,148,6.0,6.0,93,0.00,,,0.00,VWS V14.01,2013-05-19 05:58:00,
2013-05-19 01:59:00,55.2,53.2,30.25,SE,140,3.0,6.0,93,0.00,,,0.00,VWS V14.01,2013-05-19 05:59:00,
2013-05-19 02:00:00,55.2,53.2,30.24,SSE,149,2.0,6.0,93,0.00,,,0.00,VWS V14.01,2013-05-19 06:00:00,
2013-05-19 02:01:00,55.2,53.2,30.24,SSE,149,4.0,4.0,93,0.00,,,0.00,VWS V14.01,2013-05-19 06:01:00,
2013-05-19 02:02:00,55.2,53.2,30.24,SSE,149,0.0,4.0,93,0.00,,,0.00,VWS V14.01,2013-05-19 06:02:00,
2013-05-19 02:03:00,55.2,53.2,30.24,SSE,148,0.0,4.0,93,0.00,,,0.00,VWS V14.01,2013-05-19 06:03:00,
2013-05-19 02:04:00,55.2,53.2,30.24,SSE,148,0.0,4.0,93,0.00,,,0.00,VWS V14.01,2013-05-19 06:04:00,
2013-05-19 02:05:00,55.2,53.2,30.24,SSE,148,0.0,4.0,93,0.00,,,0.00,VWS V14.01,2013-05-19 06:05:00,
2013-05-19 02:06:00,55.2,53.2,30.24,SE,146,0.0,4.0,93,0.00,,,0.00,VWS V14.01,2013-05-19 06:06:00,
2013-05-19 02:07:00,55.2,53.2,30.24,SE,146,0.0,4.0,93,0.00,,,0.00,VWS V14.01,2013-05-19 06:07:00,
2013-05-19 02:08:00,55.2,53.2,30.24,SE,146,0.0,4.0,93,0.00,,,0.00,VWS V14.01,2013-05-19 06:08:00,
2013-05-19 02:09:00,55.2,53.2,30.24,SE,146,0.0,4.0,93,0.00,,,0.00,VWS V14.01,2013-05-19 06:09:00,
2013-05-19 02:10:00,55.2,53.2,30.24,SE,146,0.0,4.0,93,0.00,,,0.00,VWS V14.01,2013-05-19 06:10:00,
2013-05-19 02:11:00,55.2,53.2,30.24,SSE,150,4.0,4.0,93,0.00,,,0.00,VWS V14.01,2013-05-19 06:11:00,
2013-05-19 02:12:00,55.2,53.2,30.24,SSE,151,2.0,5.0,93,0.00,,,0.00,VWS V14.01,2013-05-19 06:12:00,
2013-05-19 02:13:00,55.2,53.2,30.24,SSE,152,0.0,5.0,93,0.00,,,0.00,VWS V14.01,2013-05-19 06:13:00,
2013-05-19 02:14:00,55.2,53.2,30.24,SSE,151,0.0,5.0,93,0.00,,,0.00,VWS V14.01,2013-05-19 06:14:00,
2013-05-19 02:15:00,55.2,53.2,30.24,SSE,152,0.0,5.0,93,0.00,,,0.00,VWS V14.01,2013-05-19 06:15:00,
2013-05-19 02:16:00,55.2,53.2,30.24,East,82,9.0,9.0,93,0.00,,,0.00,VWS V14.01,2013-05-19 06:16:00,
2013-05-19 02:17:00,55.2,53.2,30.24,East,88,1.0,9.0,93,0.00,,,0.00,VWS V14.01,2013-05-19 06:17:00,
2013-05-19 02:18:00,55.2,53.2,30.24,East,88,0.0,9.0,93,0.00,,,0.00,VWS V14.01,2013-05-19 06:18:00,
2013-05-19 02:19:00,55.2,53.2,30.24,SE,126,2.0,9.0,93,0.00,,,0.00,VWS V14.01,2013-05-19 06:19:00,
2013-05-19 02:20:00,55.2,53.2,30.24,SE,127,0.0,9.0,93,0.00,,,0.00,VWS V14.01,2013-05-19 06:20:00,
2013-05-19 02:21:00,55.2,53.2,30.24,SE,127,0.0,2.0,93,0.00,,,0.00,VWS V14.01,2013-05-19 06:21:00,
2013-05-19 02:22:00,55.2,53.2,30.24,SE,126,0.0,2.0,93,0.00,,,0.00,VWS V14.01,2013-05-19 06:22:00,
2013-05-19 02:23:00,55.2,53.2,30.24,SE,140,0.0,5.0,93,0.00,,,0.00,VWS V14.01,2013-05-19 06:23:00,
2013-05-19 02:24:00,55.2,53.2,30.24,SSE,148,4.0,6.0,93,0.00,,,0.00,VWS V14.01,2013-05-19 06:24:00,
2013-05-19 02:25:00,55.2,53.2,30.24,SE,138,0.0,6.0,93,0.00,,,0.00,VWS V14.01,2013-05-19 06:25:00,
2013-05-19 02:26:00,55.2,53.2,30.24,SE,138,0.0,6.0,93,0.00,,,0.00,VWS V14.01,2013-05-19 06:26:00,
2013-05-19 02:27:00,55.2,53.2,30.24,South,176,3.0,6.0,93,0.00,,,0.00,VWS V14.01,2013-05-19 06:27:00,
2013-05-19 02:28:00,55.2,53.2,30.24,SE,142,5.0,10.0,93,0.00,,,0.00,VWS V14.01,2013-05-19 06:28:00,
2013-05-19 02:29:00,55.2,53.2,30.24,SE,143,3.0,10.0,93,0.00,,,0.00,VWS V14.01,2013-05-19 06:29:00,
2013-05-19 02:30:00,55.2,53.2,30.24,SE,143,0.0,10.0,93,0.00,,,0.00,VWS V14.01,2013-05-19 06:30:00,
2013-05-19 02:31:00,55.2,53.2,30.24,SE,139,0.0,0.0,93,0.00,,,0.00,VWS V14.01,2013-05-19 06:31:00,
2013-05-19 02:32:00,55.2,53.2,30.24,SE,139,2.0,2.0,93,0.00,,,0.00,VWS V14.01,2013-05-19 06:32:00,
2013-05-19 02:33:00,55.2,53.2,30.24,SE,139,2.0,2.0,93,0.00,,,0.00,VWS V14.01,2013-05-19 06:33:00,
2013-05-19 02:34:00,55.2,53.2,30.24,SE,139,0.0,2.0,93,0.00,,,0.00,VWS V14.01,2013-05-19 06:34:00,
2013-05-19 02:35:00,55.2,53.2,30.24,SE,139,0.0,2.0,93,0.00,,,0.00,VWS V14.01,2013-05-19 06:35:00,
2013-05-19 02:36:00,55.2,53.2,30.24,SE,140,1.0,2.0,93,0.00,,,0.00,VWS V14.01,2013-05-19 06:36:00,
2013-05-19 02:37:00,55.2,53.2,30.24,SE,144,3.0,3.0,93,0.00,,,0.00,VWS V14.01,2013-05-19 06:37:00,
2013-05-19 02:38:00,55.2,53.2,30.24,SE,144,0.0,3.0,93,0.00,,,0.00,VWS V14.01,2013-05-19 06:38:00,
2013-05-19 02:39:00,55.2,53.2,30.24,SE,144,0.0,3.0,93,0.00,,,0.00,VWS V14.01,2013-05-19 06:39:00,
2013-05-19 02:40:00,55.2,53.2,30.24,SE,144,0.0,3.0,93,0.01,,,0.01,VWS V14.01,2013-05-19 06:40:00,
2013-05-19 02:41:00,55.2,53.2,30.24,SE,144,1.0,4.0,93,0.01,,,0.01,VWS V14.01,2013-05-19 06:41:00,
2013-05-19 02:42:00,55.2,53.2,30.24,SE,144,0.0,4.0,93,0.01,,,0.01,VWS V14.01,2013-05-19 06:42:00,
2013-05-19 02:43:00,55.2,53.2,30.24,SE,144,0.0,4.0,93,0.01,,,0.01,VWS V14.01,2013-05-19 06:43:00,
2013-05-19 02:44:00,55.2,53.2,30.24,SE,144,0.0,4.0,93,0.01,,,0.01,VWS V14.01,2013-05-19 06:44:00,
2013-05-19 02:45:00,55.2,53.2,30.24,SE,144,0.0,4.0,93,0.01,,,0.01,VWS V14.01,2013-05-19 06:45:00,
2013-05-19 02:46:00,55.2,53.2,30.24,SSE,153,1.0,4.0,93,0.01,,,0.01,VWS V14.01,2013-05-19 06:46:00,
2013-05-19 02:47:00,55.2,53.2,30.24,SSE,152,1.0,4.0,93,0.01,,,0.01,VWS V14.01,2013-05-19 06:47:00,
2013-05-19 02:48:00,55.2,53.2,30.24,SSE,152,0.0,4.0,93,0.01,,,0.01,VWS V14.01,2013-05-19 06:48:00,
2013-05-19 02:49:00,55.2,53.2,30.24,SSE,152,3.0,4.0,93,0.01,,,0.01,VWS V14.01,2013-05-19 06:49:00,
2013-05-19 02:50:00,55.2,53.2,30.24,SSE,154,3.0,4.0,93,0.01,,,0.01,VWS V14.01,2013-05-19 06:50:00,
2013-05-19 02:51:00,55.2,53.2,30.24,SSE,154,0.0,2.0,93,0.01,,,0.01,VWS V14.01,2013-05-19 06:51:00,
2013-05-19 02:52:00,55.2,53.2,30.24,SSE,154,0.0,2.0,93,0.01,,,0.01,VWS V14.01,2013-05-19 06:52:00,
2013-05-19 02:53:00,55.2,53.5,30.24,ESE,110,1.0,5.0,94,0.01,,,0.01,VWS V14.01,2013-05-19 06:53:00,
2013-05-19 02:54:00,55.2,53.5,30.24,ESE,110,1.0,5.0,94,0.01,,,0.01,VWS V14.01,2013-05-19 06:54:00,
2013-05-19 02:55:00,55.2,53.5,30.24,ESE,115,1.0,5.0,94,0.01,,,0.01,VWS V14.01,2013-05-19 06:55:00,
2013-05-19 02:56:00,55.2,53.5,30.24,SE,128,1.0,5.0,94,0.01,,,0.01,VWS V14.01,2013-05-19 06:56:00,
2013-05-19 02:57:00,55.2,53.5,30.24,SE,128,0.0,5.0,94,0.01,,,0.01,VWS V14.01,2013-05-19 06:57:00,
2013-05-19 02:58:00,55.2,53.5,30.24,SE,128,0.0,5.0,94,0.01,,,0.01,VWS V14.01,2013-05-19 06:58:00,
2013-05-19 02:59:00,55.2,53.5,30.24,SE,128,0.0,5.0,94,0.01,,,0.01,VWS V14.01,2013-05-19 06:59:00,
2013-05-19 03:00:00,55.2,53.5,30.24,SE,128,0.0,5.0,94,0.01,,,0.01,VWS V14.01,2013-05-19 07:00:00,
2013-05-19 03:01:00,55.2,53.5,30.24,SE,128,0.0,0.0,94,0.01,,,0.01,VWS V14.01,2013-05-19 07:01:00,
2013-05-19 03:02:00,55.2,53.5,30.24,SE,128,0.0,0.0,94,0.01,,,0.01,VWS V14.01,2013-05-19 07:02:00,
2013-05-19 03:03:00,55.2,53.5,30.24,SE,128,0.0,0.0,94,0.01,,,0.01,VWS V14.01,2013-05-19 07:03:00,
2013-05-19 03:04:00,55.2,53.5,30.24,SE,128,2.0,4.0,94,0.01,,,0.01,VWS V14.01,2013-05-19 07:04:00,
2013-05-19 03:05:00,55.2,53.5,30.24,SE,129,0.0,5.0,94,0.01,,,0.01,VWS V14.01,2013-05-19 07:05:00,
2013-05-19 03:06:00,55.2,53.5,30.24,SE,129,0.0,5.0,94,0.01,,,0.01,VWS V14.01,2013-05-19 07:06:00,
2013-05-19 03:07:00,55.2,53.5,30.24,SE,129,3.0,5.0,94,0.01,,,0.01,VWS V14.01,2013-05-19 07:07:00,
2013-05-19 03:08:00,55.2,53.5,30.24,East,101,0.0,7.0,94,0.01,,,0.01,VWS V14.01,2013-05-19 07:08:00,
2013-05-19 03:09:00,55.2,53.5,30.24,ESE,102,0.0,7.0,94,0.01,,,0.01,VWS V14.01,2013-05-19 07:09:00,
2013-05-19 03:10:00,55.2,53.5,30.24,SSE,167,0.0,7.0,94,0.01,,,0.01,VWS V14.01,2013-05-19 07:10:00,
2013-05-19 03:11:00,55.2,53.5,30.24,SE,131,4.0,5.0,94,0.02,,,0.02,VWS V14.01,2013-05-19 07:11:00,
2013-05-19 03:12:00,55.2,53.5,30.24,SE,131,0.0,5.0,94,0.02,,,0.02,VWS V14.01,2013-05-19 07:12:00,
2013-05-19 03:13:00,55.2,53.5,30.24,SE,131,2.0,5.0,94,0.02,,,0.02,VWS V14.01,2013-05-19 07:13:00,
2013-05-19 03:14:00,55.2,53.5,30.24,SE,130,2.0,5.0,94,0.02,,,0.02,VWS V14.01,2013-05-19 07:14:00,
2013-05-19 03:15:00,55.2,53.5,30.24,SE,142,1.0,5.0,94,0.02,,,0.02,VWS V14.01,2013-05-19 07:15:00,
2013-05-19 03:16:00,55.2,53.5,30.24,SE,140,2.0,5.0,94,0.02,,,0.02,VWS V14.01,2013-05-19 07:16:00,
2013-05-19 03:17:00,55.2,53.5,30.24,SE,140,2.0,5.0,94,0.02,,,0.02,VWS V14.01,2013-05-19 07:17:00,
2013-05-19 03:18:00,55.2,53.5,30.24,SE,139,3.0,7.0,94,0.02,,,0.02,VWS V14.01,2013-05-19 07:18:00,
2013-05-19 03:19:00,55.2,53.5,30.24,SE,141,0.0,7.0,94,0.02,,,0.02,VWS V14.01,2013-05-19 07:19:00,
2013-05-19 03:20:00,55.2,53.5,30.24,SE,142,1.0,7.0,94,0.02,,,0.02,VWS V14.01,2013-05-19 07:20:00,
2013-05-19 03:21:00,55.2,53.5,30.24,SE,142,0.0,4.0,94,0.02,,,0.02,VWS V14.01,2013-05-19 07:21:00,
2013-05-19 03:22:00,55.2,53.5,30.24,SE,142,1.0,4.0,94,0.02,,,0.02,VWS V14.01,2013-05-19 07:22:00,
2013-05-19 03:23:00,55.2,53.5,30.24,SE,144,4.0,4.0,94,0.02,,,0.02,VWS V14.01,2013-05-19 07:23:00,
2013-05-19 03:24:00,55.2,53.5,30.24,SE,137,5.0,7.0,94,0.02,,,0.02,VWS V14.01,2013-05-19 07:24:00,
2013-05-19 03:25:00,55.2,53.5,30.24,SSE,155,2.0,7.0,94,0.02,,,0.02,VWS V14.01,2013-05-19 07:25:00,
2013-05-19 03:26:00,55.2,53.5,30.24,SSE,155,0.0,7.0,94,0.02,,,0.02,VWS V14.01,2013-05-19 07:26:00,
2013-05-19 03:27:00,55.2,53.5,30.24,SSE,155,1.0,7.0,94,0.02,,,0.02,VWS V14.01,2013-05-19 07:27:00,
2013-05-19 03:28:00,55.2,53.5,30.24,SSE,155,0.0,7.0,94,0.02,,,0.02,VWS V14.01,2013-05-19 07:28:00,
2013-05-19 03:29:00,55.2,53.5,30.24,SSE,155,0.0,7.0,94,0.02,,,0.02,VWS V14.01,2013-05-19 07:29:00,
2013-05-19 03:30:00,55.2,53.5,30.24,SSE,155,0.0,7.0,94,0.02,,,0.02,VWS V14.01,2013-05-19 07:30:00,
2013-05-19 03:31:00,55.2,53.5,30.24,SSE,155,0.0,0.0,94,0.02,,,0.02,VWS V14.01,2013-05-19 07:31:00,
2013-05-19 03:32:00,55.2,53.5,30.24,SE,143,7.0,8.0,94,0.02,,,0.02,VWS V14.01,2013-05-19 07:32:00,
2013-05-19 03:33:00,55.2,53.5,30.24,SE,140,4.0,8.0,94,0.02,,,0.02,VWS V14.01,2013-05-19 07:33:00,
2013-05-19 03:34:00,55.2,53.5,30.24,SE,140,0.0,8.0,94,0.02,,,0.02,VWS V14.01,2013-05-19 07:34:00,
2013-05-19 03:35:00,55.2,53.5,30.24,SE,140,2.0,8.0,94,0.02,,,0.02,VWS V14.01,2013-05-19 07:35:00,
2013-05-19 03:36:00,55.2,53.5,30.24,SE,140,1.0,8.0,94,0.02,,,0.02,VWS V14.01,2013-05-19 07:36:00,
2013-05-19 03:37:00,55.2,53.5,30.24,SE,140,0.0,8.0,94,0.02,,,0.02,VWS V14.01,2013-05-19 07:37:00,
2013-05-19 03:38:00,55.2,53.5,30.24,SE,140,0.0,8.0,94,0.02,,,0.02,VWS V14.01,2013-05-19 07:38:00,
2013-05-19 03:39:00,55.2,53.5,30.24,SE,140,3.0,8.0,94,0.02,,,0.02,VWS V14.01,2013-05-19 07:39:00,
2013-05-19 03:40:00,55.2,53.5,30.24,SE,140,0.0,8.0,94,0.02,,,0.02,VWS V14.01,2013-05-19 07:40:00,
2013-05-19 03:41:00,55.2,53.5,30.24,SE,140,0.0,0.0,94,0.01,,,0.02,VWS V14.01,2013-05-19 07:41:00,
2013-05-19 03:42:00,55.2,53.5,30.24,SE,140,0.0,4.0,94,0.01,,,0.02,VWS V14.01,2013-05-19 07:42:00,
2013-05-19 03:43:00,55.2,53.5,30.24,SE,140,0.0,4.0,94,0.01,,,0.02,VWS V14.01,2013-05-19 07:43:00,
2013-05-19 03:44:00,55.2,53.5,30.24,SSE,153,4.0,4.0,94,0.01,,,0.02,VWS V14.01,2013-05-19 07:44:00,
2013-05-19 03:45:00,55.2,53.5,30.24,SE,145,3.0,8.0,94,0.01,,,0.02,VWS V14.01,2013-05-19 07:45:00,
2013-05-19 03:46:00,55.2,53.5,30.24,SE,142,0.0,8.0,94,0.02,,,0.03,VWS V14.01,2013-05-19 07:46:00,
2013-05-19 03:47:00,55.2,53.5,30.24,SE,142,0.0,8.0,94,0.02,,,0.03,VWS V14.01,2013-05-19 07:47:00,
2013-05-19 03:48:00,55.1,53.4,30.24,SE,142,0.0,8.0,94,0.02,,,0.03,VWS V14.01,2013-05-19 07:48:00,
2013-05-19 03:49:00,55.2,53.5,30.24,SE,142,1.0,8.0,94,0.02,,,0.03,VWS V14.01,2013-05-19 07:49:00,
2013-05-19 03:50:00,55.2,53.5,30.24,SE,142,0.0,8.0,94,0.02,,,0.03,VWS V14.01,2013-05-19 07:50:00,
2013-05-19 03:51:00,55.2,53.5,30.24,SE,142,0.0,0.0,94,0.02,,,0.03,VWS V14.01,2013-05-19 07:51:00,
2013-05-19 03:52:00,55.2,53.5,30.24,SE,142,2.0,2.0,94,0.02,,,0.03,VWS V14.01,2013-05-19 07:52:00,
2013-05-19 03:53:00,55.2,53.5,30.24,SE,138,3.0,6.0,94,0.02,,,0.03,VWS V14.01,2013-05-19 07:53:00,
2013-05-19 03:54:00,55.2,53.5,30.24,SSE,152,0.0,6.0,94,0.02,,,0.03,VWS V14.01,2013-05-19 07:54:00,
2013-05-19 03:55:00,55.2,53.5,30.24,SSE,151,0.0,6.0,94,0.02,,,0.03,VWS V14.01,2013-05-19 07:55:00,
2013-05-19 03:56:00,55.2,53.5,30.24,SSE,151,0.0,6.0,94,0.02,,,0.03,VWS V14.01,2013-05-19 07:56:00,
2013-05-19 03:57:00,55.2,53.5,30.24,SSE,151,0.0,6.0,94,0.02,,,0.03,VWS V14.01,2013-05-19 07:57:00,
2013-05-19 03:58:00,55.2,53.5,30.24,SSE,152,5.0,6.0,94,0.02,,,0.03,VWS V14.01,2013-05-19 07:58:00,
2013-05-19 03:59:00,55.2,53.5,30.24,SSE,151,1.0,6.0,94,0.02,,,0.03,VWS V14.01,2013-05-19 07:59:00,
2013-05-19 04:00:00,55.2,53.5,30.24,SSE,151,1.0,6.0,94,0.02,,,0.03,VWS V14.01,2013-05-19 08:00:00,
2013-05-19 04:01:00,55.2,53.5,30.24,SSE,151,2.0,2.0,94,0.02,,,0.03,VWS V14.01,2013-05-19 08:01:00,
2013-05-19 04:02:00,55.2,53.5,30.24,SSE,151,0.0,3.0,94,0.02,,,0.03,VWS V14.01,2013-05-19 08:02:00,
2013-05-19 04:03:00,55.2,53.5,30.24,SSE,151,1.0,3.0,94,0.02,,,0.03,VWS V14.01,2013-05-19 08:03:00,
2013-05-19 04:04:00,55.2,53.5,30.24,SSE,151,0.0,3.0,94,0.02,,,0.03,VWS V14.01,2013-05-19 08:04:00,
2013-05-19 04:05:00,55.2,53.5,30.24,SSE,151,3.0,3.0,94,0.02,,,0.03,VWS V14.01,2013-05-19 08:05:00,
2013-05-19 04:06:00,55.2,53.5,30.24,SSE,151,0.0,3.0,94,0.02,,,0.03,VWS V14.01,2013-05-19 08:06:00,
2013-05-19 04:07:00,55.2,53.5,30.24,SSE,151,1.0,3.0,94,0.02,,,0.03,VWS V14.01,2013-05-19 08:07:00,
2013-05-19 04:08:00,55.2,53.5,30.24,SSE,152,4.0,4.0,94,0.02,,,0.03,VWS V14.01,2013-05-19 08:08:00,
2013-05-19 04:09:00,55.2,53.5,30.24,SSE,152,3.0,5.0,94,0.02,,,0.03,VWS V14.01,2013-05-19 08:09:00,
2013-05-19 04:10:00,55.2,53.5,30.24,SE,128,5.0,9.0,94,0.02,,,0.03,VWS V14.01,2013-05-19 08:10:00,
2013-05-19 04:11:00,55.2,53.5,30.24,SE,136,0.0,5.0,94,0.02,,,0.03,VWS V14.01,2013-05-19 08:11:00,
2013-05-19 04:12:00,55.2,53.5,30.24,SE,136,0.0,5.0,94,0.02,,,0.03,VWS V14.01,2013-05-19 08:12:00,
2013-05-19 04:13:00,55.2,53.5,30.24,SE,136,0.0,5.0,94,0.02,,,0.03,VWS V14.01,2013-05-19 08:13:00,
2013-05-19 04:14:00,55.2,53.5,30.24,SE,136,0.0,5.0,94,0.02,,,0.03,VWS V14.01,2013-05-19 08:14:00,
2013-05-19 04:15:00,55.1,53.4,30.24,SE,136,0.0,5.0,94,0.02,,,0.03,VWS V14.01,2013-05-19 08:15:00,
2013-05-19 04:16:00,55.2,53.5,30.24,SE,136,0.0,5.0,94,0.02,,,0.03,VWS V14.01,2013-05-19 08:16:00,
2013-05-19 04:17:00,55.2,53.5,30.24,SE,133,6.0,6.0,94,0.02,,,0.03,VWS V14.01,2013-05-19 08:17:00,
2013-05-19 04:18:00,55.2,53.5,30.24,SSE,149,2.0,8.0,94,0.02,,,0.03,VWS V14.01,2013-05-19 08:18:00,
2013-05-19 04:19:00,55.2,53.5,30.24,SSE,149,2.0,8.0,94,0.02,,,0.03,VWS V14.01,2013-05-19 08:19:00,
2013-05-19 04:20:00,55.2,53.5,30.24,SSE,154,3.0,8.0,94,0.02,,,0.03,VWS V14.01,2013-05-19 08:20:00,
2013-05-19 04:21:00,55.1,53.4,30.24,SSE,151,0.0,2.0,94,0.01,,,0.03,VWS V14.01,2013-05-19 08:21:00,
2013-05-19 04:22:00,55.2,53.5,30.24,SSE,151,0.0,2.0,94,0.01,,,0.03,VWS V14.01,2013-05-19 08:22:00,
2013-05-19 04:23:00,55.1,53.4,30.24,SSE,151,0.0,2.0,94,0.01,,,0.03,VWS V14.01,2013-05-19 08:23:00,
2013-05-19 04:24:00,55.2,53.5,30.24,SSE,151,2.0,4.0,94,0.01,,,0.03,VWS V14.01,2013-05-19 08:24:00,
2013-05-19 04:25:00,55.1,53.4,30.24,SSE,151,0.0,4.0,94,0.01,,,0.03,VWS V14.01,2013-05-19 08:25:00,
2013-05-19 04:26:00,55.1,53.4,30.24,SSE,151,2.0,4.0,94,0.01,,,0.03,VWS V14.01,2013-05-19 08:26:00,
2013-05-19 04:27:00,55.1,53.4,30.24,SE,142,4.0,4.0,94,0.01,,,0.03,VWS V14.01,2013-05-19 08:27:00,
2013-05-19 04:28:00,55.1,53.4,30.24,SE,141,3.0,6.0,94,0.01,,,0.03,VWS V14.01,2013-05-19 08:28:00,
2013-05-19 04:29:00,55.1,53.4,30.24,SSE,150,6.0,6.0,94,0.01,,,0.03,VWS V14.01,2013-05-19 08:29:00,
2013-05-19 04:30:00,55.1,53.4,30.23,SSE,149,3.0,6.0,94,0.01,,,0.03,VWS V14.01,2013-05-19 08:30:00,
2013-05-19 04:31:00,55.1,53.4,30.23,SE,139,4.0,9.0,94,0.01,,,0.03,VWS V14.01,2013-05-19 08:31:00,
2013-05-19 04:32:00,55.1,53.4,30.23,SE,142,3.0,9.0,94,0.01,,,0.03,VWS V14.01,2013-05-19 08:32:00,
2013-05-19 04:33:00,55.1,53.4,30.23,SSE,148,3.0,9.0,94,0.01,,,0.03,VWS V14.01,2013-05-19 08:33:00,
2013-05-19 04:34:00,55.1,53.4,30.23,SE,136,2.0,9.0,94,0.01,,,0.03,VWS V14.01,2013-05-19 08:34:00,
2013-05-19 04:35:00,55.1,53.4,30.23,SE,134,8.0,9.0,94,0.01,,,0.03,VWS V14.01,2013-05-19 08:35:00,
2013-05-19 04:36:00,55.1,53.4,30.23,SE,138,3.0,9.0,94,0.01,,,0.03,VWS V14.01,2013-05-19 08:36:00,
2013-05-19 04:37:00,55.0,53.3,30.23,SE,138,1.0,9.0,94,0.01,,,0.03,VWS V14.01,2013-05-19 08:37:00,
2013-05-19 04:38:00,55.0,53.6,30.23,SE,139,3.0,9.0,95,0.01,,,0.03,VWS V14.01,2013-05-19 08:38:00,
2013-05-19 04:39:00,55.1,53.7,30.23,SE,144,3.0,9.0,95,0.01,,,0.03,VWS V14.01,2013-05-19 08:39:00,
2013-05-19 04:40:00,55.1,53.7,30.23,SSE,147,3.0,9.0,95,0.01,,,0.03,VWS V14.01,2013-05-19 08:40:00,
2013-05-19 04:41:00,55.1,53.7,30.23,SSE,153,2.0,6.0,95,0.01,,,0.03,VWS V14.01,2013-05-19 08:41:00,
2013-05-19 04:42:00,55.0,53.6,30.23,SSE,153,0.0,6.0,95,0.01,,,0.03,VWS V14.01,2013-05-19 08:42:00,
2013-05-19 04:43:00,55.0,53.6,30.23,SSE,148,2.0,8.0,95,0.01,,,0.03,VWS V14.01,2013-05-19 08:43:00,
2013-05-19 04:44:00,55.0,53.6,30.23,SE,140,4.0,8.0,95,0.01,,,0.03,VWS V14.01,2013-05-19 08:44:00,
2013-05-19 04:45:00,55.0,53.6,30.24,SE,143,3.0,8.0,95,0.01,,,0.03,VWS V14.01,2013-05-19 08:45:00,
2013-05-19 04:46:00,55.0,53.6,30.24,SE,144,0.0,8.0,95,0.01,,,0.03,VWS V14.01,2013-05-19 08:46:00,
2013-05-19 04:47:00,55.0,53.6,30.24,SE,144,1.0,8.0,95,0.01,,,0.03,VWS V14.01,2013-05-19 08:47:00,
2013-05-19 04:48:00,55.0,53.6,30.24,SE,144,0.0,8.0,95,0.01,,,0.03,VWS V14.01,2013-05-19 08:48:00,
2013-05-19 04:49:00,55.0,53.6,30.24,SE,144,0.0,8.0,95,0.01,,,0.03,VWS V14.01,2013-05-19 08:49:00,
2013-05-19 04:50:00,55.0,53.6,30.24,SE,144,0.0,8.0,95,0.01,,,0.03,VWS V14.01,2013-05-19 08:50:00,
2013-05-19 04:51:00,55.0,53.6,30.24,SE,144,0.0,2.0,95,0.00,,,0.03,VWS V14.01,2013-05-19 08:51:00,
2013-05-19 04:52:00,55.0,53.6,30.24,SE,144,0.0,2.0,95,0.00,,,0.03,VWS V14.01,2013-05-19 08:52:00,
2013-05-19 04:53:00,55.0,53.6,30.24,ESE,109,0.0,5.0,95,0.00,,,0.03,VWS V14.01,2013-05-19 08:53:00,
2013-05-19 04:54:00,55.0,53.6,30.24,ESE,109,2.0,5.0,95,0.00,,,0.03,VWS V14.01,2013-05-19 08:54:00,
2013-05-19 04:55:00,55.0,53.6,30.24,ESE,115,0.0,5.0,95,0.00,,,0.03,VWS V14.01,2013-05-19 08:55:00,
2013-05-19 04:56:00,55.0,53.6,30.24,ESE,115,0.0,5.0,95,0.00,,,0.03,VWS V14.01,2013-05-19 08:56:00,
2013-05-19 04:57:00,55.0,53.6,30.24,ESE,117,1.0,5.0,95,0.00,,,0.03,VWS V14.01,2013-05-19 08:57:00,
2013-05-19 04:58:00,55.0,53.6,30.24,ESE,117,0.0,5.0,95,0.00,,,0.03,VWS V14.01,2013-05-19 08:58:00,
2013-05-19 04:59:00,55.0,53.6,30.24,ESE,117,2.0,5.0,95,0.00,,,0.03,VWS V14.01,2013-05-19 08:59:00,
2013-05-19 05:00:00,55.0,53.6,30.24,SSE,157,2.0,8.0,95,0.00,,,0.03,VWS V14.01,2013-05-19 09:00:00,
2013-05-19 05:01:00,55.0,53.6,30.24,SE,133,1.0,7.0,95,0.00,,,0.03,VWS V14.01,2013-05-19 09:01:00,
2013-05-19 05:02:00,54.9,53.5,30.24,SW,233,1.0,7.0,95,0.00,,,0.03,VWS V14.01,2013-05-19 09:02:00,
2013-05-19 05:03:00,54.9,53.5,30.24,SW,233,0.0,7.0,95,0.00,,,0.03,VWS V14.01,2013-05-19 09:03:00,
2013-05-19 05:04:00,54.9,53.5,30.24,SW,233,0.0,7.0,95,0.00,,,0.03,VWS V14.01,2013-05-19 09:04:00,
2013-05-19 05:05:00,54.9,53.5,30.24,SW,223,0.0,7.0,95,0.00,,,0.03,VWS V14.01,2013-05-19 09:05:00,
2013-05-19 05:06:00,54.9,53.5,30.24,SSW,204,3.0,7.0,95,0.00,,,0.03,VWS V14.01,2013-05-19 09:06:00,
2013-05-19 05:07:00,54.9,53.5,30.24,SSE,165,0.0,7.0,95,0.00,,,0.03,VWS V14.01,2013-05-19 09:07:00,
2013-05-19 05:08:00,54.9,53.5,30.24,SSE,157,3.0,7.0,95,0.00,,,0.03,VWS V14.01,2013-05-19 09:08:00,
2013-05-19 05:09:00,54.9,53.2,30.24,SSE,157,0.0,7.0,94,0.00,,,0.03,VWS V14.01,2013-05-19 09:09:00,
2013-05-19 05:10:00,54.9,53.2,30.24,SSE,157,1.0,7.0,94,0.00,,,0.03,VWS V14.01,2013-05-19 09:10:00,
2013-05-19 05:11:00,54.9,53.2,30.24,SSE,153,5.0,5.0,94,0.00,,,0.03,VWS V14.01,2013-05-19 09:11:00,
2013-05-19 05:12:00,54.9,53.5,30.24,SE,142,3.0,6.0,95,0.00,,,0.03,VWS V14.01,2013-05-19 09:12:00,
2013-05-19 05:13:00,54.8,53.4,30.24,SE,135,2.0,6.0,95,0.00,,,0.03,VWS V14.01,2013-05-19 09:13:00,
2013-05-19 05:14:00,54.8,53.1,30.24,SE,135,0.0,6.0,94,0.00,,,0.03,VWS V14.01,2013-05-19 09:14:00,
2013-05-19 05:15:00,54.8,53.4,30.24,SE,141,1.0,6.0,95,0.00,,,0.03,VWS V14.01,2013-05-19 09:15:00,
2013-05-19 05:16:00,54.8,53.4,30.24,SE,141,3.0,6.0,95,0.00,,,0.03,VWS V14.01,2013-05-19 09:16:00,
2013-05-19 05:17:00,54.8,53.4,30.24,SE,141,0.0,6.0,95,0.00,,,0.03,VWS V14.01,2013-05-19 09:17:00,
2013-05-19 05:18:00,54.8,53.4,30.24,SE,144,1.0,6.0,95,0.01,,,0.04,VWS V14.01,2013-05-19 09:18:00,
2013-05-19 05:19:00,54.8,53.4,30.24,SE,144,0.0,6.0,95,0.01,,,0.04,VWS V14.01,2013-05-19 09:19:00,
2013-05-19 05:20:00,54.8,53.4,30.24,SE,144,2.0,6.0,95,0.01,,,0.04,VWS V14.01,2013-05-19 09:20:00,
2013-05-19 05:21:00,54.8,53.4,30.24,SSE,147,1.0,4.0,95,0.01,,,0.04,VWS V14.01,2013-05-19 09:21:00,
2013-05-19 05:22:00,54.8,53.4,30.24,ESE,123,4.0,6.0,95,0.01,,,0.04,VWS V14.01,2013-05-19 09:22:00,
2013-05-19 05:23:00,54.7,53.3,30.24,SE,140,6.0,6.0,95,0.01,,,0.04,VWS V14.01,2013-05-19 09:23:00,
2013-05-19 05:24:00,54.7,53.3,30.24,SE,144,4.0,6.0,95,0.01,,,0.04,VWS V14.01,2013-05-19 09:24:00,
2013-05-19 05:25:00,54.7,53.3,30.24,SE,144,9.0,9.0,95,0.01,,,0.04,VWS V14.01,2013-05-19 09:25:00,
2013-05-19 05:26:00,54.7,53.3,30.24,SE,146,0.0,9.0,95,0.01,,,0.04,VWS V14.01,2013-05-19 09:26:00,
2013-05-19 05:27:00,54.6,53.2,30.24,SE,146,1.0,9.0,95,0.01,,,0.04,VWS V14.01,2013-05-19 09:27:00,
2013-05-19 05:28:00,54.6,53.2,30.24,SE,146,1.0,9.0,95,0.01,,,0.04,VWS V14.01,2013-05-19 09:28:00,
2013-05-19 05:29:00,54.6,53.2,30.24,SSE,149,5.0,9.0,95,0.01,,,0.04,VWS V14.01,2013-05-19 09:29:00,
2013-05-19 05:30:00,54.6,53.2,30.25,SE,133,1.0,9.0,95,0.01,,,0.04,VWS V14.01,2013-05-19 09:30:00,
2013-05-19 05:31:00,54.6,53.2,30.25,SE,133,1.0,4.0,95,0.01,,,0.04,VWS V14.01,2013-05-19 09:31:00,
2013-05-19 05:32:00,54.6,53.2,30.25,SSE,160,4.0,8.0,95,0.01,,,0.04,VWS V14.01,2013-05-19 09:32:00,
2013-05-19 05:33:00,54.5,53.1,30.25,SSE,155,3.0,10.0,95,0.01,,,0.04,VWS V14.01,2013-05-19 09:33:00,
2013-05-19 05:34:00,54.5,53.1,30.25,SE,142,5.0,10.0,95,0.01,,,0.04,VWS V14.01,2013-05-19 09:34:00,
2013-05-19 05:35:00,54.5,53.1,30.25,SE,142,1.0,10.0,95,0.01,,,0.04,VWS V14.01,2013-05-19 09:35:00,
2013-05-19 05:36:00,54.5,53.1,30.25,SSE,160,4.0,10.0,95,0.01,,,0.04,VWS V14.01,2013-05-19 09:36:00,
2013-05-19 05:37:00,54.5,53.1,30.25,SE,142,5.0,10.0,95,0.02,,,0.05,VWS V14.01,2013-05-19 09:37:00,
2013-05-19 05:38:00,54.4,53.0,30.25,South,179,2.0,10.0,95,0.02,,,0.05,VWS V14.01,2013-05-19 09:38:00,
2013-05-19 05:39:00,54.4,53.0,30.25,South,179,0.0,10.0,95,0.02,,,0.05,VWS V14.01,2013-05-19 09:39:00,
2013-05-19 05:40:00,54.4,53.0,30.25,South,179,0.0,10.0,95,0.02,,,0.05,VWS V14.01,2013-05-19 09:40:00,
2013-05-19 05:41:00,54.4,53.0,30.25,South,179,0.0,1.0,95,0.02,,,0.05,VWS V14.01,2013-05-19 09:41:00,
2013-05-19 05:42:00,54.4,53.0,30.25,South,171,3.0,3.0,95,0.02,,,0.05,VWS V14.01,2013-05-19 09:42:00,
2013-05-19 05:43:00,54.4,53.0,30.25,SSE,168,1.0,4.0,95,0.02,,,0.05,VWS V14.01,2013-05-19 09:43:00,
2013-05-19 05:44:00,54.4,53.0,30.25,SSE,167,1.0,4.0,95,0.02,,,0.05,VWS V14.01,2013-05-19 09:44:00,
2013-05-19 05:45:00,54.4,53.0,30.25,ESE,105,2.0,5.0,95,0.02,,,0.05,VWS V14.01,2013-05-19 09:45:00,
2013-05-19 05:46:00,54.3,52.9,30.25,ESE,106,0.0,5.0,95,0.02,,,0.05,VWS V14.01,2013-05-19 09:46:00,
2013-05-19 05:47:00,54.3,52.9,30.25,ESE,106,0.0,5.0,95,0.02,,,0.05,VWS V14.01,2013-05-19 09:47:00,
2013-05-19 05:48:00,54.3,52.9,30.25,SW,233,3.0,5.0,95,0.02,,,0.05,VWS V14.01,2013-05-19 09:48:00,
2013-05-19 05:49:00,54.3,52.9,30.25,SW,232,0.0,5.0,95,0.02,,,0.05,VWS V14.01,2013-05-19 09:49:00,
2013-05-19 05:50:00,54.3,52.9,30.25,SW,234,1.0,5.0,95,0.02,,,0.05,VWS V14.01,2013-05-19 09:50:00,
2013-05-19 05:51:00,54.3,52.9,30.25,SE,136,7.0,7.0,95,0.02,,,0.05,VWS V14.01,2013-05-19 09:51:00,
2013-05-19 05:52:00,54.3,52.9,30.25,SSE,150,2.0,7.0,95,0.02,,,0.05,VWS V14.01,2013-05-19 09:52:00,
2013-05-19 05:53:00,54.3,52.9,30.25,SSE,150,1.0,7.0,95,0.02,,,0.05,VWS V14.01,2013-05-19 09:53:00,
2013-05-19 05:54:00,54.3,52.9,30.25,SSE,150,0.0,7.0,95,0.02,,,0.05,VWS V14.01,2013-05-19 09:54:00,
2013-05-19 05:55:00,54.3,52.9,30.25,SSE,150,0.0,7.0,95,0.02,,,0.05,VWS V14.01,2013-05-19 09:55:00,
2013-05-19 05:56:00,54.3,52.9,30.25,East,91,0.0,7.0,95,0.02,,,0.05,VWS V14.01,2013-05-19 09:56:00,
2013-05-19 05:57:00,54.3,52.9,30.25,East,91,1.0,7.0,95,0.02,,,0.05,VWS V14.01,2013-05-19 09:57:00,
2013-05-19 05:58:00,54.3,52.9,30.25,East,91,0.0,7.0,95,0.02,,,0.05,VWS V14.01,2013-05-19 09:58:00,
2013-05-19 05:59:00,54.3,52.9,30.25,SE,140,0.0,7.0,95,0.02,,,0.05,VWS V14.01,2013-05-19 09:59:00,
2013-05-19 06:00:00,54.2,52.8,30.25,SE,140,0.0,7.0,95,0.02,,,0.05,VWS V14.01,2013-05-19 10:00:00,
2013-05-19 06:01:00,54.3,52.9,30.25,SE,140,0.0,0.0,95,0.02,,,0.05,VWS V14.01,2013-05-19 10:01:00,
2013-05-19 06:02:00,54.3,52.9,30.25,SE,130,4.0,4.0,95,0.02,,,0.05,VWS V14.01,2013-05-19 10:02:00,
2013-05-19 06:03:00,54.2,52.8,30.25,SE,130,1.0,4.0,95,0.02,,,0.05,VWS V14.01,2013-05-19 10:03:00,
2013-05-19 06:04:00,54.2,52.8,30.25,SSE,165,1.0,6.0,95,0.02,,,0.05,VWS V14.01,2013-05-19 10:04:00,
2013-05-19 06:05:00,54.2,52.8,30.25,SSE,165,0.0,6.0,95,0.02,,,0.05,VWS V14.01,2013-05-19 10:05:00,
2013-05-19 06:06:00,54.2,52.8,30.25,SSE,165,0.0,6.0,95,0.02,,,0.05,VWS V14.01,2013-05-19 10:06:00,
2013-05-19 06:07:00,54.2,52.8,30.25,SSE,165,1.0,6.0,95,0.02,,,0.05,VWS V14.01,2013-05-19 10:07:00,
2013-05-19 06:08:00,54.2,52.8,30.25,SSE,165,0.0,6.0,95,0.02,,,0.05,VWS V14.01,2013-05-19 10:08:00,
2013-05-19 06:09:00,54.2,52.8,30.25,SE,144,2.0,6.0,95,0.02,,,0.05,VWS V14.01,2013-05-19 10:09:00,
2013-05-19 06:10:00,54.2,52.8,30.25,SE,143,0.0,6.0,95,0.02,,,0.05,VWS V14.01,2013-05-19 10:10:00,
2013-05-19 06:11:00,54.2,52.8,30.25,South,173,5.0,5.0,95,0.02,,,0.05,VWS V14.01,2013-05-19 10:11:00,
2013-05-19 06:12:00,54.2,52.8,30.25,SSE,148,2.0,5.0,95,0.02,,,0.05,VWS V14.01,2013-05-19 10:12:00,
2013-05-19 06:13:00,54.2,52.8,30.25,SSE,150,0.0,5.0,95,0.02,,,0.05,VWS V14.01,2013-05-19 10:13:00,
2013-05-19 06:14:00,54.2,52.8,30.25,SSE,167,3.0,5.0,95,0.02,,,0.05,VWS V14.01,2013-05-19 10:14:00,
2013-05-19 06:15:00,54.2,52.8,30.25,SSE,167,2.0,5.0,95,0.02,,,0.05,VWS V14.01,2013-05-19 10:15:00,
2013-05-19 06:16:00,54.2,52.8,30.25,SSE,167,1.0,5.0,95,0.02,,,0.05,VWS V14.01,2013-05-19 10:16:00,
2013-05-19 06:17:00,54.2,52.8,30.25,SSW,205,1.0,5.0,95,0.02,,,0.05,VWS V14.01,2013-05-19 10:17:00,
2013-05-19 06:18:00,54.2,52.8,30.25,SE,141,3.0,5.0,95,0.03,,,0.06,VWS V14.01,2013-05-19 10:18:00,
2013-05-19 06:19:00,54.2,52.8,30.25,SE,141,0.0,5.0,95,0.03,,,0.06,VWS V14.01,2013-05-19 10:19:00,
2013-05-19 06:20:00,54.2,52.8,30.25,ESE,115,3.0,8.0,95,0.03,,,0.06,VWS V14.01,2013-05-19 10:20:00,
2013-05-19 06:21:00,54.1,52.7,30.25,SSE,158,2.0,5.0,95,0.02,,,0.06,VWS V14.01,2013-05-19 10:21:00,
2013-05-19 06:22:00,54.1,52.7,30.25,SE,144,6.0,6.0,95,0.02,,,0.06,VWS V14.01,2013-05-19 10:22:00,
2013-05-19 06:23:00,54.1,52.7,30.25,SSW,201,4.0,8.0,95,0.02,,,0.06,VWS V14.01,2013-05-19 10:23:00,
2013-05-19 06:24:00,54.1,52.7,30.25,SSE,155,3.0,8.0,95,0.02,,,0.06,VWS V14.01,2013-05-19 10:24:00,
2013-05-19 06:25:00,54.1,52.7,30.25,SSE,150,3.0,8.0,95,0.02,,,0.06,VWS V14.01,2013-05-19 10:25:00,
2013-05-19 06:26:00,54.1,52.7,30.25,SSE,159,0.0,10.0,95,0.02,,,0.06,VWS V14.01,2013-05-19 10:26:00,
2013-05-19 06:27:00,54.1,52.7,30.25,SSE,160,1.0,10.0,95,0.02,,,0.06,VWS V14.01,2013-05-19 10:27:00,
2013-05-19 06:28:00,54.1,52.7,30.25,SSE,157,5.0,10.0,95,0.02,,,0.06,VWS V14.01,2013-05-19 10:28:00,
2013-05-19 06:29:00,54.1,52.7,30.25,SSE,153,2.0,10.0,95,0.02,,,0.06,VWS V14.01,2013-05-19 10:29:00,
2013-05-19 06:30:00,54.1,52.7,30.25,SSE,153,0.0,10.0,95,0.02,,,0.06,VWS V14.01,2013-05-19 10:30:00,
2013-05-19 06:31:00,54.1,52.7,30.25,SSW,202,3.0,6.0,95,0.02,,,0.06,VWS V14.01,2013-05-19 10:31:00,
2013-05-19 06:32:00,54.1,52.7,30.25,SE,143,0.0,6.0,95,0.02,,,0.06,VWS V14.01,2013-05-19 10:32:00,
2013-05-19 06:33:00,54.1,52.7,30.25,SE,137,5.0,6.0,95,0.02,,,0.06,VWS V14.01,2013-05-19 10:33:00,
2013-05-19 06:34:00,54.1,52.7,30.25,SSE,153,3.0,6.0,95,0.02,,,0.06,VWS V14.01,2013-05-19 10:34:00,
2013-05-19 06:35:00,54.1,52.7,30.25,SSE,149,2.0,6.0,95,0.02,,,0.06,VWS V14.01,2013-05-19 10:35:00,
2013-05-19 06:36:00,54.1,52.7,30.25,SSE,153,3.0,6.0,95,0.02,,,0.06,VWS V14.01,2013-05-19 10:36:00,
2013-05-19 06:37:00,54.1,52.7,30.25,SSE,152,0.0,6.0,95,0.02,,,0.06,VWS V14.01,2013-05-19 10:37:00,
2013-05-19 06:38:00,54.1,52.7,30.25,SSE,152,2.0,6.0,95,0.02,,,0.06,VWS V14.01,2013-05-19 10:38:00,
2013-05-19 06:39:00,54.1,52.7,30.25,SSE,151,1.0,6.0,95,0.02,,,0.06,VWS V14.01,2013-05-19 10:39:00,
2013-05-19 06:40:00,54.1,52.7,30.25,SSE,167,0.0,6.0,95,0.02,,,0.06,VWS V14.01,2013-05-19 10:40:00,
2013-05-19 06:41:00,54.1,52.7,30.25,SSE,167,0.0,3.0,95,0.01,,,0.06,VWS V14.01,2013-05-19 10:41:00,
2013-05-19 06:42:00,54.1,52.7,30.25,SSE,167,3.0,3.0,95,0.01,,,0.06,VWS V14.01,2013-05-19 10:42:00,
2013-05-19 06:43:00,54.1,52.7,30.25,SSE,153,3.0,4.0,95,0.01,,,0.06,VWS V14.01,2013-05-19 10:43:00,
2013-05-19 06:44:00,54.1,52.7,30.25,SSE,154,1.0,4.0,95,0.01,,,0.06,VWS V14.01,2013-05-19 10:44:00,
2013-05-19 06:45:00,54.1,52.7,30.25,SSE,154,0.0,4.0,95,0.01,,,0.06,VWS V14.01,2013-05-19 10:45:00,
2013-05-19 06:46:00,54.1,52.7,30.25,SSE,154,0.0,4.0,95,0.01,,,0.06,VWS V14.01,2013-05-19 10:46:00,
2013-05-19 06:47:00,54.1,52.7,30.25,SE,140,2.0,4.0,95,0.01,,,0.06,VWS V14.01,2013-05-19 10:47:00,
2013-05-19 06:48:00,54.1,52.7,30.25,SSE,148,4.0,7.0,95,0.01,,,0.06,VWS V14.01,2013-05-19 10:48:00,
2013-05-19 06:49:00,54.1,52.7,30.25,SE,140,0.0,7.0,95,0.01,,,0.06,VWS V14.01,2013-05-19 10:49:00,
2013-05-19 06:50:00,54.1,52.7,30.25,SE,140,2.0,7.0,95,0.01,,,0.06,VWS V14.01,2013-05-19 10:50:00,
2013-05-19 06:51:00,54.1,52.7,30.25,SSE,153,3.0,7.0,95,0.01,,,0.06,VWS V14.01,2013-05-19 10:51:00,
2013-05-19 06:52:00,54.1,52.7,30.25,SSE,154,2.0,7.0,95,0.01,,,0.06,VWS V14.01,2013-05-19 10:52:00,
2013-05-19 06:53:00,54.1,52.7,30.25,East,87,2.0,7.0,95,0.01,,,0.06,VWS V14.01,2013-05-19 10:53:00,
2013-05-19 06:54:00,54.1,52.7,30.25,SE,141,3.0,7.0,95,0.01,,,0.06,VWS V14.01,2013-05-19 10:54:00,
2013-05-19 06:55:00,54.1,52.7,30.25,ESE,117,2.0,9.0,95,0.01,,,0.06,VWS V14.01,2013-05-19 10:55:00,
2013-05-19 06:56:00,54.1,52.7,30.25,ESE,117,0.0,9.0,95,0.01,,,0.06,VWS V14.01,2013-05-19 10:56:00,
2013-05-19 06:57:00,54.1,52.7,30.25,SE,142,4.0,9.0,95,0.01,,,0.06,VWS V14.01,2013-05-19 10:57:00,
2013-05-19 06:58:00,54.1,52.7,30.25,SE,146,0.0,9.0,95,0.01,,,0.06,VWS V14.01,2013-05-19 10:58:00,
2013-05-19 06:59:00,54.1,52.7,30.25,SE,146,0.0,9.0,95,0.01,,,0.06,VWS V14.01,2013-05-19 10:59:00,
2013-05-19 07:00:00,54.1,52.7,30.25,SSE,167,3.0,9.0,95,0.01,,,0.06,VWS V14.01,2013-05-19 11:00:00,
2013-05-19 07:01:00,54.1,52.7,30.25,SE,140,6.0,7.0,95,0.01,,,0.06,VWS V14.01,2013-05-19 11:01:00,
2013-05-19 07:02:00,54.1,52.7,30.25,SE,140,0.0,7.0,95,0.01,,,0.06,VWS V14.01,2013-05-19 11:02:00,
2013-05-19 07:03:00,54.1,52.7,30.25,SE,140,1.0,7.0,95,0.01,,,0.06,VWS V14.01,2013-05-19 11:03:00,
2013-05-19 07:04:00,54.1,52.7,30.25,SSE,158,1.0,7.0,95,0.01,,,0.06,VWS V14.01,2013-05-19 11:04:00,
2013-05-19 07:05:00,54.1,52.7,30.25,SSE,162,4.0,7.0,95,0.01,,,0.06,VWS V14.01,2013-05-19 11:05:00,
2013-05-19 07:06:00,54.1,52.7,30.25,SSE,161,2.0,7.0,95,0.01,,,0.06,VWS V14.01,2013-05-19 11:06:00,
2013-05-19 07:07:00,54.1,52.7,30.25,SSE,161,1.0,7.0,95,0.01,,,0.06,VWS V14.01,2013-05-19 11:07:00,
2013-05-19 07:08:00,54.1,52.7,30.25,SSE,161,2.0,7.0,95,0.01,,,0.06,VWS V14.01,2013-05-19 11:08:00,
2013-05-19 07:09:00,54.1,52.7,30.25,SSE,161,1.0,7.0,95,0.01,,,0.06,VWS V14.01,2013-05-19 11:09:00,
2013-05-19 07:10:00,54.1,52.7,30.25,SSE,161,2.0,7.0,95,0.01,,,0.06,VWS V14.01,2013-05-19 11:10:00,
2013-05-19 07:11:00,54.1,52.7,30.25,SSE,161,0.0,0.0,95,0.01,,,0.06,VWS V14.01,2013-05-19 11:11:00,
2013-05-19 07:12:00,54.1,52.7,30.25,SSE,157,2.0,5.0,95,0.01,,,0.06,VWS V14.01,2013-05-19 11:12:00,
2013-05-19 07:13:00,54.1,52.7,30.25,SSE,157,0.0,5.0,95,0.01,,,0.06,VWS V14.01,2013-05-19 11:13:00,
2013-05-19 07:14:00,54.1,52.7,30.25,SSE,155,3.0,5.0,95,0.01,,,0.06,VWS V14.01,2013-05-19 11:14:00,
2013-05-19 07:15:00,54.1,52.7,30.25,SSE,155,0.0,5.0,95,0.01,,,0.06,VWS V14.01,2013-05-19 11:15:00,
2013-05-19 07:16:00,54.1,52.7,30.25,SE,135,3.0,5.0,95,0.01,,,0.06,VWS V14.01,2013-05-19 11:16:00,
2013-05-19 07:17:00,54.1,52.7,30.25,SE,131,2.0,5.0,95,0.02,,,0.07,VWS V14.01,2013-05-19 11:17:00,
2013-05-19 07:18:00,54.1,52.7,30.25,SSE,161,3.0,8.0,95,0.02,,,0.07,VWS V14.01,2013-05-19 11:18:00,
2013-05-19 07:19:00,54.1,52.7,30.25,South,169,4.0,9.0,95,0.02,,,0.07,VWS V14.01,2013-05-19 11:19:00,
2013-05-19 07:20:00,54.1,52.7,30.25,SSE,155,1.0,9.0,95,0.02,,,0.07,VWS V14.01,2013-05-19 11:20:00,
2013-05-19 07:21:00,54.1,52.7,30.25,SW,214,1.0,6.0,95,0.01,,,0.07,VWS V14.01,2013-05-19 11:21:00,
2013-05-19 07:22:00,54.1,52.7,30.25,SSW,194,2.0,6.0,95,0.01,,,0.07,VWS V14.01,2013-05-19 11:22:00,
2013-05-19 07:23:00,54.1,52.7,30.25,South,173,1.0,6.0,95,0.01,,,0.07,VWS V14.01,2013-05-19 11:23:00,
2013-05-19 07:24:00,54.1,52.7,30.25,SSE,148,0.0,9.0,95,0.01,,,0.07,VWS V14.01,2013-05-19 11:24:00,
2013-05-19 07:25:00,54.1,52.7,30.25,SSE,165,5.0,9.0,95,0.01,,,0.07,VWS V14.01,2013-05-19 11:25:00,
2013-05-19 07:26:00,54.2,52.8,30.25,SE,143,1.0,9.0,95,0.01,,,0.07,VWS V14.01,2013-05-19 11:26:00,
2013-05-19 07:27:00,54.2,52.8,30.25,SE,144,3.0,9.0,95,0.01,,,0.07,VWS V14.01,2013-05-19 11:27:00,
2013-05-19 07:28:00,54.2,52.8,30.25,SSE,150,2.0,9.0,95,0.01,,,0.07,VWS V14.01,2013-05-19 11:28:00,
2013-05-19 07:29:00,54.2,52.8,30.25,SSE,152,3.0,9.0,95,0.01,,,0.07,VWS V14.01,2013-05-19 11:29:00,
2013-05-19 07:30:00,54.2,52.8,30.25,SSE,152,0.0,9.0,95,0.01,,,0.07,VWS V14.01,2013-05-19 11:30:00,
2013-05-19 07:31:00,54.2,52.8,30.25,SSE,152,3.0,3.0,95,0.01,,,0.07,VWS V14.01,2013-05-19 11:31:00,
2013-05-19 07:32:00,54.2,52.8,30.25,SSE,152,1.0,4.0,95,0.01,,,0.07,VWS V14.01,2013-05-19 11:32:00,
2013-05-19 07:33:00,54.2,52.8,30.25,SSE,152,0.0,4.0,95,0.01,,,0.07,VWS V14.01,2013-05-19 11:33:00,
2013-05-19 07:34:00,54.2,52.8,30.25,SSE,163,1.0,6.0,95,0.01,,,0.07,VWS V14.01,2013-05-19 11:34:00,
2013-05-19 07:35:00,54.2,52.8,30.25,SSE,159,1.0,6.0,95,0.01,,,0.07,VWS V14.01,2013-05-19 11:35:00,
2013-05-19 07:36:00,54.2,52.8,30.25,SSE,159,2.0,6.0,95,0.01,,,0.07,VWS V14.01,2013-05-19 11:36:00,
2013-05-19 07:37:00,54.2,52.8,30.25,SSE,159,2.0,6.0,95,0.01,,,0.07,VWS V14.01,2013-05-19 11:37:00,
2013-05-19 07:38:00,54.2,52.8,30.25,SSE,159,0.0,6.0,95,0.01,,,0.07,VWS V14.01,2013-05-19 11:38:00,
2013-05-19 07:39:00,54.2,52.8,30.25,SE,133,4.0,6.0,95,0.01,,,0.07,VWS V14.01,2013-05-19 11:39:00,
2013-05-19 07:40:00,54.2,52.8,30.25,SE,138,0.0,6.0,95,0.01,,,0.07,VWS V14.01,2013-05-19 11:40:00,
2013-05-19 07:41:00,54.2,52.8,30.25,SE,146,4.0,4.0,95,0.01,,,0.07,VWS V14.01,2013-05-19 11:41:00,
2013-05-19 07:42:00,54.2,52.8,30.25,SE,144,1.0,6.0,95,0.01,,,0.07,VWS V14.01,2013-05-19 11:42:00,
2013-05-19 07:43:00,54.2,52.8,30.25,SSE,148,0.0,6.0,95,0.01,,,0.07,VWS V14.01,2013-05-19 11:43:00,
2013-05-19 07:44:00,54.2,52.8,30.25,SSE,148,1.0,6.0,95,0.01,,,0.07,VWS V14.01,2013-05-19 11:44:00,
2013-05-19 07:45:00,54.2,52.8,30.26,ESE,111,3.0,6.0,95,0.01,,,0.07,VWS V14.01,2013-05-19 11:45:00,
2013-05-19 07:46:00,54.2,52.8,30.26,SSE,155,0.0,6.0,95,0.01,,,0.07,VWS V14.01,2013-05-19 11:46:00,
2013-05-19 07:47:00,54.2,52.8,30.26,SSE,155,0.0,6.0,95,0.01,,,0.07,VWS V14.01,2013-05-19 11:47:00,
2013-05-19 07:48:00,54.2,52.8,30.26,SSE,155,6.0,6.0,95,0.01,,,0.07,VWS V14.01,2013-05-19 11:48:00,
2013-05-19 07:49:00,54.2,52.8,30.26,SE,134,1.0,6.0,95,0.01,,,0.07,VWS V14.01,2013-05-19 11:49:00,
2013-05-19 07:50:00,54.2,52.8,30.26,SSE,157,6.0,7.0,95,0.01,,,0.07,VWS V14.01,2013-05-19 11:50:00,
2013-05-19 07:51:00,54.2,52.8,30.26,SE,140,5.0,8.0,95,0.01,,,0.07,VWS V14.01,2013-05-19 11:51:00,
2013-05-19 07:52:00,54.2,52.8,30.26,SE,143,2.0,8.0,95,0.01,,,0.07,VWS V14.01,2013-05-19 11:52:00,
2013-05-19 07:53:00,54.2,52.8,30.26,SE,143,1.0,8.0,95,0.01,,,0.07,VWS V14.01,2013-05-19 11:53:00,
2013-05-19 07:54:00,54.2,52.8,30.26,SE,143,4.0,8.0,95,0.01,,,0.07,VWS V14.01,2013-05-19 11:54:00,
2013-05-19 07:55:00,54.2,52.8,30.26,SE,144,3.0,8.0,95,0.01,,,0.07,VWS V14.01,2013-05-19 11:55:00,
2013-05-19 07:56:00,54.2,52.8,30.26,SE,144,0.0,8.0,95,0.01,,,0.07,VWS V14.01,2013-05-19 11:56:00,
2013-05-19 07:57:00,54.2,52.8,30.26,SE,144,1.0,8.0,95,0.01,,,0.07,VWS V14.01,2013-05-19 11:57:00,
2013-05-19 07:58:00,54.2,52.8,30.26,SE,144,0.0,8.0,95,0.01,,,0.07,VWS V14.01,2013-05-19 11:58:00,
2013-05-19 07:59:00,54.2,52.8,30.26,SE,143,2.0,8.0,95,0.01,,,0.07,VWS V14.01,2013-05-19 11:59:00,
2013-05-19 08:00:00,54.2,52.8,30.27,SSE,157,3.0,11.0,95,0.01,,,0.07,VWS V14.01,2013-05-19 12:00:00,
2013-05-19 08:01:00,54.2,52.8,30.27,ESE,117,2.0,9.0,95,0.01,,,0.07,VWS V14.01,2013-05-19 12:01:00,
2013-05-19 08:02:00,54.2,52.8,30.27,SE,142,2.0,9.0,95,0.01,,,0.07,VWS V14.01,2013-05-19 12:02:00,
2013-05-19 08:03:00,54.2,52.8,30.27,SE,134,1.0,9.0,95,0.01,,,0.07,VWS V14.01,2013-05-19 12:03:00,
2013-05-19 08:04:00,54.2,52.8,30.27,SE,135,3.0,9.0,95,0.01,,,0.07,VWS V14.01,2013-05-19 12:04:00,
2013-05-19 08:05:00,54.2,52.8,30.27,SE,144,3.0,9.0,95,0.01,,,0.07,VWS V14.01,2013-05-19 12:05:00,
2013-05-19 08:06:00,54.2,52.8,30.27,SSE,152,0.0,9.0,95,0.01,,,0.07,VWS V14.01,2013-05-19 12:06:00,
2013-05-19 08:07:00,54.2,52.8,30.27,ESE,120,4.0,9.0,95,0.01,,,0.07,VWS V14.01,2013-05-19 12:07:00,
2013-05-19 08:08:00,54.2,52.8,30.27,SE,141,2.0,9.0,95,0.01,,,0.07,VWS V14.01,2013-05-19 12:08:00,
2013-05-19 08:09:00,54.2,52.8,30.27,South,182,1.0,13.0,95,0.01,,,0.07,VWS V14.01,2013-05-19 12:09:00,
2013-05-19 08:10:00,54.2,52.8,30.27,SE,130,6.0,13.0,95,0.01,,,0.07,VWS V14.01,2013-05-19 12:10:00,
2013-05-19 08:11:00,54.2,52.8,30.27,SSE,153,4.0,7.0,95,0.01,,,0.07,VWS V14.01,2013-05-19 12:11:00,
2013-05-19 08:12:00,54.2,52.8,30.27,SSE,153,0.0,7.0,95,0.01,,,0.07,VWS V14.01,2013-05-19 12:12:00,
2013-05-19 08:13:00,54.2,52.8,30.27,South,187,5.0,7.0,95,0.01,,,0.07,VWS V14.01,2013-05-19 12:13:00,
2013-05-19 08:14:00,54.2,52.8,30.27,SE,142,2.0,7.0,95,0.01,,,0.07,VWS V14.01,2013-05-19 12:14:00,
2013-05-19 08:15:00,54.2,52.8,30.27,SSE,161,4.0,7.0,95,0.01,,,0.07,VWS V14.01,2013-05-19 12:15:00,
2013-05-19 08:16:00,54.2,52.8,30.27,SSE,161,2.0,7.0,95,0.01,,,0.07,VWS V14.01,2013-05-19 12:16:00,
2013-05-19 08:17:00,54.2,52.8,30.27,SSE,150,7.0,7.0,95,0.01,,,0.07,VWS V14.01,2013-05-19 12:17:00,
2013-05-19 08:18:00,54.3,52.9,30.27,ESE,112,4.0,7.0,95,0.01,,,0.07,VWS V14.01,2013-05-19 12:18:00,
2013-05-19 08:19:00,54.3,52.9,30.27,SE,134,1.0,7.0,95,0.01,,,0.07,VWS V14.01,2013-05-19 12:19:00,
2013-05-19 08:20:00,54.3,52.9,30.27,SSE,152,2.0,7.0,95,0.01,,,0.07,VWS V14.01,2013-05-19 12:20:00,
2013-05-19 08:21:00,54.3,52.9,30.27,SE,141,4.0,5.0,95,0.00,,,0.07,VWS V14.01,2013-05-19 12:21:00,
2013-05-19 08:22:00,54.3,52.9,30.27,SE,146,4.0,5.0,95,0.00,,,0.07,VWS V14.01,2013-05-19 12:22:00,
2013-05-19 08:23:00,54.3,52.9,30.27,SE,146,0.0,5.0,95,0.00,,,0.07,VWS V14.01,2013-05-19 12:23:00,
2013-05-19 08:24:00,54.3,52.9,30.27,SE,135,2.0,5.0,95,0.00,,,0.07,VWS V14.01,2013-05-19 12:24:00,
2013-05-19 08:25:00,54.3,52.9,30.27,SW,233,5.0,6.0,95,0.00,,,0.07,VWS V14.01,2013-05-19 12:25:00,
2013-05-19 08:26:00,54.4,53.0,30.27,South,171,2.0,6.0,95,0.00,,,0.07,VWS V14.01,2013-05-19 12:26:00,
2013-05-19 08:27:00,54.3,52.9,30.27,South,171,0.0,6.0,95,0.00,,,0.07,VWS V14.01,2013-05-19 12:27:00,
2013-05-19 08:28:00,54.4,53.0,30.27,SE,140,10.0,10.0,95,0.00,,,0.07,VWS V14.01,2013-05-19 12:28:00,
2013-05-19 08:29:00,54.4,53.0,30.27,SSE,162,3.0,10.0,95,0.00,,,0.07,VWS V14.01,2013-05-19 12:29:00,
2013-05-19 08:30:00,54.4,53.0,30.27,SSE,162,0.0,10.0,95,0.00,,,0.07,VWS V14.01,2013-05-19 12:30:00,
2013-05-19 08:31:00,54.4,53.0,30.27,SSE,162,2.0,2.0,95,0.00,,,0.07,VWS V14.01,2013-05-19 12:31:00,
2013-05-19 08:32:00,54.4,53.0,30.27,SSE,157,6.0,7.0,95,0.00,,,0.07,VWS V14.01,2013-05-19 12:32:00,
2013-05-19 08:33:00,54.4,53.0,30.27,SSE,163,4.0,8.0,95,0.00,,,0.07,VWS V14.01,2013-05-19 12:33:00,
2013-05-19 08:34:00,54.4,53.0,30.27,South,189,6.0,8.0,95,0.00,,,0.07,VWS V14.01,2013-05-19 12:34:00,
2013-05-19 08:35:00,54.4,53.0,30.27,SW,233,3.0,8.0,95,0.00,,,0.07,VWS V14.01,2013-05-19 12:35:00,
2013-05-19 08:36:00,54.4,53.0,30.27,SE,140,5.0,8.0,95,0.00,,,0.07,VWS V14.01,2013-05-19 12:36:00,
2013-05-19 08:37:00,54.4,53.0,30.27,ESE,104,1.0,9.0,95,0.00,,,0.07,VWS V14.01,2013-05-19 12:37:00,
2013-05-19 08:38:00,54.4,53.0,30.27,SE,140,0.0,9.0,95,0.00,,,0.07,VWS V14.01,2013-05-19 12:38:00,
2013-05-19 08:39:00,54.4,53.0,30.27,South,175,4.0,9.0,95,0.00,,,0.07,VWS V14.01,2013-05-19 12:39:00,
2013-05-19 08:40:00,54.4,53.0,30.27,South,171,0.0,9.0,95,0.00,,,0.07,VWS V14.01,2013-05-19 12:40:00,
2013-05-19 08:41:00,54.4,53.0,30.27,SE,145,2.0,2.0,95,0.00,,,0.07,VWS V14.01,2013-05-19 12:41:00,
2013-05-19 08:42:00,54.4,53.0,30.27,SE,144,0.0,3.0,95,0.00,,,0.07,VWS V14.01,2013-05-19 12:42:00,
2013-05-19 08:43:00,54.5,53.1,30.27,SSE,163,4.0,4.0,95,0.00,,,0.07,VWS V14.01,2013-05-19 12:43:00,
2013-05-19 08:44:00,54.5,53.1,30.27,SE,128,0.0,10.0,95,0.00,,,0.07,VWS V14.01,2013-05-19 12:44:00,
2013-05-19 08:45:00,54.5,53.1,30.27,SE,128,0.0,10.0,95,0.00,,,0.07,VWS V14.01,2013-05-19 12:45:00,
2013-05-19 08:46:00,54.5,53.1,30.27,SSE,158,4.0,10.0,95,0.00,,,0.07,VWS V14.01,2013-05-19 12:46:00,
2013-05-19 08:47:00,54.5,53.1,30.27,SSE,151,5.0,11.0,95,0.00,,,0.07,VWS V14.01,2013-05-19 12:47:00,
2013-05-19 08:48:00,54.5,53.1,30.27,SE,144,0.0,11.0,95,0.00,,,0.07,VWS V14.01,2013-05-19 12:48:00,
2013-05-19 08:49:00,54.5,53.1,30.27,SE,136,3.0,11.0,95,0.00,,,0.07,VWS V14.01,2013-05-19 12:49:00,
2013-05-19 08:50:00,54.5,53.1,30.27,SSE,147,6.0,11.0,95,0.00,,,0.07,VWS V14.01,2013-05-19 12:50:00,
2013-05-19 08:51:00,54.5,53.4,30.27,ESE,116,0.0,10.0,96,0.00,,,0.07,VWS V14.01,2013-05-19 12:51:00,
2013-05-19 08:52:00,54.5,53.1,30.27,ESE,116,0.0,10.0,95,0.01,,,0.08,VWS V14.01,2013-05-19 12:52:00,
2013-05-19 08:53:00,54.6,53.5,30.27,SSE,165,4.0,10.0,96,0.01,,,0.08,VWS V14.01,2013-05-19 12:53:00,
2013-05-19 08:54:00,54.6,53.5,30.27,SE,134,3.0,10.0,96,0.01,,,0.08,VWS V14.01,2013-05-19 12:54:00,
2013-05-19 08:55:00,54.6,53.5,30.27,SE,134,0.0,10.0,96,0.01,,,0.08,VWS V14.01,2013-05-19 12:55:00,
2013-05-19 08:56:00,54.6,53.5,30.27,South,184,3.0,10.0,96,0.01,,,0.08,VWS V14.01,2013-05-19 12:56:00,
2013-05-19 08:57:00,54.6,53.5,30.27,South,184,0.0,10.0,96,0.01,,,0.08,VWS V14.01,2013-05-19 12:57:00,
2013-05-19 08:58:00,54.6,53.5,30.27,SE,128,6.0,10.0,96,0.01,,,0.08,VWS V14.01,2013-05-19 12:58:00,
2013-05-19 08:59:00,54.6,53.5,30.27,SE,138,0.0,10.0,96,0.01,,,0.08,VWS V14.01,2013-05-19 12:59:00,
2013-05-19 09:00:00,54.6,53.5,30.27,SSE,161,1.0,10.0,96,0.01,,,0.08,VWS V14.01,2013-05-19 13:00:00,
2013-05-19 09:01:00,54.6,53.5,30.27,SSE,159,0.0,2.0,96,0.01,,,0.08,VWS V14.01,2013-05-19 13:01:00,
2013-05-19 09:02:00,54.7,53.6,30.27,SSE,159,0.0,2.0,96,0.01,,,0.08,VWS V14.01,2013-05-19 13:02:00,
2013-05-19 09:03:00,54.7,53.6,30.27,ESE,113,4.0,5.0,96,0.01,,,0.08,VWS V14.01,2013-05-19 13:03:00,
2013-05-19 09:04:00,54.7,53.6,30.27,ESE,113,0.0,5.0,96,0.01,,,0.08,VWS V14.01,2013-05-19 13:04:00,
2013-05-19 09:05:00,54.7,53.6,30.27,ESE,113,0.0,5.0,96,0.01,,,0.08,VWS V14.01,2013-05-19 13:05:00,
2013-05-19 09:06:00,54.7,53.6,30.27,ESE,105,2.0,5.0,96,0.01,,,0.08,VWS V14.01,2013-05-19 13:06:00,
2013-05-19 09:07:00,54.7,53.6,30.27,SSE,160,4.0,5.0,96,0.01,,,0.08,VWS V14.01,2013-05-19 13:07:00,
2013-05-19 09:08:00,54.8,53.7,30.27,SSE,160,2.0,5.0,96,0.01,,,0.08,VWS V14.01,2013-05-19 13:08:00,
2013-05-19 09:09:00,54.8,53.7,30.27,SSE,163,1.0,5.0,96,0.01,,,0.08,VWS V14.01,2013-05-19 13:09:00,
2013-05-19 09:10:00,54.8,53.7,30.27,SSE,163,0.0,5.0,96,0.01,,,0.08,VWS V14.01,2013-05-19 13:10:00,
2013-05-19 09:11:00,54.8,53.7,30.27,SSE,147,5.0,7.0,96,0.01,,,0.08,VWS V14.01,2013-05-19 13:11:00,
2013-05-19 09:12:00,54.8,53.7,30.27,SSE,161,4.0,7.0,96,0.01,,,0.08,VWS V14.01,2013-05-19 13:12:00,
2013-05-19 09:13:00,54.8,53.7,30.27,SSE,165,2.0,7.0,96,0.01,,,0.08,VWS V14.01,2013-05-19 13:13:00,
2013-05-19 09:14:00,54.8,53.7,30.27,SSE,163,5.0,7.0,96,0.01,,,0.08,VWS V14.01,2013-05-19 13:14:00,
2013-05-19 09:15:00,54.8,53.7,30.27,SE,132,7.0,7.0,96,0.01,,,0.08,VWS V14.01,2013-05-19 13:15:00,
2013-05-19 09:16:00,54.8,53.7,30.27,South,172,4.0,7.0,96,0.01,,,0.08,VWS V14.01,2013-05-19 13:16:00,
2013-05-19 09:17:00,54.9,53.8,30.27,South,182,0.0,7.0,96,0.01,,,0.08,VWS V14.01,2013-05-19 13:17:00,
2013-05-19 09:18:00,54.9,53.8,30.27,South,182,0.0,7.0,96,0.01,,,0.08,VWS V14.01,2013-05-19 13:18:00,
2013-05-19 09:19:00,54.9,53.8,30.27,South,182,0.0,7.0,96,0.01,,,0.08,VWS V14.01,2013-05-19 13:19:00,
2013-05-19 09:20:00,54.9,53.8,30.27,SSE,162,0.0,7.0,96,0.01,,,0.08,VWS V14.01,2013-05-19 13:20:00,
2013-05-19 09:21:00,54.9,53.8,30.27,SSE,162,4.0,4.0,96,0.01,,,0.08,VWS V14.01,2013-05-19 13:21:00,
2013-05-19 09:22:00,54.9,53.8,30.27,SSE,156,4.0,7.0,96,0.01,,,0.08,VWS V14.01,2013-05-19 13:22:00,
2013-05-19 09:23:00,55.0,53.9,30.27,SSE,158,2.0,7.0,96,0.01,,,0.08,VWS V14.01,2013-05-19 13:23:00,
2013-05-19 09:24:00,55.0,53.9,30.27,SSE,158,3.0,7.0,96,0.01,,,0.08,VWS V14.01,2013-05-19 13:24:00,
2013-05-19 09:25:00,55.0,53.9,30.27,South,173,2.0,7.0,96,0.01,,,0.08,VWS V14.01,2013-05-19 13:25:00,
2013-05-19 09:26:00,55.0,53.9,30.27,SSE,161,0.0,7.0,96,0.01,,,0.08,VWS V14.01,2013-05-19 13:26:00,
2013-05-19 09:27:00,55.0,53.9,30.27,SSE,161,0.0,7.0,96,0.01,,,0.08,VWS V14.01,2013-05-19 13:27:00,
2013-05-19 09:28:00,55.1,54.0,30.27,SSE,155,0.0,7.0,96,0.02,,,0.09,VWS V14.01,2013-05-19 13:28:00,
2013-05-19 09:29:00,55.1,54.0,30.27,SSE,155,2.0,7.0,96,0.02,,,0.09,VWS V14.01,2013-05-19 13:29:00,
2013-05-19 09:30:00,55.1,54.0,30.27,SSE,157,0.0,7.0,96,0.02,,,0.09,VWS V14.01,2013-05-19 13:30:00,
2013-05-19 09:31:00,55.1,54.0,30.27,SSE,157,0.0,1.0,96,0.02,,,0.09,VWS V14.01,2013-05-19 13:31:00,
2013-05-19 09:32:00,55.1,54.0,30.27,SSE,156,3.0,5.0,96,0.02,,,0.09,VWS V14.01,2013-05-19 13:32:00,
2013-05-19 09:33:00,55.1,54.0,30.27,SSE,156,1.0,5.0,96,0.02,,,0.09,VWS V14.01,2013-05-19 13:33:00,
2013-05-19 09:34:00,55.2,54.1,30.27,South,170,6.0,6.0,96,0.02,,,0.09,VWS V14.01,2013-05-19 13:34:00,
2013-05-19 09:35:00,55.2,54.1,30.27,SSE,153,7.0,7.0,96,0.02,,,0.09,VWS V14.01,2013-05-19 13:35:00,
2013-05-19 09:36:00,55.2,54.1,30.27,SSE,150,5.0,7.0,96,0.02,,,0.09,VWS V14.01,2013-05-19 13:36:00,
2013-05-19 09:37:00,55.2,54.1,30.27,SE,138,0.0,7.0,96,0.02,,,0.09,VWS V14.01,2013-05-19 13:37:00,
2013-05-19 09:38:00,55.2,54.1,30.27,SE,138,0.0,7.0,96,0.02,,,0.09,VWS V14.01,2013-05-19 13:38:00,
2013-05-19 09:39:00,55.2,54.1,30.27,SE,137,0.0,7.0,96,0.02,,,0.09,VWS V14.01,2013-05-19 13:39:00,
2013-05-19 09:40:00,55.2,54.1,30.27,ESE,116,2.0,7.0,96,0.02,,,0.09,VWS V14.01,2013-05-19 13:40:00,
2013-05-19 09:41:00,55.3,54.2,30.27,SSE,147,2.0,6.0,96,0.02,,,0.09,VWS V14.01,2013-05-19 13:41:00,
2013-05-19 09:42:00,55.3,54.2,30.27,SSE,147,0.0,6.0,96,0.02,,,0.09,VWS V14.01,2013-05-19 13:42:00,
2013-05-19 09:43:00,55.3,54.2,30.27,SSE,147,0.0,6.0,96,0.02,,,0.09,VWS V14.01,2013-05-19 13:43:00,
2013-05-19 09:44:00,55.3,54.2,30.27,SSE,147,0.0,6.0,96,0.02,,,0.09,VWS V14.01,2013-05-19 13:44:00,
2013-05-19 09:45:00,55.3,54.2,30.27,SSE,147,2.0,6.0,96,0.02,,,0.09,VWS V14.01,2013-05-19 13:45:00,
2013-05-19 09:46:00,55.3,54.2,30.27,SE,141,2.0,6.0,96,0.02,,,0.09,VWS V14.01,2013-05-19 13:46:00,
2013-05-19 09:47:00,55.4,54.3,30.27,South,177,0.0,6.0,96,0.02,,,0.09,VWS V14.01,2013-05-19 13:47:00,
2013-05-19 09:48:00,55.4,54.3,30.27,South,177,2.0,6.0,96,0.02,,,0.09,VWS V14.01,2013-05-19 13:48:00,
2013-05-19 09:49:00,55.4,54.3,30.27,SSE,163,0.0,6.0,96,0.02,,,0.09,VWS V14.01,2013-05-19 13:49:00,
2013-05-19 09:50:00,55.4,54.3,30.27,SSE,163,0.0,6.0,96,0.02,,,0.09,VWS V14.01,2013-05-19 13:50:00,
2013-05-19 09:51:00,55.4,54.3,30.27,SE,136,0.0,2.0,96,0.02,,,0.09,VWS V14.01,2013-05-19 13:51:00,
2013-05-19 09:52:00,55.5,54.4,30.27,SE,137,2.0,3.0,96,0.02,,,0.09,VWS V14.01,2013-05-19 13:52:00,
2013-05-19 09:53:00,55.5,54.4,30.27,SE,131,2.0,3.0,96,0.02,,,0.09,VWS V14.01,2013-05-19 13:53:00,
2013-05-19 09:54:00,55.5,54.4,30.27,SE,131,1.0,3.0,96,0.02,,,0.09,VWS V14.01,2013-05-19 13:54:00,
2013-05-19 09:55:00,55.5,54.4,30.27,SSE,164,1.0,3.0,96,0.02,,,0.09,VWS V14.01,2013-05-19 13:55:00,
2013-05-19 09:56:00,55.6,54.5,30.27,SE,138,2.0,3.0,96,0.02,,,0.09,VWS V14.01,2013-05-19 13:56:00,
2013-05-19 09:57:00,55.6,54.5,30.27,SE,138,1.0,3.0,96,0.03,,,0.10,VWS V14.01,2013-05-19 13:57:00,
2013-05-19 09:58:00,55.6,54.5,30.27,SE,128,0.0,3.0,96,0.03,,,0.10,VWS V14.01,2013-05-19 13:58:00,
2013-05-19 09:59:00,55.6,54.5,30.27,SE,128,0.0,3.0,96,0.03,,,0.10,VWS V14.01,2013-05-19 13:59:00,
2013-05-19 10:00:00,55.7,54.6,30.27,SE,140,0.0,3.0,96,0.03,,,0.10,VWS V14.01,2013-05-19 14:00:00,
2013-05-19 10:01:00,55.7,54.6,30.27,South,177,5.0,5.0,96,0.02,,,0.10,VWS V14.01,2013-05-19 14:01:00,
2013-05-19 10:02:00,55.7,54.6,30.27,SSE,154,0.0,7.0,96,0.02,,,0.10,VWS V14.01,2013-05-19 14:02:00,
2013-05-19 10:03:00,55.7,54.6,30.27,SSE,148,4.0,7.0,96,0.02,,,0.10,VWS V14.01,2013-05-19 14:03:00,
2013-05-19 10:04:00,55.7,54.6,30.27,NNE,21,1.0,7.0,96,0.02,,,0.10,VWS V14.01,2013-05-19 14:04:00,
2013-05-19 10:05:00,55.8,54.7,30.27,NE,44,0.0,7.0,96,0.02,,,0.10,VWS V14.01,2013-05-19 14:05:00,
2013-05-19 10:06:00,55.8,54.7,30.27,NE,44,0.0,7.0,96,0.02,,,0.10,VWS V14.01,2013-05-19 14:06:00,
2013-05-19 10:07:00,55.8,54.7,30.27,South,178,3.0,7.0,96,0.02,,,0.10,VWS V14.01,2013-05-19 14:07:00,
2013-05-19 10:08:00,55.9,54.8,30.27,South,178,0.0,7.0,96,0.02,,,0.10,VWS V14.01,2013-05-19 14:08:00,
2013-05-19 10:09:00,55.9,54.8,30.27,South,178,0.0,7.0,96,0.02,,,0.10,VWS V14.01,2013-05-19 14:09:00,
2013-05-19 10:10:00,55.9,54.8,30.27,South,178,2.0,7.0,96,0.02,,,0.10,VWS V14.01,2013-05-19 14:10:00,
2013-05-19 10:11:00,55.9,54.8,30.27,South,178,1.0,1.0,96,0.02,,,0.10,VWS V14.01,2013-05-19 14:11:00,
2013-05-19 10:12:00,56.0,54.9,30.27,South,178,0.0,2.0,96,0.02,,,0.10,VWS V14.01,2013-05-19 14:12:00,
2013-05-19 10:13:00,56.0,54.9,30.27,ESE,103,0.0,3.0,96,0.02,,,0.10,VWS V14.01,2013-05-19 14:13:00,
2013-05-19 10:14:00,56.0,54.9,30.27,SSW,203,0.0,5.0,96,0.02,,,0.10,VWS V14.01,2013-05-19 14:14:00,
2013-05-19 10:15:00,56.0,54.9,30.27,SE,132,8.0,11.0,96,0.02,,,0.10,VWS V14.01,2013-05-19 14:15:00,
2013-05-19 10:16:00,56.0,54.9,30.27,SE,126,0.0,11.0,96,0.02,,,0.10,VWS V14.01,2013-05-19 14:16:00,
2013-05-19 10:17:00,56.0,54.9,30.27,SE,126,0.0,11.0,96,0.02,,,0.10,VWS V14.01,2013-05-19 14:17:00,
2013-05-19 10:18:00,56.0,54.9,30.27,SSE,160,1.0,11.0,96,0.02,,,0.10,VWS V14.01,2013-05-19 14:18:00,
2013-05-19 10:19:00,56.0,54.9,30.27,SSE,160,2.0,11.0,96,0.03,,,0.11,VWS V14.01,2013-05-19 14:19:00,
2013-05-19 10:20:00,56.0,54.9,30.27,ESE,117,0.0,11.0,96,0.03,,,0.11,VWS V14.01,2013-05-19 14:20:00,
2013-05-19 10:21:00,56.1,55.0,30.27,ESE,117,0.0,1.0,96,0.03,,,0.11,VWS V14.01,2013-05-19 14:21:00,
2013-05-19 10:22:00,56.1,55.0,30.27,ESE,120,1.0,3.0,96,0.03,,,0.11,VWS V14.01,2013-05-19 14:22:00,
2013-05-19 10:23:00,56.1,55.0,30.27,SE,134,0.0,3.0,96,0.03,,,0.11,VWS V14.01,2013-05-19 14:23:00,
2013-05-19 10:24:00,56.1,55.0,30.27,East,101,1.0,4.0,96,0.03,,,0.11,VWS V14.01,2013-05-19 14:24:00,
2013-05-19 10:25:00,56.1,55.0,30.27,ESE,103,0.0,5.0,96,0.03,,,0.11,VWS V14.01,2013-05-19 14:25:00,
2013-05-19 10:26:00,56.2,55.1,30.27,SE,142,4.0,5.0,96,0.03,,,0.11,VWS V14.01,2013-05-19 14:26:00,
2013-05-19 10:27:00,56.2,55.1,30.27,SSE,159,2.0,5.0,96,0.03,,,0.11,VWS V14.01,2013-05-19 14:27:00,
2013-05-19 10:28:00,56.2,55.1,30.27,SSE,159,0.0,5.0,96,0.03,,,0.11,VWS V14.01,2013-05-19 14:28:00,
2013-05-19 10:29:00,56.2,55.1,30.27,SSW,202,2.0,5.0,96,0.03,,,0.11,VWS V14.01,2013-05-19 14:29:00,
2013-05-19 10:30:00,56.1,55.0,30.27,SSW,200,0.0,5.0,96,0.03,,,0.11,VWS V14.01,2013-05-19 14:30:00,
2013-05-19 10:31:00,56.2,55.1,30.27,SSW,194,2.0,2.0,96,0.02,,,0.11,VWS V14.01,2013-05-19 14:31:00,
2013-05-19 10:32:00,56.2,55.1,30.27,SSW,195,0.0,2.0,96,0.02,,,0.11,VWS V14.01,2013-05-19 14:32:00,
2013-05-19 10:33:00,56.2,55.1,30.27,SSW,194,0.0,2.0,96,0.02,,,0.11,VWS V14.01,2013-05-19 14:33:00,
2013-05-19 10:34:00,56.2,55.1,30.27,SSW,194,0.0,2.0,96,0.02,,,0.11,VWS V14.01,2013-05-19 14:34:00,
2013-05-19 10:35:00,56.2,55.1,30.27,SSW,194,0.0,2.0,96,0.02,,,0.11,VWS V14.01,2013-05-19 14:35:00,
2013-05-19 10:36:00,56.3,55.2,30.27,SSE,163,0.0,4.0,96,0.02,,,0.11,VWS V14.01,2013-05-19 14:36:00,
2013-05-19 10:37:00,56.3,55.2,30.27,SSE,163,0.0,4.0,96,0.02,,,0.11,VWS V14.01,2013-05-19 14:37:00,
2013-05-19 10:38:00,56.3,55.2,30.27,SSE,164,0.0,4.0,96,0.02,,,0.11,VWS V14.01,2013-05-19 14:38:00,
2013-05-19 10:39:00,56.3,55.2,30.27,SSE,164,3.0,4.0,96,0.02,,,0.11,VWS V14.01,2013-05-19 14:39:00,
2013-05-19 10:40:00,56.3,55.2,30.27,SSE,164,0.0,4.0,96,0.02,,,0.11,VWS V14.01,2013-05-19 14:40:00,
2013-05-19 10:41:00,56.4,55.3,30.27,SSE,164,0.0,2.0,96,0.02,,,0.11,VWS V14.01,2013-05-19 14:41:00,
2013-05-19 10:42:00,56.4,55.3,30.27,SSE,164,3.0,3.0,96,0.02,,,0.11,VWS V14.01,2013-05-19 14:42:00,
2013-05-19 10:43:00,56.4,55.3,30.27,SE,135,0.0,5.0,96,0.02,,,0.11,VWS V14.01,2013-05-19 14:43:00,
2013-05-19 10:44:00,56.4,55.3,30.27,SE,135,2.0,5.0,96,0.02,,,0.11,VWS V14.01,2013-05-19 14:44:00,
2013-05-19 10:45:00,56.4,55.3,30.27,SE,135,0.0,5.0,96,0.02,,,0.11,VWS V14.01,2013-05-19 14:45:00,
2013-05-19 10:46:00,56.4,55.3,30.27,SE,135,0.0,5.0,96,0.02,,,0.11,VWS V14.01,2013-05-19 14:46:00,
2013-05-19 10:47:00,56.4,55.3,30.27,SE,135,0.0,5.0,96,0.02,,,0.11,VWS V14.01,2013-05-19 14:47:00,
2013-05-19 10:48:00,56.5,55.4,30.27,SE,131,0.0,5.0,96,0.02,,,0.11,VWS V14.01,2013-05-19 14:48:00,
2013-05-19 10:49:00,56.5,55.4,30.27,SSE,159,3.0,6.0,96,0.02,,,0.11,VWS V14.01,2013-05-19 14:49:00,
2013-05-19 10:50:00,56.5,55.4,30.27,SSE,162,2.0,8.0,96,0.02,,,0.11,VWS V14.01,2013-05-19 14:50:00,
2013-05-19 10:51:00,56.5,55.4,30.27,SSE,161,1.0,3.0,96,0.02,,,0.11,VWS V14.01,2013-05-19 14:51:00,
2013-05-19 10:52:00,56.5,55.4,30.27,NE,42,0.0,5.0,96,0.02,,,0.11,VWS V14.01,2013-05-19 14:52:00,
2013-05-19 10:53:00,56.5,55.4,30.27,SE,144,1.0,5.0,96,0.02,,,0.11,VWS V14.01,2013-05-19 14:53:00,
2013-05-19 10:54:00,56.5,55.4,30.27,SSE,156,3.0,5.0,96,0.02,,,0.11,VWS V14.01,2013-05-19 14:54:00,
2013-05-19 10:55:00,56.6,55.5,30.27,SSE,156,0.0,5.0,96,0.02,,,0.11,VWS V14.01,2013-05-19 14:55:00,
2013-05-19 10:56:00,56.6,55.5,30.27,East,91,5.0,6.0,96,0.02,,,0.11,VWS V14.01,2013-05-19 14:56:00,
2013-05-19 10:57:00,56.6,55.5,30.27,SSE,152,1.0,7.0,96,0.02,,,0.11,VWS V14.01,2013-05-19 14:57:00,
2013-05-19 10:58:00,56.6,55.5,30.27,SSE,152,2.0,7.0,96,0.02,,,0.11,VWS V14.01,2013-05-19 14:58:00,
2013-05-19 10:59:00,56.6,55.5,30.27,SE,143,0.0,7.0,96,0.02,,,0.11,VWS V14.01,2013-05-19 14:59:00,
2013-05-19 11:00:00,56.7,55.6,30.27,SE,143,0.0,7.0,96,0.02,,,0.11,VWS V14.01,2013-05-19 15:00:00,
2013-05-19 11:01:00,56.7,55.6,30.27,SE,143,2.0,2.0,96,0.01,,,0.11,VWS V14.01,2013-05-19 15:01:00,
2013-05-19 11:02:00,56.7,55.6,30.27,SE,142,3.0,5.0,96,0.01,,,0.11,VWS V14.01,2013-05-19 15:02:00,
2013-05-19 11:03:00,56.7,55.6,30.27,SE,142,0.0,5.0,96,0.01,,,0.11,VWS V14.01,2013-05-19 15:03:00,
2013-05-19 11:04:00,56.8,55.7,30.27,SE,142,0.0,5.0,96,0.01,,,0.11,VWS V14.01,2013-05-19 15:04:00,
2013-05-19 11:05:00,56.8,55.7,30.27,ESE,109,0.0,5.0,96,0.01,,,0.11,VWS V14.01,2013-05-19 15:05:00,
2013-05-19 11:06:00,56.8,55.7,30.27,ESE,118,1.0,5.0,96,0.01,,,0.11,VWS V14.01,2013-05-19 15:06:00,
2013-05-19 11:07:00,56.8,55.7,30.27,SSE,147,5.0,8.0,96,0.01,,,0.11,VWS V14.01,2013-05-19 15:07:00,
2013-05-19 11:08:00,56.8,55.7,30.27,SSE,156,5.0,11.0,96,0.01,,,0.11,VWS V14.01,2013-05-19 15:08:00,
2013-05-19 11:09:00,56.8,55.7,30.27,SSE,152,0.0,11.0,96,0.01,,,0.11,VWS V14.01,2013-05-19 15:09:00,
2013-05-19 11:10:00,56.8,55.7,30.27,SE,142,1.0,11.0,96,0.01,,,0.11,VWS V14.01,2013-05-19 15:10:00,
2013-05-19 11:11:00,56.9,55.8,30.27,East,85,0.0,0.0,96,0.01,,,0.11,VWS V14.01,2013-05-19 15:11:00,
2013-05-19 11:12:00,56.9,55.8,30.27,East,85,0.0,0.0,96,0.01,,,0.11,VWS V14.01,2013-05-19 15:12:00,
2013-05-19 11:13:00,56.9,55.8,30.27,East,85,0.0,0.0,96,0.01,,,0.11,VWS V14.01,2013-05-19 15:13:00,
2013-05-19 11:14:00,56.9,55.8,30.27,East,87,2.0,2.0,96,0.01,,,0.11,VWS V14.01,2013-05-19 15:14:00,
2013-05-19 11:15:00,56.9,55.8,30.27,South,169,2.0,4.0,96,0.01,,,0.11,VWS V14.01,2013-05-19 15:15:00,
2013-05-19 11:16:00,57.0,55.9,30.27,ESE,105,0.0,6.0,96,0.01,,,0.11,VWS V14.01,2013-05-19 15:16:00,
2013-05-19 11:17:00,57.0,55.9,30.27,ESE,109,0.0,6.0,96,0.01,,,0.11,VWS V14.01,2013-05-19 15:17:00,
2013-05-19 11:18:00,57.0,55.9,30.27,SSE,154,5.0,7.0,96,0.01,,,0.11,VWS V14.01,2013-05-19 15:18:00,
2013-05-19 11:19:00,57.0,55.9,30.27,SE,146,2.0,7.0,96,0.01,,,0.11,VWS V14.01,2013-05-19 15:19:00,
2013-05-19 11:20:00,57.0,55.9,30.27,SE,146,0.0,7.0,96,0.01,,,0.11,VWS V14.01,2013-05-19 15:20:00,
2013-05-19 11:21:00,57.0,55.9,30.27,SSE,147,0.0,4.0,96,0.00,,,0.11,VWS V14.01,2013-05-19 15:21:00,
2013-05-19 11:22:00,57.0,55.9,30.27,South,171,6.0,6.0,96,0.00,,,0.11,VWS V14.01,2013-05-19 15:22:00,
2013-05-19 11:23:00,57.0,55.9,30.27,South,175,0.0,6.0,96,0.00,,,0.11,VWS V14.01,2013-05-19 15:23:00,
2013-05-19 11:24:00,57.0,55.9,30.27,South,175,1.0,6.0,96,0.00,,,0.11,VWS V14.01,2013-05-19 15:24:00,
2013-05-19 11:25:00,57.1,56.0,30.27,South,174,2.0,6.0,96,0.00,,,0.11,VWS V14.01,2013-05-19 15:25:00,
2013-05-19 11:26:00,57.1,56.0,30.27,SE,128,3.0,6.0,96,0.00,,,0.11,VWS V14.01,2013-05-19 15:26:00,
2013-05-19 11:27:00,57.1,56.0,30.27,SSE,159,0.0,6.0,96,0.00,,,0.11,VWS V14.01,2013-05-19 15:27:00,
2013-05-19 11:28:00,57.1,56.0,30.27,SSE,155,4.0,6.0,96,0.00,,,0.11,VWS V14.01,2013-05-19 15:28:00,
2013-05-19 11:29:00,57.1,56.0,30.27,East,87,1.0,6.0,96,0.00,,,0.11,VWS V14.01,2013-05-19 15:29:00,
2013-05-19 11:30:00,57.2,56.1,30.26,East,87,0.0,6.0,96,0.00,,,0.11,VWS V14.01,2013-05-19 15:30:00,
2013-05-19 11:31:00,57.2,56.1,30.26,SSE,156,0.0,4.0,96,0.00,,,0.11,VWS V14.01,2013-05-19 15:31:00,
2013-05-19 11:32:00,57.2,56.1,30.26,SSE,154,6.0,6.0,96,0.00,,,0.11,VWS V14.01,2013-05-19 15:32:00,
2013-05-19 11:33:00,57.2,56.1,30.26,SSE,151,2.0,9.0,96,0.00,,,0.11,VWS V14.01,2013-05-19 15:33:00,
2013-05-19 11:34:00,57.2,56.1,30.26,SSE,151,1.0,9.0,96,0.00,,,0.11,VWS V14.01,2013-05-19 15:34:00,
2013-05-19 11:35:00,57.2,56.1,30.26,South,169,1.0,9.0,96,0.00,,,0.11,VWS V14.01,2013-05-19 15:35:00,
2013-05-19 11:36:00,57.2,56.1,30.26,South,169,0.0,9.0,96,0.00,,,0.11,VWS V14.01,2013-05-19 15:36:00,
2013-05-19 11:37:00,57.3,56.2,30.26,SE,126,0.0,9.0,96,0.00,,,0.11,VWS V14.01,2013-05-19 15:37:00,
2013-05-19 11:38:00,57.3,56.2,30.26,SSE,162,6.0,9.0,96,0.00,,,0.11,VWS V14.01,2013-05-19 15:38:00,
2013-05-19 11:39:00,57.3,56.2,30.26,SSE,163,0.0,9.0,96,0.00,,,0.11,VWS V14.01,2013-05-19 15:39:00,
2013-05-19 11:40:00,57.4,56.3,30.26,South,170,4.0,9.0,96,0.00,,,0.11,VWS V14.01,2013-05-19 15:40:00,
2013-05-19 11:41:00,57.4,56.3,30.26,SSE,166,4.0,6.0,96,0.00,,,0.11,VWS V14.01,2013-05-19 15:41:00,
2013-05-19 11:42:00,57.4,56.3,30.26,SE,145,0.0,7.0,96,0.00,,,0.11,VWS V14.01,2013-05-19 15:42:00,
2013-05-19 11:43:00,57.4,56.3,30.26,SSE,150,3.0,7.0,96,0.00,,,0.11,VWS V14.01,2013-05-19 15:43:00,
2013-05-19 11:44:00,57.4,56.3,30.26,SSE,150,0.0,7.0,96,0.00,,,0.11,VWS V14.01,2013-05-19 15:44:00,
2013-05-19 11:45:00,57.4,56.3,30.26,SSE,150,1.0,7.0,96,0.00,,,0.11,VWS V14.01,2013-05-19 15:45:00,
2013-05-19 11:46:00,57.4,56.3,30.26,South,176,4.0,9.0,96,0.00,,,0.11,VWS V14.01,2013-05-19 15:46:00,
2013-05-19 11:47:00,57.4,56.3,30.26,SSE,165,2.0,9.0,96,0.00,,,0.11,VWS V14.01,2013-05-19 15:47:00,
2013-05-19 11:48:00,57.4,56.3,30.26,SSE,165,0.0,9.0,96,0.00,,,0.11,VWS V14.01,2013-05-19 15:48:00,
2013-05-19 11:49:00,57.4,56.3,30.26,ESE,118,0.0,9.0,96,0.00,,,0.11,VWS V14.01,2013-05-19 15:49:00,
2013-05-19 11:50:00,57.4,56.3,30.26,ESE,119,2.0,9.0,96,0.00,,,0.11,VWS V14.01,2013-05-19 15:50:00,
2013-05-19 11:51:00,57.4,56.3,30.26,South,170,2.0,5.0,96,0.00,,,0.11,VWS V14.01,2013-05-19 15:51:00,
2013-05-19 11:52:00,57.5,56.4,30.26,South,170,0.0,5.0,96,0.00,,,0.11,VWS V14.01,2013-05-19 15:52:00,
2013-05-19 11:53:00,57.5,56.4,30.26,South,169,0.0,5.0,96,0.00,,,0.11,VWS V14.01,2013-05-19 15:53:00,
2013-05-19 11:54:00,57.5,56.4,30.26,South,169,1.0,5.0,96,0.00,,,0.11,VWS V14.01,2013-05-19 15:54:00,
2013-05-19 11:55:00,57.6,56.5,30.26,SSE,168,1.0,6.0,96,0.00,,,0.11,VWS V14.01,2013-05-19 15:55:00,
2013-05-19 11:56:00,57.6,56.5,30.26,ESE,121,1.0,6.0,96,0.00,,,0.11,VWS V14.01,2013-05-19 15:56:00,
2013-05-19 11:57:00,57.7,56.6,30.26,ESE,117,4.0,6.0,96,0.00,,,0.11,VWS V14.01,2013-05-19 15:57:00,
2013-05-19 11:58:00,57.7,56.6,30.26,East,97,3.0,8.0,96,0.00,,,0.11,VWS V14.01,2013-05-19 15:58:00,
2013-05-19 11:59:00,57.7,56.6,30.26,SE,127,2.0,9.0,96,0.00,,,0.11,VWS V14.01,2013-05-19 15:59:00,
2013-05-19 12:00:00,57.8,56.7,30.25,SE,146,2.0,9.0,96,0.00,,,0.11,VWS V14.01,2013-05-19 16:00:00,
2013-05-19 12:01:00,57.8,56.7,30.25,SE,145,0.0,5.0,96,0.00,,,0.11,VWS V14.01,2013-05-19 16:01:00,
2013-05-19 12:02:00,57.8,56.7,30.25,SE,145,6.0,7.0,96,0.00,,,0.11,VWS V14.01,2013-05-19 16:02:00,
2013-05-19 12:03:00,57.8,56.7,30.25,South,170,5.0,7.0,96,0.00,,,0.11,VWS V14.01,2013-05-19 16:03:00,
2013-05-19 12:04:00,57.9,56.8,30.25,NE,45,1.0,7.0,96,0.00,,,0.11,VWS V14.01,2013-05-19 16:04:00,
2013-05-19 12:05:00,57.9,56.8,30.25,NE,54,0.0,7.0,96,0.00,,,0.11,VWS V14.01,2013-05-19 16:05:00,
2013-05-19 12:06:00,57.9,56.8,30.25,NE,47,3.0,7.0,96,0.00,,,0.11,VWS V14.01,2013-05-19 16:06:00,
2013-05-19 12:07:00,57.9,56.8,30.25,SSE,168,4.0,7.0,96,0.00,,,0.11,VWS V14.01,2013-05-19 16:07:00,
2013-05-19 12:08:00,58.0,56.9,30.25,East,81,1.0,7.0,96,0.00,,,0.11,VWS V14.01,2013-05-19 16:08:00,
2013-05-19 12:09:00,58.0,56.9,30.25,SE,134,0.0,7.0,96,0.00,,,0.11,VWS V14.01,2013-05-19 16:09:00,
2013-05-19 12:10:00,58.0,56.9,30.25,SE,146,6.0,11.0,96,0.00,,,0.11,VWS V14.01,2013-05-19 16:10:00,
2013-05-19 12:11:00,58.0,56.9,30.25,SSE,167,2.0,8.0,96,0.00,,,0.11,VWS V14.01,2013-05-19 16:11:00,
2013-05-19 12:12:00,58.0,56.9,30.25,NNE,26,2.0,8.0,96,0.00,,,0.11,VWS V14.01,2013-05-19 16:12:00,
2013-05-19 12:13:00,58.0,56.9,30.25,SE,129,3.0,8.0,96,0.00,,,0.11,VWS V14.01,2013-05-19 16:13:00,
2013-05-19 12:14:00,58.0,56.9,30.25,NNE,24,0.0,8.0,96,0.00,,,0.11,VWS V14.01,2013-05-19 16:14:00,
2013-05-19 12:15:00,58.0,56.9,30.25,NNE,24,0.0,8.0,96,0.00,,,0.11,VWS V14.01,2013-05-19 16:15:00,
2013-05-19 12:16:00,58.1,57.0,30.25,SSE,161,4.0,8.0,96,0.00,,,0.11,VWS V14.01,2013-05-19 16:16:00,
2013-05-19 12:17:00,58.1,57.0,30.25,SSE,159,4.0,8.0,96,0.00,,,0.11,VWS V14.01,2013-05-19 16:17:00,
2013-05-19 12:18:00,58.2,57.1,30.25,SE,132,0.0,8.0,96,0.00,,,0.11,VWS V14.01,2013-05-19 16:18:00,
2013-05-19 12:19:00,58.2,57.1,30.25,SSW,207,4.0,8.0,96,0.00,,,0.11,VWS V14.01,2013-05-19 16:19:00,
2013-05-19 12:20:00,58.2,57.1,30.25,South,175,0.0,8.0,96,0.00,,,0.11,VWS V14.01,2013-05-19 16:20:00,
2013-05-19 12:21:00,58.2,57.1,30.25,SSE,154,6.0,9.0,96,0.00,,,0.11,VWS V14.01,2013-05-19 16:21:00,
2013-05-19 12:22:00,58.3,57.2,30.25,SE,144,5.0,9.0,96,0.00,,,0.11,VWS V14.01,2013-05-19 16:22:00,
2013-05-19 12:23:00,58.2,56.8,30.25,ENE,58,3.0,9.0,95,0.00,,,0.11,VWS V14.01,2013-05-19 16:23:00,
2013-05-19 12:24:00,58.3,56.9,30.25,East,81,5.0,9.0,95,0.00,,,0.11,VWS V14.01,2013-05-19 16:24:00,
2013-05-19 12:25:00,58.3,56.9,30.25,ESE,104,3.0,9.0,95,0.00,,,0.11,VWS V14.01,2013-05-19 16:25:00,
2013-05-19 12:26:00,58.3,56.9,30.25,SSE,155,3.0,9.0,95,0.00,,,0.11,VWS V14.01,2013-05-19 16:26:00,
2013-05-19 12:27:00,58.4,57.0,30.25,ESE,118,5.0,13.0,95,0.00,,,0.11,VWS V14.01,2013-05-19 16:27:00,
2013-05-19 12:28:00,58.4,57.0,30.25,SSE,165,0.0,13.0,95,0.00,,,0.11,VWS V14.01,2013-05-19 16:28:00,
2013-05-19 12:29:00,58.4,57.0,30.25,SSE,148,3.0,13.0,95,0.00,,,0.11,VWS V14.01,2013-05-19 16:29:00,
2013-05-19 12:30:00,58.3,56.9,30.25,SSE,152,4.0,13.0,95,0.00,,,0.11,VWS V14.01,2013-05-19 16:30:00,
2013-05-19 12:31:00,58.3,56.9,30.25,NE,53,2.0,2.0,95,0.00,,,0.11,VWS V14.01,2013-05-19 16:31:00,
2013-05-19 12:32:00,58.3,56.9,30.25,NE,49,2.0,4.0,95,0.00,,,0.11,VWS V14.01,2013-05-19 16:32:00,
2013-05-19 12:33:00,58.4,57.0,30.25,NE,49,0.0,4.0,95,0.00,,,0.11,VWS V14.01,2013-05-19 16:33:00,
2013-05-19 12:34:00,58.4,57.0,30.25,NE,55,0.0,4.0,95,0.00,,,0.11,VWS V14.01,2013-05-19 16:34:00,
2013-05-19 12:35:00,58.5,57.1,30.25,NE,55,0.0,4.0,95,0.00,,,0.11,VWS V14.01,2013-05-19 16:35:00,
2013-05-19 12:36:00,58.5,57.1,30.25,NE,56,0.0,4.0,95,0.00,,,0.11,VWS V14.01,2013-05-19 16:36:00,
2013-05-19 12:37:00,58.6,57.5,30.25,East,86,3.0,4.0,96,0.00,,,0.11,VWS V14.01,2013-05-19 16:37:00,
2013-05-19 12:38:00,58.6,57.5,30.25,East,93,2.0,5.0,96,0.00,,,0.11,VWS V14.01,2013-05-19 16:38:00,
2013-05-19 12:39:00,58.6,57.5,30.25,ESE,119,2.0,5.0,96,0.00,,,0.11,VWS V14.01,2013-05-19 16:39:00,
2013-05-19 12:40:00,58.7,57.3,30.25,SE,125,3.0,5.0,95,0.00,,,0.11,VWS V14.01,2013-05-19 16:40:00,
2013-05-19 12:41:00,58.7,57.3,30.25,SSE,156,5.0,10.0,95,0.00,,,0.11,VWS V14.01,2013-05-19 16:41:00,
2013-05-19 12:42:00,58.7,57.3,30.25,East,96,2.0,10.0,95,0.00,,,0.11,VWS V14.01,2013-05-19 16:42:00,
2013-05-19 12:43:00,58.7,57.3,30.25,NNE,17,3.0,10.0,95,0.00,,,0.11,VWS V14.01,2013-05-19 16:43:00,
2013-05-19 12:44:00,58.7,57.3,30.25,NE,44,2.0,10.0,95,0.00,,,0.11,VWS V14.01,2013-05-19 16:44:00,
2013-05-19 12:45:00,58.7,57.3,30.24,NNE,19,6.0,10.0,95,0.00,,,0.11,VWS V14.01,2013-05-19 16:45:00,
2013-05-19 12:46:00,58.7,57.3,30.24,SSE,152,4.0,10.0,95,0.00,,,0.11,VWS V14.01,2013-05-19 16:46:00,
2013-05-19 12:47:00,58.7,57.3,30.24,SSE,164,1.0,10.0,95,0.00,,,0.11,VWS V14.01,2013-05-19 16:47:00,
2013-05-19 12:48:00,58.7,57.3,30.24,SSE,164,0.0,10.0,95,0.00,,,0.11,VWS V14.01,2013-05-19 16:48:00,
2013-05-19 12:49:00,58.7,57.3,30.24,ESE,107,1.0,10.0,95,0.00,,,0.11,VWS V14.01,2013-05-19 16:49:00,
2013-05-19 12:50:00,58.7,57.3,30.24,ESE,106,3.0,10.0,95,0.00,,,0.11,VWS V14.01,2013-05-19 16:50:00,
2013-05-19 12:51:00,58.7,57.3,30.24,SSE,159,1.0,7.0,95,0.00,,,0.11,VWS V14.01,2013-05-19 16:51:00,
2013-05-19 12:52:00,58.7,57.3,30.24,SSE,165,1.0,7.0,95,0.00,,,0.11,VWS V14.01,2013-05-19 16:52:00,
2013-05-19 12:53:00,58.7,57.3,30.24,SSE,152,13.0,13.0,95,0.00,,,0.11,VWS V14.01,2013-05-19 16:53:00,
2013-05-19 12:54:00,58.6,57.2,30.24,SSE,157,5.0,13.0,95,0.00,,,0.11,VWS V14.01,2013-05-19 16:54:00,
2013-05-19 12:55:00,58.6,57.2,30.24,East,94,2.0,13.0,95,0.00,,,0.11,VWS V14.01,2013-05-19 16:55:00,
2013-05-19 12:56:00,58.6,57.2,30.24,SSE,148,7.0,13.0,95,0.00,,,0.11,VWS V14.01,2013-05-19 16:56:00,
2013-05-19 12:57:00,58.5,57.1,30.24,East,96,0.0,13.0,95,0.00,,,0.11,VWS V14.01,2013-05-19 16:57:00,
2013-05-19 12:58:00,58.5,57.1,30.24,NE,39,2.0,13.0,95,0.00,,,0.11,VWS V14.01,2013-05-19 16:58:00,
2013-05-19 12:59:00,58.5,57.1,30.24,ESE,121,1.0,13.0,95,0.00,,,0.11,VWS V14.01,2013-05-19 16:59:00,
2013-05-19 13:00:00,58.5,57.1,30.24,SSE,152,5.0,13.0,95,0.00,,,0.11,VWS V14.01,2013-05-19 17:00:00,
2013-05-19 13:01:00,58.5,57.1,30.24,East,94,1.0,6.0,95,0.00,,,0.11,VWS V14.01,2013-05-19 17:01:00,
2013-05-19 13:02:00,58.5,57.1,30.24,NE,38,2.0,6.0,95,0.00,,,0.11,VWS V14.01,2013-05-19 17:02:00,
2013-05-19 13:03:00,58.5,57.1,30.24,NE,36,0.0,6.0,95,0.00,,,0.11,VWS V14.01,2013-05-19 17:03:00,
2013-05-19 13:04:00,58.5,57.1,30.24,SSE,152,4.0,6.0,95,0.00,,,0.11,VWS V14.01,2013-05-19 17:04:00,
2013-05-19 13:05:00,58.5,57.1,30.24,SE,142,2.0,7.0,95,0.00,,,0.11,VWS V14.01,2013-05-19 17:05:00,
2013-05-19 13:06:00,58.5,57.1,30.24,ESE,112,2.0,7.0,95,0.00,,,0.11,VWS V14.01,2013-05-19 17:06:00,
2013-05-19 13:07:00,58.5,57.1,30.24,SSE,149,3.0,7.0,95,0.00,,,0.11,VWS V14.01,2013-05-19 17:07:00,
2013-05-19 13:08:00,58.5,57.1,30.24,SSE,154,0.0,7.0,95,0.00,,,0.11,VWS V14.01,2013-05-19 17:08:00,
2013-05-19 13:09:00,58.4,57.0,30.24,South,175,5.0,9.0,95,0.00,,,0.11,VWS V14.01,2013-05-19 17:09:00,
2013-05-19 13:10:00,58.3,56.6,30.24,SSE,167,5.0,9.0,94,0.00,,,0.11,VWS V14.01,2013-05-19 17:10:00,
2013-05-19 13:11:00,58.2,56.5,30.24,SE,126,1.0,1.0,94,0.00,,,0.11,VWS V14.01,2013-05-19 17:11:00,
2013-05-19 13:12:00,58.2,56.5,30.24,SE,126,1.0,1.0,94,0.00,,,0.11,VWS V14.01,2013-05-19 17:12:00,
2013-05-19 13:13:00,58.2,56.5,30.24,ENE,61,4.0,4.0,94,0.00,,,0.11,VWS V14.01,2013-05-19 17:13:00,
2013-05-19 13:14:00,58.3,56.9,30.24,East,80,0.0,4.0,95,0.00,,,0.11,VWS V14.01,2013-05-19 17:14:00,
2013-05-19 13:15:00,58.2,56.5,30.24,ENE,61,1.0,4.0,94,0.00,,,0.11,VWS V14.01,2013-05-19 17:15:00,
2013-05-19 13:16:00,58.2,56.5,30.24,NE,56,2.0,4.0,94,0.00,,,0.11,VWS V14.01,2013-05-19 17:16:00,
2013-05-19 13:17:00,58.1,56.4,30.24,NNE,30,1.0,4.0,94,0.00,,,0.11,VWS V14.01,2013-05-19 17:17:00,
2013-05-19 13:18:00,58.1,56.4,30.24,NNE,30,0.0,4.0,94,0.00,,,0.11,VWS V14.01,2013-05-19 17:18:00,
2013-05-19 13:19:00,58.1,56.4,30.24,SE,138,4.0,5.0,94,0.00,,,0.11,VWS V14.01,2013-05-19 17:19:00,
2013-05-19 13:20:00,58.1,56.4,30.24,SE,140,0.0,5.0,94,0.00,,,0.11,VWS V14.01,2013-05-19 17:20:00,
2013-05-19 13:21:00,58.1,56.4,30.24,SE,139,1.0,1.0,94,0.00,,,0.11,VWS V14.01,2013-05-19 17:21:00,
2013-05-19 13:22:00,58.1,56.4,30.24,NNE,28,0.0,5.0,94,0.00,,,0.11,VWS V14.01,2013-05-19 17:22:00,
2013-05-19 13:23:00,58.1,56.4,30.24,NNE,28,0.0,5.0,94,0.00,,,0.11,VWS V14.01,2013-05-19 17:23:00,
2013-05-19 13:24:00,58.1,56.4,30.24,NNE,28,0.0,5.0,94,0.00,,,0.11,VWS V14.01,2013-05-19 17:24:00,
2013-05-19 13:25:00,58.1,56.4,30.24,ENE,61,1.0,5.0,94,0.00,,,0.11,VWS V14.01,2013-05-19 17:25:00,
2013-05-19 13:26:00,58.1,56.4,30.24,East,90,0.0,5.0,94,0.00,,,0.11,VWS V14.01,2013-05-19 17:26:00,
2013-05-19 13:27:00,58.1,56.4,30.24,ENE,74,0.0,5.0,94,0.00,,,0.11,VWS V14.01,2013-05-19 17:27:00,
2013-05-19 13:28:00,58.1,56.4,30.24,ENE,75,0.0,5.0,94,0.00,,,0.11,VWS V14.01,2013-05-19 17:28:00,
2013-05-19 13:29:00,58.1,56.4,30.24,SSE,158,5.0,5.0,94,0.00,,,0.11,VWS V14.01,2013-05-19 17:29:00,
2013-05-19 13:30:00,58.1,56.4,30.24,NE,36,4.0,5.0,94,0.00,,,0.11,VWS V14.01,2013-05-19 17:30:00,
2013-05-19 13:31:00,58.1,56.4,30.24,NNW,333,0.0,3.0,94,0.00,,,0.11,VWS V14.01,2013-05-19 17:31:00,
2013-05-19 13:32:00,58.1,56.4,30.24,NNW,333,0.0,3.0,94,0.00,,,0.11,VWS V14.01,2013-05-19 17:32:00,
2013-05-19 13:33:00,58.1,56.4,30.24,South,182,3.0,6.0,94,0.00,,,0.11,VWS V14.01,2013-05-19 17:33:00,
2013-05-19 13:34:00,58.1,56.4,30.24,South,182,0.0,6.0,94,0.00,,,0.11,VWS V14.01,2013-05-19 17:34:00,
2013-05-19 13:35:00,58.1,56.4,30.24,SE,125,2.0,7.0,94,0.00,,,0.11,VWS V14.01,2013-05-19 17:35:00,
2013-05-19 13:36:00,58.2,56.5,30.24,SSE,159,6.0,7.0,94,0.00,,,0.11,VWS V14.01,2013-05-19 17:36:00,
2013-05-19 13:37:00,58.1,56.4,30.24,SSE,156,1.0,7.0,94,0.00,,,0.11,VWS V14.01,2013-05-19 17:37:00,
2013-05-19 13:38:00,58.1,56.4,30.24,WNW,299,2.0,7.0,94,0.00,,,0.11,VWS V14.01,2013-05-19 17:38:00,
2013-05-19 13:39:00,58.1,56.4,30.24,NE,38,5.0,7.0,94,0.00,,,0.11,VWS V14.01,2013-05-19 17:39:00,
2013-05-19 13:40:00,58.1,56.4,30.24,NNE,26,3.0,7.0,94,0.00,,,0.11,VWS V14.01,2013-05-19 17:40:00,
2013-05-19 13:41:00,58.1,56.4,30.24,NE,41,1.0,4.0,94,0.00,,,0.11,VWS V14.01,2013-05-19 17:41:00,
2013-05-19 13:42:00,58.1,56.4,30.24,ENE,66,0.0,4.0,94,0.00,,,0.11,VWS V14.01,2013-05-19 17:42:00,
2013-05-19 13:43:00,58.1,56.4,30.24,ENE,66,0.0,4.0,94,0.00,,,0.11,VWS V14.01,2013-05-19 17:43:00,
2013-05-19 13:44:00,58.2,56.5,30.24,ENE,69,1.0,4.0,94,0.00,,,0.11,VWS V14.01,2013-05-19 17:44:00,
2013-05-19 13:45:00,58.2,56.5,30.24,SE,138,0.0,4.0,94,0.00,,,0.11,VWS V14.01,2013-05-19 17:45:00,
2013-05-19 13:46:00,58.2,56.5,30.24,SE,128,0.0,4.0,94,0.00,,,0.11,VWS V14.01,2013-05-19 17:46:00,
2013-05-19 13:47:00,58.2,56.5,30.24,SSE,167,6.0,6.0,94,0.00,,,0.11,VWS V14.01,2013-05-19 17:47:00,
2013-05-19 13:48:00,58.2,56.5,30.24,SE,146,0.0,6.0,94,0.00,,,0.11,VWS V14.01,2013-05-19 17:48:00,
2013-05-19 13:49:00,58.2,56.5,30.24,SE,129,2.0,6.0,94,0.00,,,0.11,VWS V14.01,2013-05-19 17:49:00,
2013-05-19 13:50:00,58.2,56.5,30.24,South,176,0.0,6.0,94,0.00,,,0.11,VWS V14.01,2013-05-19 17:50:00,
2013-05-19 13:51:00,58.2,56.5,30.24,ESE,106,0.0,5.0,94,0.00,,,0.11,VWS V14.01,2013-05-19 17:51:00,
2013-05-19 13:52:00,58.1,56.4,30.24,SSE,150,2.0,5.0,94,0.00,,,0.11,VWS V14.01,2013-05-19 17:52:00,
2013-05-19 13:53:00,58.1,56.4,30.24,SE,144,0.0,5.0,94,0.00,,,0.11,VWS V14.01,2013-05-19 17:53:00,
2013-05-19 13:54:00,58.1,56.4,30.24,SE,144,0.0,5.0,94,0.00,,,0.11,VWS V14.01,2013-05-19 17:54:00,
2013-05-19 13:55:00,58.1,56.4,30.24,SE,145,1.0,5.0,94,0.00,,,0.11,VWS V14.01,2013-05-19 17:55:00,
2013-05-19 13:56:00,58.1,56.4,30.24,SE,145,1.0,5.0,94,0.00,,,0.11,VWS V14.01,2013-05-19 17:56:00,
2013-05-19 13:57:00,58.1,56.4,30.24,SSE,158,6.0,6.0,94,0.00,,,0.11,VWS V14.01,2013-05-19 17:57:00,
2013-05-19 13:58:00,58.1,56.4,30.24,SSE,154,6.0,9.0,94,0.00,,,0.11,VWS V14.01,2013-05-19 17:58:00,
2013-05-19 13:59:00,58.1,56.4,30.24,SSE,151,3.0,9.0,94,0.00,,,0.11,VWS V14.01,2013-05-19 17:59:00,
2013-05-19 14:00:00,58.1,56.4,30.23,North,355,1.0,9.0,94,0.00,,,0.11,VWS V14.01,2013-05-19 18:00:00,
2013-05-19 14:01:00,58.1,56.4,30.23,SE,140,1.0,5.0,94,0.00,,,0.11,VWS V14.01,2013-05-19 18:01:00,
2013-05-19 14:02:00,58.1,56.4,30.23,SSE,157,7.0,7.0,94,0.00,,,0.11,VWS V14.01,2013-05-19 18:02:00,
2013-05-19 14:03:00,58.1,56.4,30.23,SSE,152,3.0,8.0,94,0.00,,,0.11,VWS V14.01,2013-05-19 18:03:00,
2013-05-19 14:04:00,58.1,56.4,30.23,SSE,148,0.0,8.0,94,0.00,,,0.11,VWS V14.01,2013-05-19 18:04:00,
2013-05-19 14:05:00,58.1,56.4,30.23,SSE,148,3.0,8.0,94,0.00,,,0.11,VWS V14.01,2013-05-19 18:05:00,
2013-05-19 14:06:00,58.1,56.4,30.23,SSE,161,4.0,8.0,94,0.00,,,0.11,VWS V14.01,2013-05-19 18:06:00,
2013-05-19 14:07:00,58.1,56.4,30.23,SSE,167,5.0,8.0,94,0.00,,,0.11,VWS V14.01,2013-05-19 18:07:00,
2013-05-19 14:08:00,58.0,56.0,30.23,SE,140,2.0,8.0,93,0.00,,,0.11,VWS V14.01,2013-05-19 18:08:00,
2013-05-19 14:09:00,58.0,56.0,30.23,SSE,157,6.0,8.0,93,0.00,,,0.11,VWS V14.01,2013-05-19 18:09:00,
2013-05-19 14:10:00,58.0,56.0,30.23,SSE,155,0.0,8.0,93,0.00,,,0.11,VWS V14.01,2013-05-19 18:10:00,
2013-05-19 14:11:00,58.1,56.4,30.23,SSE,152,2.0,3.0,94,0.00,,,0.11,VWS V14.01,2013-05-19 18:11:00,
2013-05-19 14:12:00,58.1,56.4,30.23,SSE,152,0.0,3.0,94,0.00,,,0.11,VWS V14.01,2013-05-19 18:12:00,
2013-05-19 14:13:00,58.2,56.5,30.23,SSE,149,3.0,3.0,94,0.00,,,0.11,VWS V14.01,2013-05-19 18:13:00,
2013-05-19 14:14:00,58.2,56.5,30.23,SSE,148,0.0,3.0,94,0.00,,,0.11,VWS V14.01,2013-05-19 18:14:00,
2013-05-19 14:15:00,58.2,56.5,30.22,SSE,161,3.0,11.0,94,0.00,,,0.11,VWS V14.01,2013-05-19 18:15:00,
2013-05-19 14:16:00,58.2,56.5,30.22,South,188,4.0,11.0,94,0.00,,,0.11,VWS V14.01,2013-05-19 18:16:00,
2013-05-19 14:17:00,58.2,56.2,30.22,SSE,162,7.0,11.0,93,0.00,,,0.11,VWS V14.01,2013-05-19 18:17:00,
2013-05-19 14:18:00,58.1,56.1,30.22,South,180,3.0,11.0,93,0.00,,,0.11,VWS V14.01,2013-05-19 18:18:00,
2013-05-19 14:19:00,58.1,56.1,30.22,SSE,150,3.0,11.0,93,0.00,,,0.11,VWS V14.01,2013-05-19 18:19:00,
2013-05-19 14:20:00,58.1,56.1,30.22,SSE,152,0.0,11.0,93,0.00,,,0.11,VWS V14.01,2013-05-19 18:20:00,
2013-05-19 14:21:00,58.1,56.1,30.22,SSE,152,0.0,0.0,93,0.00,,,0.11,VWS V14.01,2013-05-19 18:21:00,
2013-05-19 14:22:00,58.1,56.1,30.22,NNE,23,2.0,4.0,93,0.00,,,0.11,VWS V14.01,2013-05-19 18:22:00,
2013-05-19 14:23:00,58.1,56.1,30.22,ESE,105,0.0,4.0,93,0.00,,,0.11,VWS V14.01,2013-05-19 18:23:00,
2013-05-19 14:24:00,58.1,56.1,30.22,NNE,19,3.0,4.0,93,0.00,,,0.11,VWS V14.01,2013-05-19 18:24:00,
2013-05-19 14:25:00,58.2,56.2,30.22,NNE,18,0.0,4.0,93,0.00,,,0.11,VWS V14.01,2013-05-19 18:25:00,
2013-05-19 14:26:00,58.2,56.5,30.22,South,170,4.0,5.0,94,0.00,,,0.11,VWS V14.01,2013-05-19 18:26:00,
2013-05-19 14:27:00,58.2,56.2,30.22,SSE,162,3.0,7.0,93,0.00,,,0.11,VWS V14.01,2013-05-19 18:27:00,
2013-05-19 14:28:00,58.2,56.2,30.22,South,169,1.0,7.0,93,0.00,,,0.11,VWS V14.01,2013-05-19 18:28:00,
2013-05-19 14:29:00,58.2,56.2,30.22,SSE,151,0.0,7.0,93,0.00,,,0.11,VWS V14.01,2013-05-19 18:29:00,
2013-05-19 14:30:00,58.2,56.2,30.22,SE,138,2.0,7.0,93,0.00,,,0.11,VWS V14.01,2013-05-19 18:30:00,
2013-05-19 14:31:00,58.2,56.2,30.22,SE,136,4.0,4.0,93,0.00,,,0.11,VWS V14.01,2013-05-19 18:31:00,
2013-05-19 14:32:00,58.2,56.2,30.22,SSE,159,2.0,6.0,93,0.00,,,0.11,VWS V14.01,2013-05-19 18:32:00,
2013-05-19 14:33:00,58.2,56.2,30.22,SSE,159,3.0,6.0,93,0.00,,,0.11,VWS V14.01,2013-05-19 18:33:00,
2013-05-19 14:34:00,58.2,56.2,30.22,NE,43,3.0,6.0,93,0.00,,,0.11,VWS V14.01,2013-05-19 18:34:00,
2013-05-19 14:35:00,58.2,56.2,30.22,South,179,4.0,6.0,93,0.00,,,0.11,VWS V14.01,2013-05-19 18:35:00,
2013-05-19 14:36:00,58.1,56.1,30.22,SSE,163,3.0,6.0,93,0.00,,,0.11,VWS V14.01,2013-05-19 18:36:00,
2013-05-19 14:37:00,58.1,56.1,30.22,SSE,159,5.0,6.0,93,0.00,,,0.11,VWS V14.01,2013-05-19 18:37:00,
2013-05-19 14:38:00,58.1,56.1,30.22,NNE,32,3.0,6.0,93,0.00,,,0.11,VWS V14.01,2013-05-19 18:38:00,
2013-05-19 14:39:00,58.1,56.1,30.22,SE,131,0.0,6.0,93,0.00,,,0.11,VWS V14.01,2013-05-19 18:39:00,
2013-05-19 14:40:00,58.1,56.1,30.22,SE,131,1.0,6.0,93,0.00,,,0.11,VWS V14.01,2013-05-19 18:40:00,
2013-05-19 14:41:00,58.1,56.1,30.22,SSE,161,3.0,10.0,93,0.00,,,0.11,VWS V14.01,2013-05-19 18:41:00,
2013-05-19 14:42:00,58.2,56.2,30.22,SSE,159,0.0,10.0,93,0.00,,,0.11,VWS V14.01,2013-05-19 18:42:00,
2013-05-19 14:43:00,58.2,56.2,30.22,SE,146,2.0,10.0,93,0.00,,,0.11,VWS V14.01,2013-05-19 18:43:00,
2013-05-19 14:44:00,58.1,56.1,30.22,NE,49,1.0,10.0,93,0.00,,,0.11,VWS V14.01,2013-05-19 18:44:00,
2013-05-19 14:45:00,58.1,56.1,30.21,NE,44,1.0,10.0,93,0.00,,,0.11,VWS V14.01,2013-05-19 18:45:00,
2013-05-19 14:46:00,58.1,56.1,30.21,East,86,2.0,10.0,93,0.00,,,0.11,VWS V14.01,2013-05-19 18:46:00,
2013-05-19 14:47:00,58.1,56.1,30.21,NNW,348,0.0,10.0,93,0.00,,,0.11,VWS V14.01,2013-05-19 18:47:00,
2013-05-19 14:48:00,58.1,56.1,30.21,SSE,156,3.0,10.0,93,0.00,,,0.11,VWS V14.01,2013-05-19 18:48:00,
2013-05-19 14:49:00,58.0,56.0,30.21,NE,44,4.0,10.0,93,0.00,,,0.11,VWS V14.01,2013-05-19 18:49:00,
2013-05-19 14:50:00,58.0,56.0,30.21,NW,317,2.0,10.0,93,0.00,,,0.11,VWS V14.01,2013-05-19 18:50:00,
2013-05-19 14:51:00,58.0,56.0,30.21,SSE,167,2.0,6.0,93,0.00,,,0.11,VWS V14.01,2013-05-19 18:51:00,
2013-05-19 14:52:00,57.9,55.9,30.21,ESE,102,0.0,6.0,93,0.00,,,0.11,VWS V14.01,2013-05-19 18:52:00,
2013-05-19 14:53:00,58.0,56.0,30.21,East,93,1.0,6.0,93,0.00,,,0.11,VWS V14.01,2013-05-19 18:53:00,
2013-05-19 14:54:00,58.0,56.0,30.21,NE,35,4.0,7.0,93,0.00,,,0.11,VWS V14.01,2013-05-19 18:54:00,
2013-05-19 14:55:00,57.9,55.9,30.21,SW,232,5.0,7.0,93,0.00,,,0.11,VWS V14.01,2013-05-19 18:55:00,
2013-05-19 14:56:00,57.9,55.9,30.21,North,350,1.0,7.0,93,0.00,,,0.11,VWS V14.01,2013-05-19 18:56:00,
2013-05-19 14:57:00,57.9,55.9,30.21,North,350,0.0,7.0,93,0.00,,,0.11,VWS V14.01,2013-05-19 18:57:00,
2013-05-19 14:58:00,57.9,55.9,30.21,SSE,150,7.0,7.0,93,0.00,,,0.11,VWS V14.01,2013-05-19 18:58:00,
2013-05-19 14:59:00,57.9,55.9,30.21,South,178,4.0,7.0,93,0.00,,,0.11,VWS V14.01,2013-05-19 18:59:00,
2013-05-19 15:00:00,57.9,55.9,30.20,SSE,156,1.0,7.0,93,0.00,,,0.11,VWS V14.01,2013-05-19 19:00:00,
2013-05-19 15:01:00,57.9,55.9,30.20,NNE,31,0.0,3.0,93,0.00,,,0.11,VWS V14.01,2013-05-19 19:01:00,
2013-05-19 15:02:00,57.9,55.9,30.20,NNE,27,2.0,3.0,93,0.00,,,0.11,VWS V14.01,2013-05-19 19:02:00,
2013-05-19 15:03:00,57.9,55.9,30.20,SSE,155,4.0,4.0,93,0.00,,,0.11,VWS V14.01,2013-05-19 19:03:00,
2013-05-19 15:04:00,58.0,56.0,30.20,SSE,159,2.0,4.0,93,0.00,,,0.11,VWS V14.01,2013-05-19 19:04:00,
2013-05-19 15:05:00,58.0,56.0,30.20,SE,125,2.0,5.0,93,0.00,,,0.11,VWS V14.01,2013-05-19 19:05:00,
2013-05-19 15:06:00,58.0,56.0,30.20,SSE,168,3.0,9.0,93,0.00,,,0.11,VWS V14.01,2013-05-19 19:06:00,
2013-05-19 15:07:00,58.0,56.0,30.20,SE,126,0.0,9.0,93,0.00,,,0.11,VWS V14.01,2013-05-19 19:07:00,
2013-05-19 15:08:00,58.0,56.0,30.20,SE,126,0.0,9.0,93,0.00,,,0.11,VWS V14.01,2013-05-19 19:08:00,
2013-05-19 15:09:00,58.0,56.0,30.20,East,81,2.0,9.0,93,0.00,,,0.11,VWS V14.01,2013-05-19 19:09:00,
2013-05-19 15:10:00,58.0,56.0,30.20,East,81,0.0,9.0,93,0.00,,,0.11,VWS V14.01,2013-05-19 19:10:00,
2013-05-19 15:11:00,58.0,56.0,30.20,SE,138,3.0,5.0,93,0.00,,,0.11,VWS V14.01,2013-05-19 19:11:00,
2013-05-19 15:12:00,58.1,56.1,30.20,SE,145,0.0,5.0,93,0.00,,,0.11,VWS V14.01,2013-05-19 19:12:00,
2013-05-19 15:13:00,58.1,56.1,30.20,SE,145,0.0,5.0,93,0.00,,,0.11,VWS V14.01,2013-05-19 19:13:00,
2013-05-19 15:14:00,58.1,56.1,30.20,SE,145,0.0,5.0,93,0.00,,,0.11,VWS V14.01,2013-05-19 19:14:00,
2013-05-19 15:15:00,58.1,56.1,30.20,NE,43,3.0,5.0,93,0.00,,,0.11,VWS V14.01,2013-05-19 19:15:00,
2013-05-19 15:16:00,58.1,56.1,30.20,NE,47,0.0,5.0,93,0.00,,,0.11,VWS V14.01,2013-05-19 19:16:00,
2013-05-19 15:17:00,58.0,56.0,30.20,NNE,31,2.0,5.0,93,0.00,,,0.11,VWS V14.01,2013-05-19 19:17:00,
2013-05-19 15:18:00,58.0,55.7,30.20,SSE,157,7.0,7.0,92,0.00,,,0.11,VWS V14.01,2013-05-19 19:18:00,
2013-05-19 15:19:00,58.0,55.7,30.20,SSE,159,3.0,8.0,92,0.00,,,0.11,VWS V14.01,2013-05-19 19:19:00,
2013-05-19 15:20:00,57.9,55.6,30.20,SE,142,8.0,8.0,92,0.00,,,0.11,VWS V14.01,2013-05-19 19:20:00,
2013-05-19 15:21:00,57.9,55.6,30.20,NNE,27,5.0,5.0,92,0.00,,,0.11,VWS V14.01,2013-05-19 19:21:00,
2013-05-19 15:22:00,57.9,55.6,30.20,East,83,3.0,5.0,92,0.00,,,0.11,VWS V14.01,2013-05-19 19:22:00,
2013-05-19 15:23:00,57.8,55.5,30.20,NE,53,2.0,5.0,92,0.00,,,0.11,VWS V14.01,2013-05-19 19:23:00,
2013-05-19 15:24:00,57.7,55.4,30.20,NE,36,2.0,5.0,92,0.00,,,0.11,VWS V14.01,2013-05-19 19:24:00,
2013-05-19 15:25:00,57.7,55.4,30.20,NNE,30,0.0,5.0,92,0.00,,,0.11,VWS V14.01,2013-05-19 19:25:00,
2013-05-19 15:26:00,57.6,55.3,30.20,East,96,2.0,5.0,92,0.00,,,0.11,VWS V14.01,2013-05-19 19:26:00,
2013-05-19 15:27:00,57.6,55.3,30.20,SSE,149,5.0,8.0,92,0.00,,,0.11,VWS V14.01,2013-05-19 19:27:00,
2013-05-19 15:28:00,57.5,55.2,30.20,SSE,148,2.0,8.0,92,0.00,,,0.11,VWS V14.01,2013-05-19 19:28:00,
2013-05-19 15:29:00,57.5,55.2,30.20,SSE,148,0.0,8.0,92,0.00,,,0.11,VWS V14.01,2013-05-19 19:29:00,
2013-05-19 15:30:00,57.5,55.2,30.19,ESE,122,0.0,8.0,92,0.00,,,0.11,VWS V14.01,2013-05-19 19:30:00,
2013-05-19 15:31:00,57.5,55.2,30.19,ESE,122,0.0,0.0,92,0.00,,,0.11,VWS V14.01,2013-05-19 19:31:00,
2013-05-19 15:32:00,57.5,55.2,30.19,SE,125,3.0,3.0,92,0.00,,,0.11,VWS V14.01,2013-05-19 19:32:00,
2013-05-19 15:33:00,57.5,55.2,30.19,SSE,164,1.0,9.0,92,0.00,,,0.11,VWS V14.01,2013-05-19 19:33:00,
2013-05-19 15:34:00,57.5,55.2,30.19,SSE,161,0.0,9.0,92,0.00,,,0.11,VWS V14.01,2013-05-19 19:34:00,
2013-05-19 15:35:00,57.5,55.2,30.19,NNE,13,0.0,9.0,92,0.00,,,0.11,VWS V14.01,2013-05-19 19:35:00,
2013-05-19 15:36:00,57.6,55.3,30.19,SSE,164,3.0,9.0,92,0.00,,,0.11,VWS V14.01,2013-05-19 19:36:00,
2013-05-19 15:37:00,57.5,55.2,30.19,SSE,166,0.0,9.0,92,0.00,,,0.11,VWS V14.01,2013-05-19 19:37:00,
2013-05-19 15:38:00,57.5,55.2,30.19,SSE,155,5.0,9.0,92,0.00,,,0.11,VWS V14.01,2013-05-19 19:38:00,
2013-05-19 15:39:00,57.6,55.3,30.19,SSE,162,0.0,9.0,92,0.00,,,0.11,VWS V14.01,2013-05-19 19:39:00,
2013-05-19 15:40:00,57.6,55.3,30.19,SSE,162,0.0,9.0,92,0.00,,,0.11,VWS V14.01,2013-05-19 19:40:00,
2013-05-19 15:41:00,57.6,55.3,30.19,NE,38,1.0,2.0,92,0.00,,,0.11,VWS V14.01,2013-05-19 19:41:00,
2013-05-19 15:42:00,57.6,55.3,30.19,NE,39,0.0,2.0,92,0.00,,,0.11,VWS V14.01,2013-05-19 19:42:00,
2013-05-19 15:43:00,57.6,55.3,30.19,NE,38,0.0,2.0,92,0.00,,,0.11,VWS V14.01,2013-05-19 19:43:00,
2013-05-19 15:44:00,57.6,55.3,30.19,NE,38,0.0,2.0,92,0.00,,,0.11,VWS V14.01,2013-05-19 19:44:00,
2013-05-19 15:45:00,57.6,55.6,30.19,ESE,113,0.0,4.0,93,0.00,,,0.11,VWS V14.01,2013-05-19 19:45:00,
2013-05-19 15:46:00,57.6,55.6,30.19,ESE,113,1.0,4.0,93,0.00,,,0.11,VWS V14.01,2013-05-19 19:46:00,
2013-05-19 15:47:00,57.6,55.6,30.19,SSE,155,1.0,4.0,93,0.00,,,0.11,VWS V14.01,2013-05-19 19:47:00,
2013-05-19 15:48:00,57.7,55.7,30.19,SSE,154,0.0,4.0,93,0.00,,,0.11,VWS V14.01,2013-05-19 19:48:00,
2013-05-19 15:49:00,57.7,55.7,30.19,SSE,155,2.0,4.0,93,0.00,,,0.11,VWS V14.01,2013-05-19 19:49:00,
2013-05-19 15:50:00,57.7,55.7,30.19,SSE,153,3.0,8.0,93,0.00,,,0.11,VWS V14.01,2013-05-19 19:50:00,
2013-05-19 15:51:00,57.7,55.7,30.19,SSE,151,0.0,4.0,93,0.00,,,0.11,VWS V14.01,2013-05-19 19:51:00,
2013-05-19 15:52:00,57.7,55.7,30.19,SSE,151,1.0,4.0,93,0.00,,,0.11,VWS V14.01,2013-05-19 19:52:00,
2013-05-19 15:53:00,57.7,55.7,30.19,SSE,153,5.0,5.0,93,0.00,,,0.11,VWS V14.01,2013-05-19 19:53:00,
2013-05-19 15:54:00,57.6,55.6,30.19,ESE,108,2.0,7.0,93,0.00,,,0.11,VWS V14.01,2013-05-19 19:54:00,
2013-05-19 15:55:00,57.6,55.3,30.19,SSE,150,1.0,7.0,92,0.00,,,0.11,VWS V14.01,2013-05-19 19:55:00,
2013-05-19 15:56:00,57.6,55.3,30.19,SSE,150,0.0,7.0,92,0.00,,,0.11,VWS V14.01,2013-05-19 19:56:00,
2013-05-19 15:57:00,57.6,55.3,30.19,ESE,111,0.0,7.0,92,0.00,,,0.11,VWS V14.01,2013-05-19 19:57:00,
2013-05-19 15:58:00,57.6,55.3,30.19,ESE,113,0.0,8.0,92,0.00,,,0.11,VWS V14.01,2013-05-19 19:58:00,
2013-05-19 15:59:00,57.5,55.2,30.19,SSE,165,1.0,8.0,92,0.00,,,0.11,VWS V14.01,2013-05-19 19:59:00,
2013-05-19 16:00:00,57.5,55.2,30.19,ESE,111,5.0,8.0,92,0.00,,,0.11,VWS V14.01,2013-05-19 20:00:00,
2013-05-19 16:01:00,57.5,55.2,30.19,East,97,2.0,11.0,92,0.00,,,0.11,VWS V14.01,2013-05-19 20:01:00,
2013-05-19 16:02:00,57.5,55.2,30.19,SSE,161,6.0,11.0,92,0.00,,,0.11,VWS V14.01,2013-05-19 20:02:00,
2013-05-19 16:03:00,57.5,55.2,30.19,SSE,159,5.0,11.0,92,0.00,,,0.11,VWS V14.01,2013-05-19 20:03:00,
2013-05-19 16:04:00,57.4,55.1,30.19,SE,126,0.0,11.0,92,0.00,,,0.11,VWS V14.01,2013-05-19 20:04:00,
2013-05-19 16:05:00,57.4,55.1,30.19,NNE,24,5.0,11.0,92,0.00,,,0.11,VWS V14.01,2013-05-19 20:05:00,
2013-05-19 16:06:00,57.4,55.4,30.19,ENE,67,2.0,11.0,93,0.00,,,0.11,VWS V14.01,2013-05-19 20:06:00,
2013-05-19 16:07:00,57.4,55.4,30.19,ENE,66,3.0,11.0,93,0.00,,,0.11,VWS V14.01,2013-05-19 20:07:00,
2013-05-19 16:08:00,57.4,55.4,30.19,North,355,1.0,11.0,93,0.00,,,0.11,VWS V14.01,2013-05-19 20:08:00,
2013-05-19 16:09:00,57.4,55.4,30.19,ENE,64,3.0,11.0,93,0.00,,,0.11,VWS V14.01,2013-05-19 20:09:00,
2013-05-19 16:10:00,57.3,55.0,30.19,SSE,157,9.0,11.0,92,0.00,,,0.11,VWS V14.01,2013-05-19 20:10:00,
2013-05-19 16:11:00,57.3,55.0,30.19,SSE,151,1.0,4.0,92,0.00,,,0.11,VWS V14.01,2013-05-19 20:11:00,
2013-05-19 16:12:00,57.2,54.9,30.19,ENE,68,2.0,4.0,92,0.00,,,0.11,VWS V14.01,2013-05-19 20:12:00,
2013-05-19 16:13:00,57.2,55.2,30.19,ENE,65,2.0,4.0,93,0.00,,,0.11,VWS V14.01,2013-05-19 20:13:00,
2013-05-19 16:14:00,57.2,55.2,30.19,NE,38,2.0,5.0,93,0.00,,,0.11,VWS V14.01,2013-05-19 20:14:00,
2013-05-19 16:15:00,57.2,55.2,30.19,NE,38,0.0,5.0,93,0.00,,,0.11,VWS V14.01,2013-05-19 20:15:00,
2013-05-19 16:16:00,57.2,55.2,30.19,SE,126,1.0,5.0,93,0.00,,,0.11,VWS V14.01,2013-05-19 20:16:00,
2013-05-19 16:17:00,57.1,55.1,30.19,East,96,2.0,5.0,93,0.00,,,0.11,VWS V14.01,2013-05-19 20:17:00,
2013-05-19 16:18:00,57.1,55.1,30.19,ESE,112,2.0,5.0,93,0.00,,,0.11,VWS V14.01,2013-05-19 20:18:00,
2013-05-19 16:19:00,57.1,55.1,30.19,SSE,153,0.0,5.0,93,0.00,,,0.11,VWS V14.01,2013-05-19 20:19:00,
2013-05-19 16:20:00,57.1,55.1,30.19,SSE,154,1.0,6.0,93,0.00,,,0.11,VWS V14.01,2013-05-19 20:20:00,
2013-05-19 16:21:00,57.1,55.1,30.19,East,94,3.0,3.0,93,0.00,,,0.11,VWS V14.01,2013-05-19 20:21:00,
2013-05-19 16:22:00,57.1,55.1,30.19,NE,36,2.0,7.0,93,0.00,,,0.11,VWS V14.01,2013-05-19 20:22:00,
2013-05-19 16:23:00,57.1,55.1,30.19,NE,36,0.0,7.0,93,0.00,,,0.11,VWS V14.01,2013-05-19 20:23:00,
2013-05-19 16:24:00,57.1,55.1,30.19,NE,36,0.0,7.0,93,0.00,,,0.11,VWS V14.01,2013-05-19 20:24:00,
2013-05-19 16:25:00,57.1,55.1,30.19,NNE,24,2.0,7.0,93,0.00,,,0.11,VWS V14.01,2013-05-19 20:25:00,
2013-05-19 16:26:00,57.1,55.1,30.19,North,355,2.0,7.0,93,0.00,,,0.11,VWS V14.01,2013-05-19 20:26:00,
2013-05-19 16:27:00,57.1,55.1,30.19,North,5,0.0,7.0,93,0.00,,,0.11,VWS V14.01,2013-05-19 20:27:00,
2013-05-19 16:28:00,57.1,55.1,30.19,SW,225,0.0,7.0,93,0.00,,,0.11,VWS V14.01,2013-05-19 20:28:00,
2013-05-19 16:29:00,57.1,55.1,30.19,SSE,155,2.0,7.0,93,0.00,,,0.11,VWS V14.01,2013-05-19 20:29:00,
2013-05-19 16:30:00,57.1,55.1,30.19,NE,43,2.0,7.0,93,0.00,,,0.11,VWS V14.01,2013-05-19 20:30:00,
2013-05-19 16:31:00,57.1,55.1,30.19,South,174,1.0,3.0,93,0.00,,,0.11,VWS V14.01,2013-05-19 20:31:00,
2013-05-19 16:32:00,57.1,55.1,30.19,NE,49,1.0,3.0,93,0.00,,,0.11,VWS V14.01,2013-05-19 20:32:00,
2013-05-19 16:33:00,57.1,55.1,30.19,NE,48,0.0,3.0,93,0.00,,,0.11,VWS V14.01,2013-05-19 20:33:00,
2013-05-19 16:34:00,57.1,55.1,30.19,NE,49,1.0,3.0,93,0.00,,,0.11,VWS V14.01,2013-05-19 20:34:00,
2013-05-19 16:35:00,57.1,55.1,30.19,East,86,3.0,9.0,93,0.00,,,0.11,VWS V14.01,2013-05-19 20:35:00,
2013-05-19 16:36:00,57.0,55.0,30.19,East,83,2.0,9.0,93,0.00,,,0.11,VWS V14.01,2013-05-19 20:36:00,
2013-05-19 16:37:00,56.9,54.9,30.19,SSE,159,3.0,9.0,93,0.00,,,0.11,VWS V14.01,2013-05-19 20:37:00,
2013-05-19 16:38:00,56.9,54.9,30.19,SSE,153,2.0,9.0,93,0.00,,,0.11,VWS V14.01,2013-05-19 20:38:00,
2013-05-19 16:39:00,56.9,54.9,30.19,East,96,1.0,9.0,93,0.00,,,0.11,VWS V14.01,2013-05-19 20:39:00,
2013-05-19 16:40:00,56.9,54.9,30.19,NE,34,3.0,9.0,93,0.00,,,0.11,VWS V14.01,2013-05-19 20:40:00,
2013-05-19 16:41:00,56.9,54.9,30.19,NE,36,2.0,3.0,93,0.00,,,0.11,VWS V14.01,2013-05-19 20:41:00,
2013-05-19 16:42:00,56.9,54.9,30.19,NE,36,1.0,3.0,93,0.00,,,0.11,VWS V14.01,2013-05-19 20:42:00,
2013-05-19 16:43:00,56.9,54.9,30.19,NE,34,0.0,3.0,93,0.00,,,0.11,VWS V14.01,2013-05-19 20:43:00,
2013-05-19 16:44:00,56.9,54.9,30.19,SE,130,0.0,3.0,93,0.00,,,0.11,VWS V14.01,2013-05-19 20:44:00,
2013-05-19 16:45:00,56.9,54.9,30.19,SE,130,2.0,3.0,93,0.00,,,0.11,VWS V14.01,2013-05-19 20:45:00,
2013-05-19 16:46:00,56.9,54.9,30.19,SSE,155,4.0,4.0,93,0.00,,,0.11,VWS V14.01,2013-05-19 20:46:00,
2013-05-19 16:47:00,56.9,54.9,30.19,SSE,157,0.0,6.0,93,0.00,,,0.11,VWS V14.01,2013-05-19 20:47:00,
2013-05-19 16:48:00,56.9,54.9,30.19,SSE,159,2.0,6.0,93,0.00,,,0.11,VWS V14.01,2013-05-19 20:48:00,
2013-05-19 16:49:00,56.9,54.9,30.19,South,182,1.0,6.0,93,0.00,,,0.11,VWS V14.01,2013-05-19 20:49:00,
2013-05-19 16:50:00,56.9,54.9,30.19,NE,56,2.0,6.0,93,0.00,,,0.11,VWS V14.01,2013-05-19 20:50:00,
2013-05-19 16:51:00,56.9,54.9,30.19,SSW,192,1.0,5.0,93,0.00,,,0.11,VWS V14.01,2013-05-19 20:51:00,
2013-05-19 16:52:00,56.9,54.9,30.19,East,86,2.0,5.0,93,0.00,,,0.11,VWS V14.01,2013-05-19 20:52:00,
2013-05-19 16:53:00,56.9,54.9,30.19,East,87,0.0,5.0,93,0.00,,,0.11,VWS V14.01,2013-05-19 20:53:00,
2013-05-19 16:54:00,56.9,54.9,30.19,SSE,165,4.0,5.0,93,0.00,,,0.11,VWS V14.01,2013-05-19 20:54:00,
2013-05-19 16:55:00,56.9,54.9,30.19,SE,126,2.0,6.0,93,0.00,,,0.11,VWS V14.01,2013-05-19 20:55:00,
2013-05-19 16:56:00,56.8,54.8,30.19,ESE,119,2.0,6.0,93,0.00,,,0.11,VWS V14.01,2013-05-19 20:56:00,
2013-05-19 16:57:00,56.9,54.9,30.19,ESE,119,0.0,6.0,93,0.00,,,0.11,VWS V14.01,2013-05-19 20:57:00,
2013-05-19 16:58:00,56.9,54.9,30.19,SSW,205,2.0,6.0,93,0.00,,,0.11,VWS V14.01,2013-05-19 20:58:00,
2013-05-19 16:59:00,56.9,54.9,30.19,ENE,72,3.0,6.0,93,0.00,,,0.11,VWS V14.01,2013-05-19 20:59:00,
2013-05-19 17:00:00,56.9,54.9,30.19,ENE,74,1.0,6.0,93,0.00,,,0.11,VWS V14.01,2013-05-19 21:00:00,
2013-05-19 17:01:00,56.9,54.9,30.19,ENE,66,1.0,3.0,93,0.00,,,0.11,VWS V14.01,2013-05-19 21:01:00,
2013-05-19 17:02:00,56.9,55.2,30.19,East,98,3.0,3.0,94,0.00,,,0.11,VWS V14.01,2013-05-19 21:02:00,
2013-05-19 17:03:00,56.9,55.2,30.19,SSE,157,2.0,5.0,94,0.00,,,0.11,VWS V14.01,2013-05-19 21:03:00,
2013-05-19 17:04:00,56.9,55.2,30.19,SSE,157,3.0,5.0,94,0.00,,,0.11,VWS V14.01,2013-05-19 21:04:00,
2013-05-19 17:05:00,56.9,55.2,30.19,SE,142,2.0,5.0,94,0.00,,,0.11,VWS V14.01,2013-05-19 21:05:00,
2013-05-19 17:06:00,56.9,55.2,30.19,ESE,108,4.0,6.0,94,0.00,,,0.11,VWS V14.01,2013-05-19 21:06:00,
2013-05-19 17:07:00,56.9,55.2,30.19,ESE,117,2.0,7.0,94,0.00,,,0.11,VWS V14.01,2013-05-19 21:07:00,
2013-05-19 17:08:00,56.9,55.2,30.19,ESE,107,3.0,7.0,94,0.00,,,0.11,VWS V14.01,2013-05-19 21:08:00,
2013-05-19 17:09:00,56.8,55.1,30.19,SSE,165,0.0,7.0,94,0.00,,,0.11,VWS V14.01,2013-05-19 21:09:00,
2013-05-19 17:10:00,56.8,55.1,30.19,SSE,165,1.0,7.0,94,0.00,,,0.11,VWS V14.01,2013-05-19 21:10:00,
2013-05-19 17:11:00,56.8,55.1,30.19,SSE,165,2.0,5.0,94,0.00,,,0.11,VWS V14.01,2013-05-19 21:11:00,
2013-05-19 17:12:00,56.8,55.1,30.19,SSE,165,1.0,5.0,94,0.00,,,0.11,VWS V14.01,2013-05-19 21:12:00,
2013-05-19 17:13:00,56.8,55.1,30.19,SSE,165,0.0,5.0,94,0.00,,,0.11,VWS V14.01,2013-05-19 21:13:00,
2013-05-19 17:14:00,56.8,55.1,30.19,SSE,164,0.0,5.0,94,0.00,,,0.11,VWS V14.01,2013-05-19 21:14:00,
2013-05-19 17:15:00,56.8,55.1,30.18,SSE,166,2.0,5.0,94,0.00,,,0.11,VWS V14.01,2013-05-19 21:15:00,
2013-05-19 17:16:00,56.8,55.1,30.18,SSE,149,1.0,6.0,94,0.00,,,0.11,VWS V14.01,2013-05-19 21:16:00,
2013-05-19 17:17:00,56.8,55.1,30.18,SSE,149,0.0,6.0,94,0.00,,,0.11,VWS V14.01,2013-05-19 21:17:00,
2013-05-19 17:18:00,56.9,55.2,30.18,South,176,7.0,7.0,94,0.00,,,0.11,VWS V14.01,2013-05-19 21:18:00,
2013-05-19 17:19:00,56.9,55.2,30.18,ESE,102,5.0,7.0,94,0.00,,,0.11,VWS V14.01,2013-05-19 21:19:00,
2013-05-19 17:20:00,56.8,55.1,30.18,NE,42,0.0,7.0,94,0.00,,,0.11,VWS V14.01,2013-05-19 21:20:00,
2013-05-19 17:21:00,56.9,55.2,30.18,ESE,123,3.0,3.0,94,0.00,,,0.11,VWS V14.01,2013-05-19 21:21:00,
2013-05-19 17:22:00,56.9,55.2,30.18,ESE,123,0.0,3.0,94,0.00,,,0.11,VWS V14.01,2013-05-19 21:22:00,
2013-05-19 17:23:00,56.9,55.2,30.18,ESE,106,2.0,5.0,94,0.00,,,0.11,VWS V14.01,2013-05-19 21:23:00,
2013-05-19 17:24:00,56.9,55.2,30.18,ESE,106,0.0,5.0,94,0.00,,,0.11,VWS V14.01,2013-05-19 21:24:00,
2013-05-19 17:25:00,56.9,55.2,30.18,East,98,0.0,5.0,94,0.00,,,0.11,VWS V14.01,2013-05-19 21:25:00,
2013-05-19 17:26:00,56.9,55.2,30.18,ENE,58,3.0,5.0,94,0.00,,,0.11,VWS V14.01,2013-05-19 21:26:00,
2013-05-19 17:27:00,56.9,55.2,30.18,ENE,58,0.0,5.0,94,0.00,,,0.11,VWS V14.01,2013-05-19 21:27:00,
2013-05-19 17:28:00,56.9,55.2,30.18,ENE,58,0.0,5.0,94,0.00,,,0.11,VWS V14.01,2013-05-19 21:28:00,
2013-05-19 17:29:00,56.9,55.2,30.18,South,186,4.0,6.0,94,0.00,,,0.11,VWS V14.01,2013-05-19 21:29:00,
2013-05-19 17:30:00,56.9,55.2,30.18,South,190,0.0,6.0,94,0.00,,,0.11,VWS V14.01,2013-05-19 21:30:00,
2013-05-19 17:31:00,56.9,55.2,30.18,SSE,147,3.0,5.0,94,0.00,,,0.11,VWS V14.01,2013-05-19 21:31:00,
2013-05-19 17:32:00,56.9,55.2,30.18,SSE,147,0.0,5.0,94,0.00,,,0.11,VWS V14.01,2013-05-19 21:32:00,
2013-05-19 17:33:00,56.9,55.2,30.18,SSE,151,0.0,5.0,94,0.00,,,0.11,VWS V14.01,2013-05-19 21:33:00,
2013-05-19 17:34:00,56.8,55.1,30.18,SSE,151,0.0,5.0,94,0.00,,,0.11,VWS V14.01,2013-05-19 21:34:00,
2013-05-19 17:35:00,56.9,55.2,30.18,SSE,151,0.0,5.0,94,0.00,,,0.11,VWS V14.01,2013-05-19 21:35:00,
2013-05-19 17:36:00,56.9,55.2,30.18,SSE,151,0.0,5.0,94,0.00,,,0.11,VWS V14.01,2013-05-19 21:36:00,
2013-05-19 17:37:00,56.9,55.2,30.18,SSE,151,0.0,5.0,94,0.00,,,0.11,VWS V14.01,2013-05-19 21:37:00,
2013-05-19 17:38:00,56.9,55.2,30.18,SE,127,3.0,5.0,94,0.00,,,0.11,VWS V14.01,2013-05-19 21:38:00,
2013-05-19 17:39:00,56.9,55.2,30.18,SE,127,0.0,5.0,94,0.00,,,0.11,VWS V14.01,2013-05-19 21:39:00,
2013-05-19 17:40:00,56.9,55.2,30.18,ENE,68,2.0,5.0,94,0.00,,,0.11,VWS V14.01,2013-05-19 21:40:00,
2013-05-19 17:41:00,56.8,55.1,30.18,ENE,68,0.0,1.0,94,0.00,,,0.11,VWS V14.01,2013-05-19 21:41:00,
2013-05-19 17:42:00,56.8,55.1,30.18,ENE,68,0.0,1.0,94,0.00,,,0.11,VWS V14.01,2013-05-19 21:42:00,
2013-05-19 17:43:00,56.8,55.1,30.18,East,88,0.0,3.0,94,0.00,,,0.11,VWS V14.01,2013-05-19 21:43:00,
2013-05-19 17:44:00,56.8,55.1,30.18,East,88,0.0,3.0,94,0.00,,,0.11,VWS V14.01,2013-05-19 21:44:00,
2013-05-19 17:45:00,56.8,55.1,30.18,East,88,1.0,3.0,94,0.00,,,0.11,VWS V14.01,2013-05-19 21:45:00,
2013-05-19 17:46:00,56.8,55.1,30.18,East,88,0.0,3.0,94,0.00,,,0.11,VWS V14.01,2013-05-19 21:46:00,
2013-05-19 17:47:00,56.8,55.1,30.18,East,88,0.0,3.0,94,0.00,,,0.11,VWS V14.01,2013-05-19 21:47:00,
2013-05-19 17:48:00,56.8,55.1,30.18,East,97,1.0,3.0,94,0.00,,,0.11,VWS V14.01,2013-05-19 21:48:00,
2013-05-19 17:49:00,56.8,55.1,30.18,ESE,115,0.0,3.0,94,0.00,,,0.11,VWS V14.01,2013-05-19 21:49:00,
2013-05-19 17:50:00,56.8,55.1,30.18,SE,146,4.0,8.0,94,0.00,,,0.11,VWS V14.01,2013-05-19 21:50:00,
2013-05-19 17:51:00,56.7,55.0,30.18,ENE,57,3.0,4.0,94,0.00,,,0.11,VWS V14.01,2013-05-19 21:51:00,
2013-05-19 17:52:00,56.7,55.0,30.18,NE,55,0.0,4.0,94,0.00,,,0.11,VWS V14.01,2013-05-19 21:52:00,
2013-05-19 17:53:00,56.7,55.0,30.18,SSE,149,4.0,7.0,94,0.00,,,0.11,VWS V14.01,2013-05-19 21:53:00,
2013-05-19 17:54:00,56.7,55.0,30.18,SE,130,1.0,7.0,94,0.00,,,0.11,VWS V14.01,2013-05-19 21:54:00,
2013-05-19 17:55:00,56.7,55.0,30.18,SE,130,1.0,7.0,94,0.00,,,0.11,VWS V14.01,2013-05-19 21:55:00,
2013-05-19 17:56:00,56.7,55.0,30.18,SE,144,6.0,7.0,94,0.00,,,0.11,VWS V14.01,2013-05-19 21:56:00,
2013-05-19 17:57:00,56.7,55.0,30.18,SE,146,4.0,7.0,94,0.00,,,0.11,VWS V14.01,2013-05-19 21:57:00,
2013-05-19 17:58:00,56.7,55.0,30.18,SSE,159,2.0,7.0,94,0.00,,,0.11,VWS V14.01,2013-05-19 21:58:00,
2013-05-19 17:59:00,56.7,55.0,30.18,SSE,158,3.0,7.0,94,0.00,,,0.11,VWS V14.01,2013-05-19 21:59:00,
2013-05-19 18:00:00,56.6,54.9,30.18,SSE,158,1.0,7.0,94,0.00,,,0.11,VWS V14.01,2013-05-19 22:00:00,
2013-05-19 18:01:00,56.6,54.9,30.18,SE,146,4.0,9.0,94,0.00,,,0.11,VWS V14.01,2013-05-19 22:01:00,
2013-05-19 18:02:00,56.6,54.9,30.18,SE,146,0.0,9.0,94,0.00,,,0.11,VWS V14.01,2013-05-19 22:02:00,
2013-05-19 18:03:00,56.6,54.9,30.18,SE,129,3.0,9.0,94,0.00,,,0.11,VWS V14.01,2013-05-19 22:03:00,
2013-05-19 18:04:00,56.6,54.9,30.18,SE,129,0.0,9.0,94,0.00,,,0.11,VWS V14.01,2013-05-19 22:04:00,
2013-05-19 18:05:00,56.6,54.9,30.18,ENE,74,0.0,9.0,94,0.00,,,0.11,VWS V14.01,2013-05-19 22:05:00,
2013-05-19 18:06:00,56.6,54.9,30.18,ENE,74,0.0,9.0,94,0.00,,,0.11,VWS V14.01,2013-05-19 22:06:00,
2013-05-19 18:07:00,56.6,54.9,30.18,ENE,74,0.0,9.0,94,0.00,,,0.11,VWS V14.01,2013-05-19 22:07:00,
2013-05-19 18:08:00,56.6,54.9,30.18,ENE,74,0.0,9.0,94,0.00,,,0.11,VWS V14.01,2013-05-19 22:08:00,
2013-05-19 18:09:00,56.6,54.9,30.18,East,101,0.0,9.0,94,0.00,,,0.11,VWS V14.01,2013-05-19 22:09:00,
2013-05-19 18:10:00,56.6,54.9,30.18,East,101,0.0,9.0,94,0.00,,,0.11,VWS V14.01,2013-05-19 22:10:00,
2013-05-19 18:11:00,56.6,54.9,30.18,East,101,0.0,0.0,94,0.00,,,0.11,VWS V14.01,2013-05-19 22:11:00,
2013-05-19 18:12:00,56.6,54.9,30.18,ESE,105,2.0,3.0,94,0.00,,,0.11,VWS V14.01,2013-05-19 22:12:00,
2013-05-19 18:13:00,56.6,54.9,30.18,SSE,161,2.0,5.0,94,0.00,,,0.11,VWS V14.01,2013-05-19 22:13:00,
2013-05-19 18:14:00,56.6,54.9,30.18,SSE,161,0.0,5.0,94,0.00,,,0.11,VWS V14.01,2013-05-19 22:14:00,
2013-05-19 18:15:00,56.6,54.9,30.19,SSE,161,0.0,5.0,94,0.00,,,0.11,VWS V14.01,2013-05-19 22:15:00,
2013-05-19 18:16:00,56.6,54.9,30.19,SSE,161,0.0,5.0,94,0.00,,,0.11,VWS V14.01,2013-05-19 22:16:00,
2013-05-19 18:17:00,56.5,54.8,30.19,SSE,161,3.0,5.0,94,0.00,,,0.11,VWS V14.01,2013-05-19 22:17:00,
2013-05-19 18:18:00,56.5,54.8,30.19,SSE,161,0.0,5.0,94,0.00,,,0.11,VWS V14.01,2013-05-19 22:18:00,
2013-05-19 18:19:00,56.5,54.8,30.19,SSE,161,1.0,5.0,94,0.00,,,0.11,VWS V14.01,2013-05-19 22:19:00,
2013-05-19 18:20:00,56.5,54.8,30.19,SSE,161,0.0,5.0,94,0.00,,,0.11,VWS V14.01,2013-05-19 22:20:00,
2013-05-19 18:21:00,56.5,54.8,30.19,SE,131,1.0,1.0,94,0.00,,,0.11,VWS V14.01,2013-05-19 22:21:00,
2013-05-19 18:22:00,56.5,54.8,30.19,SE,132,6.0,6.0,94,0.00,,,0.11,VWS V14.01,2013-05-19 22:22:00,
2013-05-19 18:23:00,56.6,54.9,30.19,SE,131,0.0,6.0,94,0.00,,,0.11,VWS V14.01,2013-05-19 22:23:00,
2013-05-19 18:24:00,56.5,54.8,30.19,East,98,2.0,6.0,94,0.00,,,0.11,VWS V14.01,2013-05-19 22:24:00,
2013-05-19 18:25:00,56.5,54.8,30.19,East,98,0.0,6.0,94,0.00,,,0.11,VWS V14.01,2013-05-19 22:25:00,
2013-05-19 18:26:00,56.5,54.8,30.19,SE,144,0.0,6.0,94,0.00,,,0.11,VWS V14.01,2013-05-19 22:26:00,
2013-05-19 18:27:00,56.5,54.8,30.19,SE,143,0.0,6.0,94,0.00,,,0.11,VWS V14.01,2013-05-19 22:27:00,
2013-05-19 18:28:00,56.5,54.8,30.19,SSE,162,5.0,6.0,94,0.00,,,0.11,VWS V14.01,2013-05-19 22:28:00,
2013-05-19 18:29:00,56.5,54.8,30.19,SSE,161,2.0,6.0,94,0.00,,,0.11,VWS V14.01,2013-05-19 22:29:00,
2013-05-19 18:30:00,56.5,54.8,30.19,SSE,156,0.0,6.0,94,0.00,,,0.11,VWS V14.01,2013-05-19 22:30:00,
2013-05-19 18:31:00,56.5,54.8,30.19,SSE,156,0.0,1.0,94,0.00,,,0.11,VWS V14.01,2013-05-19 22:31:00,
2013-05-19 18:32:00,56.5,54.8,30.19,SSE,156,0.0,1.0,94,0.00,,,0.11,VWS V14.01,2013-05-19 22:32:00,
2013-05-19 18:33:00,56.5,54.8,30.19,SSE,156,0.0,1.0,94,0.00,,,0.11,VWS V14.01,2013-05-19 22:33:00,
2013-05-19 18:34:00,56.4,54.7,30.19,SSE,150,0.0,3.0,94,0.00,,,0.11,VWS V14.01,2013-05-19 22:34:00,
2013-05-19 18:35:00,56.5,54.8,30.19,ESE,111,0.0,3.0,94,0.00,,,0.11,VWS V14.01,2013-05-19 22:35:00,
2013-05-19 18:36:00,56.4,54.7,30.19,ESE,111,0.0,3.0,94,0.00,,,0.11,VWS V14.01,2013-05-19 22:36:00,
2013-05-19 18:37:00,56.5,54.8,30.19,ESE,112,0.0,3.0,94,0.00,,,0.11,VWS V14.01,2013-05-19 22:37:00,
2013-05-19 18:38:00,56.5,54.8,30.19,ESE,112,0.0,3.0,94,0.00,,,0.11,VWS V14.01,2013-05-19 22:38:00,
2013-05-19 18:39:00,56.4,54.7,30.19,ESE,112,0.0,3.0,94,0.00,,,0.11,VWS V14.01,2013-05-19 22:39:00,
2013-05-19 18:40:00,56.4,54.7,30.19,SE,128,0.0,3.0,94,0.00,,,0.11,VWS V14.01,2013-05-19 22:40:00,
2013-05-19 18:41:00,56.4,54.7,30.19,SE,130,1.0,3.0,94,0.00,,,0.11,VWS V14.01,2013-05-19 22:41:00,
2013-05-19 18:42:00,56.4,54.7,30.19,SE,130,0.0,3.0,94,0.00,,,0.11,VWS V14.01,2013-05-19 22:42:00,
2013-05-19 18:43:00,56.4,54.7,30.19,SE,130,0.0,3.0,94,0.00,,,0.11,VWS V14.01,2013-05-19 22:43:00,
2013-05-19 18:44:00,56.4,54.7,30.19,SE,130,1.0,3.0,94,0.00,,,0.11,VWS V14.01,2013-05-19 22:44:00,
2013-05-19 18:45:00,56.4,54.7,30.19,SSE,161,0.0,4.0,94,0.00,,,0.11,VWS V14.01,2013-05-19 22:45:00,
2013-05-19 18:46:00,56.4,54.7,30.19,ESE,121,3.0,4.0,94,0.00,,,0.11,VWS V14.01,2013-05-19 22:46:00,
2013-05-19 18:47:00,56.4,54.7,30.19,South,173,1.0,4.0,94,0.00,,,0.11,VWS V14.01,2013-05-19 22:47:00,
2013-05-19 18:48:00,56.4,54.7,30.19,South,173,0.0,4.0,94,0.00,,,0.11,VWS V14.01,2013-05-19 22:48:00,
2013-05-19 18:49:00,56.4,54.7,30.19,South,172,0.0,4.0,94,0.00,,,0.11,VWS V14.01,2013-05-19 22:49:00,
2013-05-19 18:50:00,56.4,54.7,30.19,SSE,160,1.0,4.0,94,0.00,,,0.11,VWS V14.01,2013-05-19 22:50:00,
2013-05-19 18:51:00,56.4,54.7,30.19,SSE,159,0.0,0.0,94,0.00,,,0.11,VWS V14.01,2013-05-19 22:51:00,
2013-05-19 18:52:00,56.3,54.6,30.19,South,170,0.0,2.0,94,0.00,,,0.11,VWS V14.01,2013-05-19 22:52:00,
2013-05-19 18:53:00,56.3,54.6,30.19,South,170,2.0,2.0,94,0.00,,,0.11,VWS V14.01,2013-05-19 22:53:00,
2013-05-19 18:54:00,56.3,54.6,30.19,ESE,105,0.0,2.0,94,0.00,,,0.11,VWS V14.01,2013-05-19 22:54:00,
2013-05-19 18:55:00,56.3,54.9,30.19,SSE,158,5.0,7.0,95,0.00,,,0.11,VWS V14.01,2013-05-19 22:55:00,
2013-05-19 18:56:00,56.3,54.9,30.19,ENE,65,3.0,7.0,95,0.00,,,0.11,VWS V14.01,2013-05-19 22:56:00,
2013-05-19 18:57:00,56.3,54.9,30.19,ESE,121,0.0,7.0,95,0.00,,,0.11,VWS V14.01,2013-05-19 22:57:00,
2013-05-19 18:58:00,56.3,54.9,30.19,ESE,121,2.0,7.0,95,0.00,,,0.11,VWS V14.01,2013-05-19 22:58:00,
2013-05-19 18:59:00,56.3,54.9,30.19,SE,132,3.0,7.0,95,0.00,,,0.11,VWS V14.01,2013-05-19 22:59:00,
2013-05-19 19:00:00,56.3,54.9,30.19,NE,49,1.0,7.0,95,0.00,,,0.11,VWS V14.01,2013-05-19 23:00:00,
2013-05-19 19:01:00,56.3,54.9,30.19,NE,53,1.0,1.0,95,0.00,,,0.11,VWS V14.01,2013-05-19 23:01:00,
2013-05-19 19:02:00,56.3,54.9,30.19,SE,144,0.0,3.0,95,0.00,,,0.11,VWS V14.01,2013-05-19 23:02:00,
2013-05-19 19:03:00,56.3,54.9,30.19,SE,146,1.0,5.0,95,0.00,,,0.11,VWS V14.01,2013-05-19 23:03:00,
2013-05-19 19:04:00,56.3,54.9,30.19,SSE,147,0.0,5.0,95,0.00,,,0.11,VWS V14.01,2013-05-19 23:04:00,
2013-05-19 19:05:00,56.3,54.9,30.19,SE,128,2.0,8.0,95,0.00,,,0.11,VWS V14.01,2013-05-19 23:05:00,
2013-05-19 19:06:00,56.2,54.5,30.19,NE,53,2.0,8.0,94,0.00,,,0.11,VWS V14.01,2013-05-19 23:06:00,
2013-05-19 19:07:00,56.2,54.5,30.19,South,184,3.0,8.0,94,0.00,,,0.11,VWS V14.01,2013-05-19 23:07:00,
2013-05-19 19:08:00,56.2,54.5,30.19,SE,129,1.0,8.0,94,0.00,,,0.11,VWS V14.01,2013-05-19 23:08:00,
2013-05-19 19:09:00,56.2,54.5,30.19,East,87,3.0,8.0,94,0.00,,,0.11,VWS V14.01,2013-05-19 23:09:00,
2013-05-19 19:10:00,56.2,54.5,30.19,East,80,2.0,8.0,94,0.00,,,0.11,VWS V14.01,2013-05-19 23:10:00,
2013-05-19 19:11:00,56.2,54.5,30.19,SSE,150,0.0,3.0,94,0.00,,,0.11,VWS V14.01,2013-05-19 23:11:00,
2013-05-19 19:12:00,56.2,54.5,30.19,SSE,150,0.0,3.0,94,0.00,,,0.11,VWS V14.01,2013-05-19 23:12:00,
2013-05-19 19:13:00,56.2,54.5,30.19,SSE,150,0.0,3.0,94,0.00,,,0.11,VWS V14.01,2013-05-19 23:13:00,
2013-05-19 19:14:00,56.2,54.5,30.19,SSW,192,3.0,6.0,94,0.00,,,0.11,VWS V14.01,2013-05-19 23:14:00,
2013-05-19 19:15:00,56.2,54.5,30.19,East,87,0.0,6.0,94,0.00,,,0.11,VWS V14.01,2013-05-19 23:15:00,
2013-05-19 19:16:00,56.2,54.5,30.19,ESE,123,3.0,6.0,94,0.00,,,0.11,VWS V14.01,2013-05-19 23:16:00,
2013-05-19 19:17:00,56.1,54.4,30.19,SE,128,0.0,6.0,94,0.00,,,0.11,VWS V14.01,2013-05-19 23:17:00,
2013-05-19 19:18:00,56.1,54.4,30.19,SE,129,1.0,6.0,94,0.00,,,0.11,VWS V14.01,2013-05-19 23:18:00,
2013-05-19 19:19:00,56.1,54.4,30.19,SE,127,1.0,6.0,94,0.00,,,0.11,VWS V14.01,2013-05-19 23:19:00,
2013-05-19 19:20:00,56.1,54.7,30.19,SE,127,0.0,6.0,95,0.00,,,0.11,VWS V14.01,2013-05-19 23:20:00,
2013-05-19 19:21:00,56.1,54.7,30.19,SE,127,0.0,0.0,95,0.00,,,0.11,VWS V14.01,2013-05-19 23:21:00,
2013-05-19 19:22:00,56.1,54.7,30.19,SE,127,0.0,0.0,95,0.00,,,0.11,VWS V14.01,2013-05-19 23:22:00,
2013-05-19 19:23:00,56.1,54.7,30.19,East,94,0.0,2.0,95,0.00,,,0.11,VWS V14.01,2013-05-19 23:23:00,
2013-05-19 19:24:00,56.1,54.7,30.19,ESE,105,1.0,2.0,95,0.00,,,0.11,VWS V14.01,2013-05-19 23:24:00,
2013-05-19 19:25:00,56.1,54.7,30.19,ESE,105,0.0,2.0,95,0.00,,,0.11,VWS V14.01,2013-05-19 23:25:00,
2013-05-19 19:26:00,56.1,54.7,30.19,NE,51,1.0,4.0,95,0.00,,,0.11,VWS V14.01,2013-05-19 23:26:00,
2013-05-19 19:27:00,56.1,54.7,30.19,NE,53,0.0,4.0,95,0.00,,,0.11,VWS V14.01,2013-05-19 23:27:00,
2013-05-19 19:28:00,56.0,54.6,30.19,South,178,1.0,5.0,95,0.00,,,0.11,VWS V14.01,2013-05-19 23:28:00,
2013-05-19 19:29:00,56.1,54.7,30.19,ESE,116,1.0,5.0,95,0.00,,,0.11,VWS V14.01,2013-05-19 23:29:00,
2013-05-19 19:30:00,56.0,54.6,30.18,ESE,116,0.0,5.0,95,0.00,,,0.11,VWS V14.01,2013-05-19 23:30:00,
2013-05-19 19:31:00,56.0,54.6,30.18,ESE,121,2.0,3.0,95,0.00,,,0.11,VWS V14.01,2013-05-19 23:31:00,
2013-05-19 19:32:00,56.0,54.6,30.18,ESE,122,0.0,3.0,95,0.00,,,0.11,VWS V14.01,2013-05-19 23:32:00,
2013-05-19 19:33:00,56.0,54.6,30.18,ESE,122,0.0,3.0,95,0.00,,,0.11,VWS V14.01,2013-05-19 23:33:00,
2013-05-19 19:34:00,56.0,54.6,30.18,ESE,122,0.0,3.0,95,0.00,,,0.11,VWS V14.01,2013-05-19 23:34:00,
2013-05-19 19:35:00,56.0,54.6,30.18,ESE,121,0.0,3.0,95,0.00,,,0.11,VWS V14.01,2013-05-19 23:35:00,
2013-05-19 19:36:00,56.0,54.6,30.18,ESE,122,0.0,3.0,95,0.00,,,0.11,VWS V14.01,2013-05-19 23:36:00,
2013-05-19 19:37:00,56.0,54.6,30.18,ESE,122,0.0,3.0,95,0.00,,,0.11,VWS V14.01,2013-05-19 23:37:00,
2013-05-19 19:38:00,56.0,54.6,30.18,ESE,122,0.0,3.0,95,0.00,,,0.11,VWS V14.01,2013-05-19 23:38:00,
2013-05-19 19:39:00,56.0,54.6,30.18,ESE,121,0.0,3.0,95,0.00,,,0.11,VWS V14.01,2013-05-19 23:39:00,
2013-05-19 19:40:00,56.0,54.6,30.18,ESE,121,0.0,3.0,95,0.00,,,0.11,VWS V14.01,2013-05-19 23:40:00,
2013-05-19 19:41:00,56.0,54.6,30.18,SSE,153,7.0,7.0,95,0.00,,,0.11,VWS V14.01,2013-05-19 23:41:00,
2013-05-19 19:42:00,56.0,54.6,30.18,SSE,150,0.0,7.0,95,0.00,,,0.11,VWS V14.01,2013-05-19 23:42:00,
2013-05-19 19:43:00,56.0,54.6,30.18,NE,40,2.0,7.0,95,0.00,,,0.11,VWS V14.01,2013-05-19 23:43:00,
2013-05-19 19:44:00,56.0,54.6,30.18,NE,40,0.0,7.0,95,0.00,,,0.11,VWS V14.01,2013-05-19 23:44:00,
2013-05-19 19:45:00,56.0,54.6,30.17,SSE,164,2.0,7.0,95,0.00,,,0.11,VWS V14.01,2013-05-19 23:45:00,
2013-05-19 19:46:00,56.0,54.6,30.17,SSE,164,0.0,7.0,95,0.00,,,0.11,VWS V14.01,2013-05-19 23:46:00,
2013-05-19 19:47:00,56.0,54.6,30.17,SE,141,3.0,7.0,95,0.00,,,0.11,VWS V14.01,2013-05-19 23:47:00,
2013-05-19 19:48:00,56.0,54.6,30.17,SE,143,3.0,7.0,95,0.00,,,0.11,VWS V14.01,2013-05-19 23:48:00,
2013-05-19 19:49:00,55.9,54.5,30.17,NE,52,0.0,7.0,95,0.00,,,0.11,VWS V14.01,2013-05-19 23:49:00,
2013-05-19 19:50:00,55.9,54.5,30.17,East,96,3.0,11.0,95,0.00,,,0.11,VWS V14.01,2013-05-19 23:50:00,
2013-05-19 19:51:00,55.9,54.5,30.17,South,171,6.0,6.0,95,0.00,,,0.11,VWS V14.01,2013-05-19 23:51:00,
2013-05-19 19:52:00,55.9,54.5,30.17,SE,125,0.0,6.0,95,0.00,,,0.11,VWS V14.01,2013-05-19 23:52:00,
2013-05-19 19:53:00,55.9,54.5,30.17,SE,125,0.0,6.0,95,0.00,,,0.11,VWS V14.01,2013-05-19 23:53:00,
2013-05-19 19:54:00,55.9,54.5,30.17,SE,125,0.0,6.0,95,0.00,,,0.11,VWS V14.01,2013-05-19 23:54:00,
2013-05-19 19:55:00,55.9,54.5,30.17,NNE,31,4.0,6.0,95,0.00,,,0.11,VWS V14.01,2013-05-19 23:55:00,
2013-05-19 19:56:00,55.9,54.5,30.17,SSE,156,0.0,6.0,95,0.00,,,0.11,VWS V14.01,2013-05-19 23:56:00,
2013-05-19 19:57:00,55.9,54.5,30.17,SSE,156,0.0,6.0,95,0.00,,,0.11,VWS V14.01,2013-05-19 23:57:00,
2013-05-19 19:58:00,55.9,54.5,30.17,SSE,147,2.0,6.0,95,0.00,,,0.11,VWS V14.01,2013-05-19 23:58:00,
2013-05-19 19:59:00,55.9,54.5,30.17,SE,143,0.0,6.0,95,0.00,,,0.11,VWS V14.01,2013-05-19 23:59:00,
2013-05-19 20:00:00,55.9,54.5,30.16,NNE,25,5.0,6.0,95,0.00,,,0.11,VWS V14.01,2013-05-20 00:00:00,
2013-05-19 20:01:00,55.9,54.5,30.16,South,180,0.0,6.0,95,0.00,,,0.11,VWS V14.01,2013-05-20 00:01:00,
2013-05-19 20:02:00,55.9,54.5,30.16,South,180,0.0,6.0,95,0.00,,,0.11,VWS V14.01,2013-05-20 00:02:00,
2013-05-19 20:03:00,55.9,54.5,30.16,South,179,0.0,6.0,95,0.00,,,0.11,VWS V14.01,2013-05-20 00:03:00,
2013-05-19 20:04:00,55.9,54.5,30.16,South,179,0.0,6.0,95,0.00,,,0.11,VWS V14.01,2013-05-20 00:04:00,
2013-05-19 20:05:00,55.9,54.5,30.16,South,179,0.0,6.0,95,0.00,,,0.11,VWS V14.01,2013-05-20 00:05:00,
2013-05-19 20:06:00,55.9,54.5,30.16,South,179,0.0,6.0,95,0.00,,,0.11,VWS V14.01,2013-05-20 00:06:00,
2013-05-19 20:07:00,55.9,54.5,30.16,South,179,0.0,6.0,95,0.00,,,0.11,VWS V14.01,2013-05-20 00:07:00,
2013-05-19 20:08:00,55.9,54.5,30.16,South,179,0.0,6.0,95,0.00,,,0.11,VWS V14.01,2013-05-20 00:08:00,
2013-05-19 20:09:00,55.9,54.5,30.16,South,179,0.0,6.0,95,0.00,,,0.11,VWS V14.01,2013-05-20 00:09:00,
2013-05-19 20:10:00,55.9,54.5,30.16,South,179,0.0,6.0,95,0.00,,,0.11,VWS V14.01,2013-05-20 00:10:00,
2013-05-19 20:11:00,55.9,54.5,30.16,South,179,0.0,0.0,95,0.00,,,0.11,VWS V14.01,2013-05-20 00:11:00,
2013-05-19 20:12:00,55.9,54.5,30.16,South,179,0.0,0.0,95,0.00,,,0.11,VWS V14.01,2013-05-20 00:12:00,
2013-05-19 20:13:00,55.9,54.5,30.16,South,179,0.0,0.0,95,0.00,,,0.11,VWS V14.01,2013-05-20 00:13:00,
2013-05-19 20:14:00,55.9,54.5,30.16,South,179,0.0,0.0,95,0.00,,,0.11,VWS V14.01,2013-05-20 00:14:00,
2013-05-19 20:15:00,55.9,54.5,30.16,South,179,0.0,0.0,95,0.00,,,0.11,VWS V14.01,2013-05-20 00:15:00,
2013-05-19 20:16:00,55.9,54.5,30.16,South,179,0.0,1.0,95,0.00,,,0.11,VWS V14.01,2013-05-20 00:16:00,
2013-05-19 20:17:00,55.9,54.5,30.16,South,179,0.0,1.0,95,0.00,,,0.11,VWS V14.01,2013-05-20 00:17:00,
2013-05-19 20:18:00,55.9,54.5,30.16,South,179,0.0,1.0,95,0.00,,,0.11,VWS V14.01,2013-05-20 00:18:00,
2013-05-19 20:19:00,55.9,54.5,30.16,South,179,0.0,1.0,95,0.00,,,0.11,VWS V14.01,2013-05-20 00:19:00,
2013-05-19 20:20:00,55.9,54.5,30.16,NE,53,3.0,4.0,95,0.00,,,0.11,VWS V14.01,2013-05-20 00:20:00,
2013-05-19 20:21:00,55.9,54.5,30.16,SE,142,4.0,5.0,95,0.00,,,0.11,VWS V14.01,2013-05-20 00:21:00,
2013-05-19 20:22:00,55.9,54.5,30.16,SE,134,4.0,6.0,95,0.00,,,0.11,VWS V14.01,2013-05-20 00:22:00,
2013-05-19 20:23:00,55.9,54.5,30.16,SE,134,0.0,6.0,95,0.00,,,0.11,VWS V14.01,2013-05-20 00:23:00,
2013-05-19 20:24:00,55.9,54.5,30.16,SE,134,0.0,6.0,95,0.00,,,0.11,VWS V14.01,2013-05-20 00:24:00,
2013-05-19 20:25:00,55.9,54.5,30.16,SE,140,3.0,6.0,95,0.00,,,0.11,VWS V14.01,2013-05-20 00:25:00,
2013-05-19 20:26:00,55.9,54.5,30.16,SE,140,1.0,6.0,95,0.00,,,0.11,VWS V14.01,2013-05-20 00:26:00,
2013-05-19 20:27:00,55.9,54.5,30.16,SE,140,0.0,6.0,95,0.00,,,0.11,VWS V14.01,2013-05-20 00:27:00,
2013-05-19 20:28:00,55.9,54.5,30.16,SE,140,0.0,6.0,95,0.00,,,0.11,VWS V14.01,2013-05-20 00:28:00,
2013-05-19 20:29:00,55.9,54.5,30.16,SE,140,0.0,6.0,95,0.00,,,0.11,VWS V14.01,2013-05-20 00:29:00,
2013-05-19 20:30:00,55.8,54.4,30.16,SE,140,0.0,6.0,95,0.00,,,0.11,VWS V14.01,2013-05-20 00:30:00,
2013-05-19 20:31:00,55.9,54.5,30.16,SE,140,0.0,0.0,95,0.00,,,0.11,VWS V14.01,2013-05-20 00:31:00,
2013-05-19 20:32:00,55.9,54.5,30.16,SE,140,0.0,0.0,95,0.00,,,0.11,VWS V14.01,2013-05-20 00:32:00,
2013-05-19 20:33:00,55.8,54.4,30.16,SE,140,0.0,3.0,95,0.00,,,0.11,VWS V14.01,2013-05-20 00:33:00,
2013-05-19 20:34:00,55.9,54.5,30.16,SE,140,0.0,3.0,95,0.00,,,0.11,VWS V14.01,2013-05-20 00:34:00,
2013-05-19 20:35:00,55.9,54.5,30.16,SE,140,0.0,3.0,95,0.00,,,0.11,VWS V14.01,2013-05-20 00:35:00,
2013-05-19 20:36:00,55.9,54.5,30.16,SE,140,0.0,3.0,95,0.00,,,0.11,VWS V14.01,2013-05-20 00:36:00,
2013-05-19 20:37:00,55.9,54.5,30.16,SSE,164,5.0,5.0,95,0.00,,,0.11,VWS V14.01,2013-05-20 00:37:00,
2013-05-19 20:38:00,55.9,54.5,30.16,SSE,164,0.0,5.0,95,0.00,,,0.11,VWS V14.01,2013-05-20 00:38:00,
2013-05-19 20:39:00,55.9,54.5,30.16,SSE,164,1.0,5.0,95,0.00,,,0.11,VWS V14.01,2013-05-20 00:39:00,
2013-05-19 20:40:00,55.9,54.5,30.16,SSE,164,0.0,5.0,95,0.00,,,0.11,VWS V14.01,2013-05-20 00:40:00,
2013-05-19 20:41:00,55.9,54.5,30.16,SSE,164,1.0,1.0,95,0.00,,,0.11,VWS V14.01,2013-05-20 00:41:00,
2013-05-19 20:42:00,55.9,54.5,30.16,SSE,153,0.0,2.0,95,0.00,,,0.11,VWS V14.01,2013-05-20 00:42:00,
2013-05-19 20:43:00,55.9,54.5,30.16,SSE,153,0.0,2.0,95,0.00,,,0.11,VWS V14.01,2013-05-20 00:43:00,
2013-05-19 20:44:00,55.9,54.5,30.16,ESE,116,2.0,3.0,95,0.00,,,0.11,VWS V14.01,2013-05-20 00:44:00,
2013-05-19 20:45:00,55.8,54.4,30.16,ESE,116,0.0,3.0,95,0.00,,,0.11,VWS V14.01,2013-05-20 00:45:00,
2013-05-19 20:46:00,55.8,54.4,30.16,ESE,116,0.0,3.0,95,0.00,,,0.11,VWS V14.01,2013-05-20 00:46:00,
2013-05-19 20:47:00,55.8,54.4,30.16,ESE,116,0.0,3.0,95,0.00,,,0.11,VWS V14.01,2013-05-20 00:47:00,
2013-05-19 20:48:00,55.8,54.4,30.16,ESE,116,0.0,3.0,95,0.00,,,0.11,VWS V14.01,2013-05-20 00:48:00,
2013-05-19 20:49:00,55.8,54.4,30.16,ESE,116,0.0,3.0,95,0.00,,,0.11,VWS V14.01,2013-05-20 00:49:00,
2013-05-19 20:50:00,55.8,54.4,30.16,ESE,116,0.0,3.0,95,0.00,,,0.11,VWS V14.01,2013-05-20 00:50:00,
2013-05-19 20:51:00,55.8,54.4,30.16,ESE,116,1.0,1.0,95,0.00,,,0.11,VWS V14.01,2013-05-20 00:51:00,
2013-05-19 20:52:00,55.8,54.4,30.16,ESE,106,0.0,3.0,95,0.00,,,0.11,VWS V14.01,2013-05-20 00:52:00,
2013-05-19 20:53:00,55.9,54.5,30.16,SSE,165,0.0,3.0,95,0.00,,,0.11,VWS V14.01,2013-05-20 00:53:00,
2013-05-19 20:54:00,55.8,54.4,30.16,SSE,165,0.0,3.0,95,0.00,,,0.11,VWS V14.01,2013-05-20 00:54:00,
2013-05-19 20:55:00,55.8,54.4,30.16,SSE,152,0.0,5.0,95,0.00,,,0.11,VWS V14.01,2013-05-20 00:55:00,
2013-05-19 20:56:00,55.8,54.4,30.16,SSE,152,0.0,5.0,95,0.00,,,0.11,VWS V14.01,2013-05-20 00:56:00,
2013-05-19 20:57:00,55.8,54.4,30.16,SSE,152,0.0,5.0,95,0.00,,,0.11,VWS V14.01,2013-05-20 00:57:00,
2013-05-19 20:58:00,55.8,54.4,30.16,SSE,152,0.0,5.0,95,0.00,,,0.11,VWS V14.01,2013-05-20 00:58:00,
2013-05-19 20:59:00,55.8,54.4,30.16,SSE,152,0.0,5.0,95,0.00,,,0.11,VWS V14.01,2013-05-20 00:59:00,
2013-05-19 21:00:00,55.8,54.4,30.16,SSE,152,0.0,5.0,95,0.00,,,0.11,VWS V14.01,2013-05-20 01:00:00,
2013-05-19 21:01:00,55.8,54.4,30.16,SSE,151,0.0,0.0,95,0.00,,,0.11,VWS V14.01,2013-05-20 01:01:00,
2013-05-19 21:02:00,55.8,54.4,30.16,SSE,151,0.0,1.0,95,0.00,,,0.11,VWS V14.01,2013-05-20 01:02:00,
2013-05-19 21:03:00,55.9,54.8,30.16,SSE,151,0.0,1.0,96,0.00,,,0.11,VWS V14.01,2013-05-20 01:03:00,
2013-05-19 21:04:00,55.9,54.8,30.16,SSE,151,0.0,1.0,96,0.00,,,0.11,VWS V14.01,2013-05-20 01:04:00,
2013-05-19 21:05:00,55.8,54.7,30.16,SE,138,0.0,2.0,96,0.00,,,0.11,VWS V14.01,2013-05-20 01:05:00,
2013-05-19 21:06:00,55.9,54.8,30.16,ESE,121,2.0,2.0,96,0.00,,,0.11,VWS V14.01,2013-05-20 01:06:00,
2013-05-19 21:07:00,55.9,54.8,30.16,East,101,0.0,2.0,96,0.00,,,0.11,VWS V14.01,2013-05-20 01:07:00,
2013-05-19 21:08:00,55.9,54.8,30.16,ENE,67,0.0,2.0,96,0.00,,,0.11,VWS V14.01,2013-05-20 01:08:00,
2013-05-19 21:09:00,55.9,54.8,30.16,ENE,67,0.0,2.0,96,0.00,,,0.11,VWS V14.01,2013-05-20 01:09:00,
2013-05-19 21:10:00,55.9,54.8,30.16,ENE,67,0.0,2.0,96,0.00,,,0.11,VWS V14.01,2013-05-20 01:10:00,
2013-05-19 21:11:00,55.9,54.8,30.16,ENE,71,0.0,0.0,96,0.00,,,0.11,VWS V14.01,2013-05-20 01:11:00,
2013-05-19 21:12:00,55.9,54.8,30.16,South,175,3.0,3.0,96,0.00,,,0.11,VWS V14.01,2013-05-20 01:12:00,
2013-05-19 21:13:00,55.9,54.8,30.16,South,175,0.0,3.0,96,0.00,,,0.11,VWS V14.01,2013-05-20 01:13:00,
2013-05-19 21:14:00,55.9,54.8,30.16,ESE,112,0.0,3.0,96,0.00,,,0.11,VWS V14.01,2013-05-20 01:14:00,
2013-05-19 21:15:00,55.9,54.8,30.16,ESE,112,0.0,3.0,96,0.00,,,0.11,VWS V14.01,2013-05-20 01:15:00,
2013-05-19 21:16:00,55.9,54.8,30.16,ESE,112,0.0,3.0,96,0.00,,,0.11,VWS V14.01,2013-05-20 01:16:00,
2013-05-19 21:17:00,55.9,54.8,30.16,ESE,112,0.0,3.0,96,0.00,,,0.11,VWS V14.01,2013-05-20 01:17:00,
2013-05-19 21:18:00,55.9,54.8,30.16,ESE,112,0.0,3.0,96,0.00,,,0.11,VWS V14.01,2013-05-20 01:18:00,
2013-05-19 21:19:00,55.9,54.8,30.16,ESE,112,0.0,3.0,96,0.00,,,0.11,VWS V14.01,2013-05-20 01:19:00,
2013-05-19 21:20:00,55.9,54.8,30.16,ESE,112,0.0,3.0,96,0.00,,,0.11,VWS V14.01,2013-05-20 01:20:00,
2013-05-19 21:21:00,55.9,54.8,30.16,ESE,112,0.0,1.0,96,0.00,,,0.11,VWS V14.01,2013-05-20 01:21:00,
2013-05-19 21:22:00,55.9,54.8,30.16,ESE,113,0.0,2.0,96,0.00,,,0.11,VWS V14.01,2013-05-20 01:22:00,
2013-05-19 21:23:00,55.9,54.8,30.16,ESE,113,0.0,2.0,96,0.00,,,0.11,VWS V14.01,2013-05-20 01:23:00,
2013-05-19 21:24:00,55.9,54.8,30.16,ESE,112,0.0,2.0,96,0.00,,,0.11,VWS V14.01,2013-05-20 01:24:00,
2013-05-19 21:25:00,55.9,54.8,30.16,ESE,112,0.0,2.0,96,0.00,,,0.11,VWS V14.01,2013-05-20 01:25:00,
2013-05-19 21:26:00,55.9,54.8,30.16,ESE,112,0.0,2.0,96,0.00,,,0.11,VWS V14.01,2013-05-20 01:26:00,
2013-05-19 21:27:00,55.9,54.8,30.16,SE,142,2.0,4.0,96,0.00,,,0.11,VWS V14.01,2013-05-20 01:27:00,
2013-05-19 21:28:00,55.9,54.8,30.16,SSE,166,0.0,4.0,96,0.00,,,0.11,VWS V14.01,2013-05-20 01:28:00,
2013-05-19 21:29:00,55.9,54.8,30.16,SSE,166,0.0,4.0,96,0.00,,,0.11,VWS V14.01,2013-05-20 01:29:00,
2013-05-19 21:30:00,55.9,54.8,30.16,SSE,165,0.0,4.0,96,0.00,,,0.11,VWS V14.01,2013-05-20 01:30:00,
2013-05-19 21:31:00,55.9,54.8,30.16,SSE,165,0.0,0.0,96,0.00,,,0.11,VWS V14.01,2013-05-20 01:31:00,
2013-05-19 21:32:00,55.9,54.8,30.16,SSE,166,0.0,0.0,96,0.00,,,0.11,VWS V14.01,2013-05-20 01:32:00,
2013-05-19 21:33:00,55.9,54.8,30.16,SSE,165,0.0,0.0,96,0.00,,,0.11,VWS V14.01,2013-05-20 01:33:00,
2013-05-19 21:34:00,55.9,54.8,30.16,SSE,166,0.0,0.0,96,0.00,,,0.11,VWS V14.01,2013-05-20 01:34:00,
2013-05-19 21:35:00,55.9,54.8,30.16,SSE,166,0.0,0.0,96,0.00,,,0.11,VWS V14.01,2013-05-20 01:35:00,
2013-05-19 21:36:00,55.9,54.8,30.16,SSE,166,0.0,0.0,96,0.00,,,0.11,VWS V14.01,2013-05-20 01:36:00,
2013-05-19 21:37:00,55.9,54.8,30.16,SSE,166,0.0,0.0,96,0.00,,,0.11,VWS V14.01,2013-05-20 01:37:00,
2013-05-19 21:38:00,55.9,54.8,30.16,SSE,166,0.0,0.0,96,0.00,,,0.11,VWS V14.01,2013-05-20 01:38:00,
2013-05-19 21:39:00,55.9,54.8,30.16,SSE,166,0.0,0.0,96,0.00,,,0.11,VWS V14.01,2013-05-20 01:39:00,
2013-05-19 21:40:00,56.0,54.9,30.16,SSE,165,0.0,0.0,96,0.00,,,0.11,VWS V14.01,2013-05-20 01:40:00,
2013-05-19 21:41:00,55.9,54.8,30.16,SSE,166,0.0,0.0,96,0.00,,,0.11,VWS V14.01,2013-05-20 01:41:00,
2013-05-19 21:42:00,55.9,54.8,30.16,SSE,166,0.0,0.0,96,0.00,,,0.11,VWS V14.01,2013-05-20 01:42:00,
2013-05-19 21:43:00,55.9,54.8,30.16,SSE,166,0.0,0.0,96,0.00,,,0.11,VWS V14.01,2013-05-20 01:43:00,
2013-05-19 21:44:00,55.9,54.8,30.16,SSE,166,0.0,0.0,96,0.00,,,0.11,VWS V14.01,2013-05-20 01:44:00,
2013-05-19 21:45:00,55.9,54.8,30.17,SSE,166,0.0,1.0,96,0.00,,,0.11,VWS V14.01,2013-05-20 01:45:00,
2013-05-19 21:46:00,56.0,54.9,30.17,SSE,166,0.0,1.0,96,0.00,,,0.11,VWS V14.01,2013-05-20 01:46:00,
2013-05-19 21:47:00,56.0,54.9,30.17,SSE,166,2.0,3.0,96,0.00,,,0.11,VWS V14.01,2013-05-20 01:47:00,
2013-05-19 21:48:00,56.0,54.9,30.17,SSE,166,0.0,3.0,96,0.00,,,0.11,VWS V14.01,2013-05-20 01:48:00,
2013-05-19 21:49:00,56.0,54.9,30.17,SSE,166,0.0,3.0,96,0.00,,,0.11,VWS V14.01,2013-05-20 01:49:00,
2013-05-19 21:50:00,56.0,54.9,30.17,SSE,166,0.0,3.0,96,0.00,,,0.11,VWS V14.01,2013-05-20 01:50:00,
2013-05-19 21:51:00,56.0,54.9,30.17,SSE,166,0.0,0.0,96,0.00,,,0.11,VWS V14.01,2013-05-20 01:51:00,
2013-05-19 21:52:00,56.0,54.9,30.17,SSE,166,0.0,1.0,96,0.00,,,0.11,VWS V14.01,2013-05-20 01:52:00,
2013-05-19 21:53:00,56.0,54.9,30.17,SSE,164,1.0,3.0,96,0.00,,,0.11,VWS V14.01,2013-05-20 01:53:00,
2013-05-19 21:54:00,56.0,54.9,30.17,SSE,164,0.0,3.0,96,0.00,,,0.11,VWS V14.01,2013-05-20 01:54:00,
2013-05-19 21:55:00,56.0,54.9,30.17,SSE,164,0.0,3.0,96,0.00,,,0.11,VWS V14.01,2013-05-20 01:55:00,
2013-05-19 21:56:00,56.0,54.9,30.17,SSE,164,0.0,3.0,96,0.00,,,0.11,VWS V14.01,2013-05-20 01:56:00,
2013-05-19 21:57:00,56.0,54.9,30.17,SSE,164,0.0,3.0,96,0.00,,,0.11,VWS V14.01,2013-05-20 01:57:00,
2013-05-19 21:58:00,56.1,55.0,30.17,SSE,164,0.0,3.0,96,0.00,,,0.11,VWS V14.01,2013-05-20 01:58:00,
2013-05-19 21:59:00,56.1,55.0,30.17,SSE,164,0.0,3.0,96,0.00,,,0.11,VWS V14.01,2013-05-20 01:59:00,
2013-05-19 22:00:00,56.1,55.0,30.18,SSE,164,1.0,1.0,96,0.00,,,0.11,VWS V14.01,2013-05-20 02:00:00,
2013-05-19 22:01:00,56.1,55.0,30.18,SSE,164,0.0,1.0,96,0.00,,,0.11,VWS V14.01,2013-05-20 02:01:00,
2013-05-19 22:02:00,56.1,55.0,30.18,SSE,164,0.0,1.0,96,0.00,,,0.11,VWS V14.01,2013-05-20 02:02:00,
2013-05-19 22:03:00,56.1,55.0,30.18,SSE,164,0.0,1.0,96,0.00,,,0.11,VWS V14.01,2013-05-20 02:03:00,
2013-05-19 22:04:00,56.1,55.0,30.18,SSE,164,1.0,1.0,96,0.00,,,0.11,VWS V14.01,2013-05-20 02:04:00,
2013-05-19 22:05:00,56.1,55.0,30.18,SSE,164,0.0,1.0,96,0.00,,,0.11,VWS V14.01,2013-05-20 02:05:00,
2013-05-19 22:06:00,56.1,55.0,30.18,SSE,164,0.0,1.0,96,0.00,,,0.11,VWS V14.01,2013-05-20 02:06:00,
2013-05-19 22:07:00,56.1,55.0,30.18,SSE,164,0.0,1.0,96,0.00,,,0.11,VWS V14.01,2013-05-20 02:07:00,
2013-05-19 22:08:00,56.1,55.0,30.18,SSE,164,0.0,1.0,96,0.00,,,0.11,VWS V14.01,2013-05-20 02:08:00,
2013-05-19 22:09:00,56.1,55.0,30.18,SSE,164,0.0,1.0,96,0.00,,,0.11,VWS V14.01,2013-05-20 02:09:00,
2013-05-19 22:10:00,56.1,55.0,30.18,SSE,164,0.0,1.0,96,0.00,,,0.11,VWS V14.01,2013-05-20 02:10:00,
2013-05-19 22:11:00,56.1,55.0,30.18,SSE,164,0.0,0.0,96,0.00,,,0.11,VWS V14.01,2013-05-20 02:11:00,
2013-05-19 22:12:00,56.1,55.0,30.18,SSE,164,0.0,0.0,96,0.00,,,0.11,VWS V14.01,2013-05-20 02:12:00,
2013-05-19 22:13:00,56.1,55.0,30.18,SSE,164,0.0,0.0,96,0.00,,,0.11,VWS V14.01,2013-05-20 02:13:00,
2013-05-19 22:14:00,56.1,55.0,30.18,SSE,164,0.0,0.0,96,0.00,,,0.11,VWS V14.01,2013-05-20 02:14:00,
2013-05-19 22:15:00,56.1,55.0,30.18,SSE,164,0.0,0.0,96,0.00,,,0.11,VWS V14.01,2013-05-20 02:15:00,
2013-05-19 22:16:00,56.1,55.0,30.18,SSE,164,0.0,0.0,96,0.00,,,0.11,VWS V14.01,2013-05-20 02:16:00,
2013-05-19 22:17:00,56.1,55.0,30.18,SSE,164,0.0,0.0,96,0.00,,,0.11,VWS V14.01,2013-05-20 02:17:00,
2013-05-19 22:18:00,56.1,55.0,30.18,SSE,164,0.0,0.0,96,0.00,,,0.11,VWS V14.01,2013-05-20 02:18:00,
2013-05-19 22:19:00,56.2,55.1,30.18,SSE,164,0.0,0.0,96,0.00,,,0.11,VWS V14.01,2013-05-20 02:19:00,
2013-05-19 22:20:00,56.2,55.1,30.18,SSE,164,0.0,0.0,96,0.00,,,0.11,VWS V14.01,2013-05-20 02:20:00,
2013-05-19 22:21:00,56.1,55.0,30.18,SSE,164,0.0,0.0,96,0.00,,,0.11,VWS V14.01,2013-05-20 02:21:00,
2013-05-19 22:22:00,56.2,55.1,30.18,SSE,164,0.0,0.0,96,0.00,,,0.11,VWS V14.01,2013-05-20 02:22:00,
2013-05-19 22:23:00,56.2,55.1,30.18,SSE,164,0.0,0.0,96,0.00,,,0.11,VWS V14.01,2013-05-20 02:23:00,
2013-05-19 22:24:00,56.2,55.1,30.18,SSE,164,0.0,0.0,96,0.00,,,0.11,VWS V14.01,2013-05-20 02:24:00,
2013-05-19 22:25:00,56.2,55.1,30.18,SSE,164,0.0,0.0,96,0.00,,,0.11,VWS V14.01,2013-05-20 02:25:00,
2013-05-19 22:26:00,56.2,55.1,30.18,SSE,164,0.0,0.0,96,0.00,,,0.11,VWS V14.01,2013-05-20 02:26:00,
2013-05-19 22:27:00,56.2,55.1,30.18,SSE,164,0.0,0.0,96,0.00,,,0.11,VWS V14.01,2013-05-20 02:27:00,
2013-05-19 22:28:00,56.2,55.1,30.18,SSE,164,0.0,0.0,96,0.00,,,0.11,VWS V14.01,2013-05-20 02:28:00,
2013-05-19 22:29:00,56.2,55.1,30.18,SSE,164,0.0,0.0,96,0.00,,,0.11,VWS V14.01,2013-05-20 02:29:00,
2013-05-19 22:30:00,56.2,55.1,30.18,SSE,164,0.0,1.0,96,0.00,,,0.11,VWS V14.01,2013-05-20 02:30:00,
2013-05-19 22:31:00,56.2,55.1,30.18,SSE,164,0.0,2.0,96,0.00,,,0.11,VWS V14.01,2013-05-20 02:31:00,
2013-05-19 22:32:00,56.2,55.1,30.18,SSE,164,0.0,2.0,96,0.00,,,0.11,VWS V14.01,2013-05-20 02:32:00,
2013-05-19 22:33:00,56.2,55.1,30.18,SSE,164,0.0,2.0,96,0.00,,,0.11,VWS V14.01,2013-05-20 02:33:00,
2013-05-19 22:34:00,56.2,55.1,30.18,SSE,164,0.0,2.0,96,0.00,,,0.11,VWS V14.01,2013-05-20 02:34:00,
2013-05-19 22:35:00,56.2,55.1,30.18,SSE,164,0.0,2.0,96,0.00,,,0.11,VWS V14.01,2013-05-20 02:35:00,
2013-05-19 22:36:00,56.2,55.1,30.18,SSE,164,0.0,2.0,96,0.00,,,0.11,VWS V14.01,2013-05-20 02:36:00,
2013-05-19 22:37:00,56.2,55.1,30.18,SSE,164,0.0,2.0,96,0.00,,,0.11,VWS V14.01,2013-05-20 02:37:00,
2013-05-19 22:38:00,56.2,55.1,30.18,SSE,164,0.0,2.0,96,0.00,,,0.11,VWS V14.01,2013-05-20 02:38:00,
2013-05-19 22:39:00,56.2,55.1,30.18,SSE,164,0.0,2.0,96,0.00,,,0.11,VWS V14.01,2013-05-20 02:39:00,
2013-05-19 22:40:00,56.2,55.1,30.18,SSE,164,0.0,2.0,96,0.00,,,0.11,VWS V14.01,2013-05-20 02:40:00,
2013-05-19 22:41:00,56.2,55.1,30.18,SSE,164,0.0,1.0,96,0.00,,,0.11,VWS V14.01,2013-05-20 02:41:00,
2013-05-19 22:42:00,56.2,55.1,30.18,SSE,164,0.0,1.0,96,0.00,,,0.11,VWS V14.01,2013-05-20 02:42:00,
2013-05-19 22:43:00,56.2,55.1,30.18,SSE,164,0.0,1.0,96,0.00,,,0.11,VWS V14.01,2013-05-20 02:43:00,
2013-05-19 22:44:00,56.2,55.1,30.18,SSE,164,0.0,1.0,96,0.00,,,0.11,VWS V14.01,2013-05-20 02:44:00,
2013-05-19 22:45:00,56.2,55.1,30.18,SSE,164,0.0,1.0,96,0.00,,,0.11,VWS V14.01,2013-05-20 02:45:00,
2013-05-19 22:46:00,56.2,55.1,30.18,SSE,164,0.0,1.0,96,0.00,,,0.11,VWS V14.01,2013-05-20 02:46:00,
2013-05-19 22:47:00,56.3,55.2,30.18,SSE,164,0.0,1.0,96,0.00,,,0.11,VWS V14.01,2013-05-20 02:47:00,
2013-05-19 22:48:00,56.3,55.2,30.18,SSE,164,0.0,1.0,96,0.00,,,0.11,VWS V14.01,2013-05-20 02:48:00,
2013-05-19 22:49:00,56.3,55.2,30.18,SSE,164,0.0,1.0,96,0.00,,,0.11,VWS V14.01,2013-05-20 02:49:00,
2013-05-19 22:50:00,56.3,55.2,30.18,SSE,164,0.0,1.0,96,0.00,,,0.11,VWS V14.01,2013-05-20 02:50:00,
2013-05-19 22:51:00,56.2,55.1,30.18,SSE,164,0.0,0.0,96,0.00,,,0.11,VWS V14.01,2013-05-20 02:51:00,
2013-05-19 22:52:00,56.3,55.2,30.18,SSE,164,0.0,0.0,96,0.00,,,0.11,VWS V14.01,2013-05-20 02:52:00,
2013-05-19 22:53:00,56.3,55.2,30.18,SSE,163,1.0,3.0,96,0.00,,,0.11,VWS V14.01,2013-05-20 02:53:00,
2013-05-19 22:54:00,56.3,55.2,30.18,SSE,163,0.0,3.0,96,0.00,,,0.11,VWS V14.01,2013-05-20 02:54:00,
2013-05-19 22:55:00,56.3,55.2,30.18,SSE,163,0.0,3.0,96,0.00,,,0.11,VWS V14.01,2013-05-20 02:55:00,
2013-05-19 22:56:00,56.3,55.2,30.18,SSE,163,0.0,3.0,96,0.00,,,0.11,VWS V14.01,2013-05-20 02:56:00,
2013-05-19 22:57:00,56.2,55.1,30.18,SSE,163,0.0,3.0,96,0.00,,,0.11,VWS V14.01,2013-05-20 02:57:00,
2013-05-19 22:58:00,56.3,55.2,30.18,SSE,163,0.0,3.0,96,0.00,,,0.11,VWS V14.01,2013-05-20 02:58:00,
2013-05-19 22:59:00,56.2,55.1,30.18,SSE,163,0.0,3.0,96,0.00,,,0.11,VWS V14.01,2013-05-20 02:59:00,
2013-05-19 23:00:00,56.3,55.2,30.18,SSE,163,0.0,3.0,96,0.00,,,0.11,VWS V14.01,2013-05-20 03:00:00,
2013-05-19 23:01:00,56.3,55.2,30.18,SSE,163,0.0,0.0,96,0.00,,,0.11,VWS V14.01,2013-05-20 03:01:00,
2013-05-19 23:02:00,56.2,55.1,30.18,SSE,163,0.0,0.0,96,0.00,,,0.11,VWS V14.01,2013-05-20 03:02:00,
2013-05-19 23:03:00,56.3,55.2,30.18,SSE,163,0.0,0.0,96,0.00,,,0.11,VWS V14.01,2013-05-20 03:03:00,
2013-05-19 23:04:00,56.3,55.2,30.18,SSE,163,0.0,0.0,96,0.00,,,0.11,VWS V14.01,2013-05-20 03:04:00,
2013-05-19 23:05:00,56.3,55.2,30.18,SSE,163,0.0,0.0,96,0.00,,,0.11,VWS V14.01,2013-05-20 03:05:00,
2013-05-19 23:06:00,56.3,55.2,30.18,SSE,163,0.0,0.0,96,0.00,,,0.11,VWS V14.01,2013-05-20 03:06:00,
2013-05-19 23:07:00,56.3,55.2,30.18,SSE,163,0.0,2.0,96,0.00,,,0.11,VWS V14.01,2013-05-20 03:07:00,
2013-05-19 23:08:00,56.3,55.2,30.18,SSE,163,0.0,2.0,96,0.00,,,0.11,VWS V14.01,2013-05-20 03:08:00,
2013-05-19 23:09:00,56.3,55.2,30.18,SSE,163,0.0,2.0,96,0.00,,,0.11,VWS V14.01,2013-05-20 03:09:00,
2013-05-19 23:10:00,56.3,55.2,30.18,SSE,163,0.0,2.0,96,0.00,,,0.11,VWS V14.01,2013-05-20 03:10:00,
2013-05-19 23:11:00,56.3,55.2,30.18,SSE,163,0.0,1.0,96,0.00,,,0.11,VWS V14.01,2013-05-20 03:11:00,
2013-05-19 23:12:00,56.3,55.2,30.18,SSE,163,0.0,1.0,96,0.00,,,0.11,VWS V14.01,2013-05-20 03:12:00,
2013-05-19 23:13:00,56.3,55.2,30.18,SSE,163,0.0,1.0,96,0.00,,,0.11,VWS V14.01,2013-05-20 03:13:00,
2013-05-19 23:14:00,56.2,55.1,30.18,SSE,163,0.0,1.0,96,0.00,,,0.11,VWS V14.01,2013-05-20 03:14:00,
2013-05-19 23:15:00,56.3,55.2,30.17,SSE,163,0.0,1.0,96,0.00,,,0.11,VWS V14.01,2013-05-20 03:15:00,
2013-05-19 23:16:00,56.3,55.2,30.17,SSE,163,0.0,1.0,96,0.00,,,0.11,VWS V14.01,2013-05-20 03:16:00,
2013-05-19 23:17:00,56.3,55.2,30.17,SSE,163,0.0,1.0,96,0.00,,,0.11,VWS V14.01,2013-05-20 03:17:00,
2013-05-19 23:18:00,56.3,55.2,30.17,SSE,163,0.0,1.0,96,0.00,,,0.11,VWS V14.01,2013-05-20 03:18:00,
2013-05-19 23:19:00,56.3,55.2,30.17,SSE,163,0.0,1.0,96,0.00,,,0.11,VWS V14.01,2013-05-20 03:19:00,
2013-05-19 23:20:00,56.3,55.2,30.17,SSE,163,0.0,1.0,96,0.00,,,0.11,VWS V14.01,2013-05-20 03:20:00,
2013-05-19 23:21:00,56.3,55.2,30.17,SSE,163,0.0,0.0,96,0.00,,,0.11,VWS V14.01,2013-05-20 03:21:00,
2013-05-19 23:22:00,56.3,55.2,30.17,SSE,163,0.0,0.0,96,0.00,,,0.11,VWS V14.01,2013-05-20 03:22:00,
2013-05-19 23:23:00,56.2,55.1,30.17,SSE,163,0.0,0.0,96,0.00,,,0.11,VWS V14.01,2013-05-20 03:23:00,
2013-05-19 23:24:00,56.3,55.2,30.17,SSE,163,0.0,0.0,96,0.00,,,0.11,VWS V14.01,2013-05-20 03:24:00,
2013-05-19 23:25:00,56.3,55.2,30.17,SSE,163,0.0,0.0,96,0.00,,,0.11,VWS V14.01,2013-05-20 03:25:00,
2013-05-19 23:26:00,56.3,55.2,30.17,SSE,163,0.0,0.0,96,0.00,,,0.11,VWS V14.01,2013-05-20 03:26:00,
2013-05-19 23:27:00,56.3,55.2,30.17,SSE,163,0.0,0.0,96,0.00,,,0.11,VWS V14.01,2013-05-20 03:27:00,
2013-05-19 23:28:00,56.3,55.2,30.17,SSE,163,0.0,2.0,96,0.00,,,0.11,VWS V14.01,2013-05-20 03:28:00,
2013-05-19 23:29:00,56.3,55.2,30.17,SSE,163,0.0,2.0,96,0.00,,,0.11,VWS V14.01,2013-05-20 03:29:00,
2013-05-19 23:30:00,56.3,55.2,30.16,SSE,163,0.0,2.0,96,0.00,,,0.11,VWS V14.01,2013-05-20 03:30:00,
2013-05-19 23:31:00,56.3,55.2,30.16,SSE,163,3.0,3.0,96,0.00,,,0.11,VWS V14.01,2013-05-20 03:31:00,
2013-05-19 23:32:00,56.3,55.2,30.16,SSE,163,0.0,3.0,96,0.00,,,0.11,VWS V14.01,2013-05-20 03:32:00,
2013-05-19 23:33:00,56.3,55.2,30.16,SSE,163,0.0,3.0,96,0.00,,,0.11,VWS V14.01,2013-05-20 03:33:00,
2013-05-19 23:34:00,56.3,55.2,30.16,SSE,163,0.0,3.0,96,0.00,,,0.11,VWS V14.01,2013-05-20 03:34:00,
2013-05-19 23:35:00,56.3,55.2,30.16,SSE,163,0.0,3.0,96,0.00,,,0.11,VWS V14.01,2013-05-20 03:35:00,
2013-05-19 23:36:00,56.3,55.2,30.16,SSE,163,0.0,3.0,96,0.00,,,0.11,VWS V14.01,2013-05-20 03:36:00,
2013-05-19 23:37:00,56.3,55.2,30.16,SSE,163,0.0,3.0,96,0.00,,,0.11,VWS V14.01,2013-05-20 03:37:00,
2013-05-19 23:38:00,56.3,55.2,30.16,SSE,163,3.0,3.0,96,0.00,,,0.11,VWS V14.01,2013-05-20 03:38:00,
2013-05-19 23:39:00,56.2,55.1,30.16,SSE,163,0.0,3.0,96,0.00,,,0.11,VWS V14.01,2013-05-20 03:39:00,
2013-05-19 23:40:00,56.3,55.2,30.16,SSE,163,0.0,3.0,96,0.00,,,0.11,VWS V14.01,2013-05-20 03:40:00,
2013-05-19 23:41:00,56.3,55.2,30.16,SSE,163,0.0,0.0,96,0.00,,,0.11,VWS V14.01,2013-05-20 03:41:00,
2013-05-19 23:42:00,56.3,55.2,30.16,SSE,163,0.0,0.0,96,0.00,,,0.11,VWS V14.01,2013-05-20 03:42:00,
2013-05-19 23:43:00,56.3,55.2,30.16,SSE,163,0.0,0.0,96,0.00,,,0.11,VWS V14.01,2013-05-20 03:43:00,
2013-05-19 23:44:00,56.3,55.2,30.16,SSE,163,0.0,0.0,96,0.00,,,0.11,VWS V14.01,2013-05-20 03:44:00,
2013-05-19 23:45:00,56.3,55.2,30.16,SSE,163,0.0,0.0,96,0.00,,,0.11,VWS V14.01,2013-05-20 03:45:00,
2013-05-19 23:46:00,56.3,55.2,30.16,SSE,163,0.0,0.0,96,0.00,,,0.11,VWS V14.01,2013-05-20 03:46:00,
2013-05-19 23:47:00,56.3,55.2,30.16,SSE,163,0.0,0.0,96,0.00,,,0.11,VWS V14.01,2013-05-20 03:47:00,
2013-05-19 23:48:00,56.3,55.2,30.16,SSE,163,0.0,0.0,96,0.00,,,0.11,VWS V14.01,2013-05-20 03:48:00,
2013-05-19 23:49:00,56.3,55.2,30.16,SSE,163,0.0,0.0,96,0.00,,,0.11,VWS V14.01,2013-05-20 03:49:00,
2013-05-19 23:50:00,56.3,55.2,30.16,SSE,163,0.0,0.0,96,0.00,,,0.11,VWS V14.01,2013-05-20 03:50:00,
2013-05-19 23:51:00,56.3,55.2,30.16,SSE,163,0.0,0.0,96,0.00,,,0.11,VWS V14.01,2013-05-20 03:51:00,
2013-05-19 23:52:00,56.3,55.2,30.16,SSE,163,0.0,0.0,96,0.00,,,0.11,VWS V14.01,2013-05-20 03:52:00,
2013-05-19 23:53:00,56.3,55.2,30.16,SSE,163,0.0,0.0,96,0.00,,,0.11,VWS V14.01,2013-05-20 03:53:00,
2013-05-19 23:54:00,56.3,55.2,30.16,SSE,163,0.0,0.0,96,0.00,,,0.11,VWS V14.01,2013-05-20 03:54:00,
2013-05-19 23:55:00,56.3,55.2,30.16,SSE,163,0.0,0.0,96,0.00,,,0.11,VWS V14.01,2013-05-20 03:55:00,
2013-05-19 23:56:00,56.3,55.2,30.16,SSE,163,0.0,0.0,96,0.00,,,0.11,VWS V14.01,2013-05-20 03:56:00,
2013-05-19 23:57:00,56.3,55.2,30.16,SSE,163,0.0,0.0,96,0.00,,,0.11,VWS V14.01,2013-05-20 03:57:00,
2013-05-19 23:58:00,56.3,55.2,30.16,SSE,163,0.0,0.0,96,0.00,,,0.11,VWS V14.01,2013-05-20 03:58:00,
2013-05-19 23:59:00,56.3,55.2,30.16,SSE,163,0.0,0.0,96,0.00,,,0.11,VWS V14.01,2013-05-20 03:59:00,